[[{"header":{"parameterUnit":"m.s-1","parameterCategory":1,"la1":30.6,"la2":28.766,"lo1":-90.7593,"lo2":-88.6598,"dy":0.0162,"dx":0.0183,"nx":116,"ny":114,"refTime":"2024-06-07T06:00:00:Z","depth":0,"parameterNumber":2,"parameterNumberName":"U-component_of_WINDS"},"data":[0.0,0.0,0.0,0.0,0.0,0.0,0.0,0.0,0.0,0.0,0.0,0.0,0.0,0.0,0.0,0.0,0.0,0.0,0.0,0.0,0.0,0.0,0.0,0.0,0.0,0.0,0.0,0.0,0.0,0.0,0.0,0.0,0.0,0.0,0.0,0.0,0.0,0.0,0.0,0.0,0.0,0.0,0.0,0.0,0.0,0.0,0.0,0.0,0.0,0.0,0.0,0.0,0.0,0.0,0.0,0.0,0.0,0.0,0.0,0.0,0.0,0.0,0.0,0.0,0.0,0.0,0.0,0.0,0.0,0.0,0.0,0.0,0.0,0.0,0.0,0.0,0.0,0.0,0.0,0.0,0.0,0.0,0.0,0.0,0.0,0.0,0.0,0.0,0.0,0.0,0.0,0.0,0.0,0.0,0.0,0.0,0.0,0.0,0.0,0.0,0.0,0.0,0.0,0.0,0.0,0.0,0.0,0.0,0.0,0.0,0.0,0.0,0.0,0.0,0.0,0.0,0.0,0.0,0.0,0.0,0.0,0.0,0.0,0.0,0.0,0.0,0.0,0.0,0.0,0.0,0.0,0.0,0.0,0.0,0.0,0.0,0.0,0.0,0.0,0.0,0.0,0.0,0.0,0.0,0.0,0.0,0.0,0.0,0.0,0.0,0.0,0.0,0.0,0.0,0.0,0.0,0.0,0.0,0.0,0.0,0.0,0.0,0.0,0.0,0.0,0.0,0.0,0.0,0.0,0.0,0.0,0.0,0.0,0.0,0.0,0.0,0.0,0.0,0.0,0.0,0.0,0.0,0.0,0.0,0.0,0.0,0.0,0.0,0.0,0.0,0.0,0.0,0.0,0.0,0.0,0.0,0.0,0.0,0.0,0.0,0.0,0.0,0.0,0.0,0.0,0.0,0.0,0.0,0.0,0.0,0.0,0.0,0.0,0.0,0.0,0.0,0.0,0.0,0.0,0.0,0.0,0.0,0.0,0.0,0.0,0.0,0.0,0.0,0.0,0.0,0.0,0.0,0.0,0.0,0.0,0.0,0.0,0.0,0.0,0.0,0.0,0.0,0.0,0.0,0.0,0.0,0.0,0.0,0.0,0.0,0.0,0.0,0.0,0.0,0.0,0.0,0.0,0.0,0.0,0.0,0.0,0.0,0.0,0.0,0.0,0.0,0.0,0.0,0.0,0.0,0.0,0.0,0.0,0.0,0.0,0.0,0.0,0.0,0.0,0.0,0.0,0.0,0.0,0.0,0.0,0.0,0.0,0.0,0.0,0.0,0.0,0.0,0.0,0.0,0.0,0.0,0.0,0.0,0.0,0.0,0.0,0.0,0.0,0.0,0.0,0.0,0.0,0.0,0.0,0.0,0.0,0.0,0.0,0.0,0.0,0.0,0.0,0.0,0.0,0.0,0.0,0.0,0.0,0.0,0.0,0.0,0.0,0.0,0.0,0.0,0.0,0.0,0.0,0.0,0.0,0.0,0.0,0.0,0.0,0.0,0.0,0.0,0.0,0.0,0.0,0.0,0.0,0.0,0.0,0.0,0.0,0.0,0.0,0.0,0.0,0.0,0.0,0.0,0.0,0.0,0.0,0.0,0.0,0.0,0.0,0.0,0.0,0.0,0.0,0.0,0.0,0.0,0.0,0.0,0.0,0.0,0.0,0.0,0.0,0.0,0.0,0.0,0.0,0.0,0.0,0.0,0.0,0.0,0.0,0.0,0.0,0.0,0.0,0.0,0.0,0.0,0.0,0.0,0.0,0.0,0.0,0.0,0.0,0.0,0.0,0.0,0.0,0.0,0.0,0.0,0.0,0.0,0.0,0.0,0.0,0.0,0.0,0.0,0.0,0.0,0.0,0.0,0.0,0.0,0.0,0.0,0.0,0.0,0.0,0.0,0.0,0.0,0.0,0.0,0.0,0.0,0.0,0.0,0.0,0.0,0.0,0.0,0.0,0.0,0.0,0.0,0.0,0.0,0.0,0.0,0.0,0.0,0.0,0.0,0.0,0.0,0.0,0.0,0.0,0.0,0.0,0.0,0.0,0.0,0.0,0.0,0.0,0.0,0.0,0.0,0.0,0.0,0.0,0.0,0.0,0.0,0.0,0.0,0.0,0.0,0.0,0.0,0.0,0.0,0.0,0.0,0.0,0.0,0.0,0.0,0.0,0.0,0.0,0.0,0.0,0.0,0.0,0.0,0.0,0.0,0.0,0.0,0.0,0.0,0.0,0.0,0.0,0.0,0.0,0.0,0.0,0.0,0.0,0.0,0.0,0.0,0.0,0.0,0.0,0.0,0.0,0.0,0.0,0.0,0.0,0.0,0.0,0.0,0.0,0.0,0.0,0.0,0.0,0.0,0.0,0.0,0.0,0.0,0.0,0.0,0.0,0.0,0.0,0.0,0.0,0.0,0.0,0.0,0.0,0.0,0.0,0.0,0.0,0.0,0.0,0.0,0.0,0.0,0.0,0.0,0.0,0.0,0.0,0.0,0.0,0.0,0.0,0.0,0.0,0.0,0.0,0.0,0.0,0.0,0.0,0.0,0.0,0.0,0.0,0.0,0.0,0.0,0.0,0.0,0.0,0.0,0.0,0.0,0.0,0.0,0.0,0.0,0.0,0.0,0.0,0.0,0.0,0.0,0.0,0.0,0.0,0.0,0.0,0.0,0.0,0.0,0.0,0.0,0.0,0.0,0.0,0.0,0.0,0.0,0.0,0.0,0.0,0.0,0.0,0.0,0.0,0.0,0.0,0.0,0.0,0.0,0.0,0.0,0.0,0.0,0.0,0.0,0.0,0.0,0.0,0.0,0.0,0.0,0.0,0.0,0.0,0.0,0.0,0.0,0.0,0.0,0.0,0.0,0.0,0.0,0.0,0.0,0.0,0.0,0.0,0.0,0.0,0.0,0.0,0.0,0.0,0.0,0.0,0.0,0.0,0.0,0.0,0.0,0.0,0.0,0.0,0.0,0.0,0.0,0.0,0.0,0.0,0.0,0.0,0.0,0.0,0.0,0.0,0.0,0.0,0.0,0.0,0.0,0.0,0.0,0.0,0.0,0.0,0.0,0.0,0.0,0.0,0.0,0.0,0.0,0.0,0.0,0.0,0.0,0.0,0.0,0.0,0.0,0.0,0.0,0.0,0.0,0.0,0.0,0.0,0.0,0.0,0.0,0.0,0.0,0.0,0.0,0.0,0.0,0.0,0.0,0.0,0.0,0.0,0.0,0.0,0.0,0.0,0.0,0.0,0.0,0.0,0.0,0.0,0.0,0.0,0.0,0.0,0.0,0.0,0.0,0.0,0.0,0.0,0.0,0.0,0.0,0.0,0.0,0.0,0.0,0.0,0.0,0.0,0.0,0.0,0.0,0.0,0.0,0.0,0.0,0.0,0.0,0.0,0.0,0.0,0.0,0.0,0.0,0.0,0.0,0.0,0.0,0.0,0.0,0.0,0.0,0.0,0.0,0.0,0.0,0.0,0.0,0.0,0.0,0.0,0.0,0.0,0.0,0.0,0.0,0.0,0.0,0.0,0.0,0.0,0.0,0.0,0.0,0.0,0.0,0.0,0.0,0.0,0.0,0.0,0.0,0.0,0.0,0.0,0.0,0.0,0.0,0.0,0.0,0.0,0.0,0.0,0.0,0.0,0.0,0.0,0.0,0.0,0.0,0.0,0.0,0.0,0.0,0.0,0.0,0.0,0.0,0.0,0.0,0.0,0.0,0.0,0.0,0.0,0.0,0.0,0.0,0.0,0.0,0.0,0.0,0.0,0.0,0.0,0.0,0.0,0.0,0.0,0.0,0.0,0.0,0.0,0.0,0.0,0.0,0.0,0.0,0.0,0.0,0.0,0.0,0.0,0.0,0.0,0.0,0.0,0.0,0.0,0.0,0.0,0.0,0.0,0.0,0.0,0.0,0.0,0.0,0.0,0.0,0.0,0.0,0.0,0.0,0.0,0.0,0.0,0.0,0.0,0.0,0.0,0.0,0.0,0.0,0.0,0.0,0.0,0.0,0.0,0.0,0.0,0.0,0.0,0.0,0.0,0.0,0.0,0.0,0.0,0.0,0.0,0.0,0.0,0.0,0.0,0.0,0.0,0.0,0.0,0.0,0.0,0.0,0.0,0.0,0.0,0.0,0.0,0.0,0.0,0.0,0.0,0.0,0.0,0.0,0.0,0.0,0.0,0.0,0.0,0.0,0.0,0.0,0.0,0.0,0.0,0.0,0.0,0.0,0.0,0.0,0.0,0.0,0.0,0.0,0.0,0.0,0.0,0.0,0.0,0.0,0.0,0.0,0.0,0.0,0.0,0.0,0.0,0.0,0.0,0.0,0.0,0.0,0.0,0.0,0.0,0.0,0.0,0.0,0.0,0.0,0.0,0.0,0.0,0.0,0.0,0.0,0.0,0.0,0.0,0.0,0.0,0.0,0.0,0.0,0.0,0.0,0.0,0.0,0.0,0.0,0.0,0.0,0.0,0.0,0.0,0.0,0.0,0.0,0.0,0.0,0.0,0.0,0.0,0.0,0.0,0.0,0.0,0.0,0.0,0.0,0.0,0.0,0.0,0.0,0.0,0.0,0.0,0.0,0.0,0.0,0.0,0.0,0.0,0.0,0.0,0.0,0.0,0.0,0.0,0.0,0.0,0.0,0.0,0.0,0.0,0.0,0.0,0.0,0.0,0.0,0.0,0.0,0.0,0.0,0.0,0.0,0.0,0.0,0.0,0.0,0.0,0.0,0.0,0.0,0.0,0.0,0.0,0.0,0.0,0.0,0.0,0.0,0.0,0.0,0.0,0.0,0.0,0.0,0.0,0.0,0.0,0.0,0.0,0.0,0.0,0.0,0.0,0.0,0.0,0.0,0.0,0.0,0.0,0.0,0.0,0.0,0.0,0.0,0.0,0.0,0.0,0.0,0.0,0.0,0.0,0.0,0.0,0.0,0.0,0.0,0.0,0.0,0.0,0.0,0.0,0.0,0.0,0.0,0.0,0.0,0.0,0.0,0.0,0.0,0.0,0.0,0.0,0.0,0.0,0.0,0.0,0.0,0.0,0.0,0.0,0.0,0.0,0.0,0.0,0.0,0.0,0.0,0.0,0.0,0.0,0.0,0.0,0.0,0.0,0.0,0.0,0.0,0.0,0.0,0.0,0.0,0.0,0.0,0.0,0.0,0.0,0.0,0.0,0.0,0.0,0.0,0.0,0.0,0.0,0.0,0.0,0.0,0.0,0.0,0.0,0.0,0.0,0.0,0.0,0.0,0.0,0.0,0.0,0.0,0.0,0.0,0.0,0.0,0.0,0.0,0.0,0.0,0.0,0.0,0.0,0.0,0.0,0.0,0.0,0.0,0.0,0.0,0.0,0.0,0.0,0.0,0.0,0.0,0.0,0.0,0.0,0.0,0.0,0.0,0.0,0.0,0.0,0.0,0.0,0.0,0.0,0.0,0.0,0.0,0.0,0.0,0.0,0.0,0.0,0.0,0.0,0.0,0.0,0.0,0.0,0.0,0.0,0.0,0.0,0.0,0.0,0.0,0.0,0.0,0.0,0.0,0.0,0.0,0.0,0.0,0.0,0.0,0.0,0.0,0.0,0.0,0.0,0.0,0.0,0.0,0.0,0.0,0.0,0.0,0.0,0.0,0.0,0.0,0.0,0.0,0.0,0.0,0.0,0.0,0.0,0.0,0.0,0.0,0.0,0.0,0.0,0.0,0.0,0.0,0.0,0.0,0.0,0.0,0.0,0.0,0.0,0.0,0.0,0.0,0.0,0.0,0.0,0.0,0.0,0.0,0.0,0.0,0.0,0.0,0.0,0.0,0.0,0.0,0.0,0.0,0.0,0.0,0.0,0.0,0.0,0.0,0.0,0.0,0.0,0.0,0.0,0.0,0.0,0.0,0.0,0.0,0.0,0.0,0.0,0.0,0.0,0.0,0.0,0.0,0.0,0.0,0.0,0.0,0.0,0.0,0.0,0.0,0.0,0.0,0.0,0.0,0.0,0.0,0.0,0.0,0.0,0.0,0.0,0.0,0.0,0.0,0.0,0.0,0.0,0.0,0.0,0.0,0.0,0.0,0.0,0.0,0.0,0.0,0.0,0.0,-3.3154,0.0,0.0,0.0,0.0,0.0,0.0,0.0,0.0,0.0,0.0,0.0,0.0,0.0,0.0,0.0,0.0,0.0,0.0,0.0,0.0,0.0,0.0,0.0,0.0,-2.1688,-2.282,-2.2825,-2.2824,-2.2844,-2.2844,0.0,0.0,0.0,0.0,0.0,-2.3226,-2.3012,-2.3338,-2.4205,-2.4225,-2.4912,-2.6149,-2.4818,-2.3789,-2.3027,0.0,0.0,0.0,0.0,0.0,0.0,0.0,0.0,0.0,0.0,0.0,0.0,0.0,0.0,0.0,0.0,0.0,0.0,0.0,0.0,0.0,0.0,0.0,0.0,0.0,0.0,0.0,0.0,0.0,0.0,0.0,0.0,0.0,0.0,0.0,0.0,0.0,0.0,0.0,0.0,0.0,0.0,0.0,0.0,0.0,0.0,0.0,0.0,0.0,0.0,0.0,0.0,0.0,0.0,0.0,0.0,0.0,0.0,0.0,0.0,0.0,0.0,0.0,0.0,0.0,0.0,0.0,0.0,0.0,0.0,0.0,-3.4713,0.0,0.0,0.0,0.0,0.0,0.0,0.0,0.0,0.0,0.0,0.0,0.0,0.0,0.0,0.0,0.0,0.0,0.0,0.0,0.0,0.0,-2.0027,-2.0051,-2.2051,-2.3482,-2.3629,-2.3602,-2.3613,-2.3674,-2.3498,0.0,0.0,0.0,-2.3859,-2.4163,-2.3771,-2.4363,-2.6035,-2.6473,-2.7421,-2.8858,-2.8999,-2.8323,-2.6948,-2.5619,0.0,0.0,0.0,0.0,0.0,0.0,0.0,0.0,0.0,0.0,0.0,0.0,0.0,0.0,0.0,0.0,0.0,0.0,0.0,0.0,0.0,0.0,0.0,0.0,0.0,0.0,0.0,0.0,0.0,0.0,0.0,0.0,0.0,0.0,0.0,0.0,0.0,0.0,0.0,0.0,0.0,0.0,0.0,0.0,0.0,0.0,0.0,0.0,0.0,0.0,0.0,0.0,0.0,0.0,0.0,0.0,0.0,0.0,0.0,0.0,0.0,0.0,0.0,-4.3111,-4.3408,-4.3111,-4.2718,-4.2496,-4.2291,-3.9978,-3.8571,-3.7806,-3.6274,0.0,0.0,0.0,0.0,0.0,0.0,0.0,0.0,0.0,0.0,0.0,0.0,0.0,0.0,0.0,0.0,0.0,0.0,0.0,-2.0096,-2.0313,-2.2166,-2.3727,-2.4547,-2.4469,-2.448,-2.4776,-2.4394,0.0,0.0,-2.4466,-2.4818,-2.5187,-2.5866,-2.6716,-2.7773,-2.9989,-3.1183,-3.1426,-3.2186,-3.2423,-3.2074,-2.8938,-2.7526,-2.737,0.0,0.0,0.0,0.0,0.0,0.0,0.0,0.0,0.0,0.0,0.0,0.0,0.0,0.0,0.0,0.0,0.0,0.0,0.0,0.0,0.0,0.0,0.0,0.0,0.0,0.0,0.0,0.0,0.0,0.0,0.0,0.0,0.0,0.0,0.0,0.0,0.0,0.0,0.0,0.0,0.0,-3.1465,-3.1816,0.0,0.0,0.0,0.0,0.0,0.0,0.0,0.0,0.0,0.0,0.0,0.0,0.0,-4.1714,-4.2595,-4.4256,-4.5073,-4.5051,-4.6339,-4.6748,-4.6367,-4.6026,-4.569,-4.5326,-4.4952,0.0,-3.9517,-3.8589,0.0,0.0,0.0,0.0,0.0,0.0,0.0,0.0,0.0,0.0,0.0,0.0,0.0,0.0,0.0,0.0,0.0,0.0,0.0,0.0,0.0,-2.3305,-2.5029,-2.544,-2.6267,-2.6617,-2.6311,-2.5668,-2.5221,-2.4991,-2.4865,-2.5245,-2.6179,-2.7007,-2.859,-3.0971,-3.3041,-3.402,-3.3986,-3.4372,-3.4533,-3.4436,-3.2902,-3.1458,-2.9998,-2.6951,0.0,0.0,0.0,0.0,0.0,0.0,0.0,0.0,0.0,0.0,0.0,0.0,0.0,0.0,0.0,0.0,0.0,0.0,0.0,0.0,0.0,0.0,0.0,0.0,0.0,0.0,0.0,0.0,0.0,0.0,0.0,0.0,0.0,0.0,0.0,0.0,0.0,0.0,0.0,-3.1191,-3.3593,-3.3544,-3.4636,-3.4859,0.0,0.0,0.0,0.0,0.0,0.0,0.0,0.0,0.0,-4.3304,-4.3737,-4.4565,-4.5898,-4.7114,-4.7747,-4.7748,-4.8596,-4.891,-4.8728,-4.8129,-4.7749,-4.7573,-4.7352,-4.599,-4.3775,-4.1607,-3.9819,-3.8268,0.0,0.0,0.0,0.0,-3.5777,-3.5556,0.0,0.0,0.0,0.0,0.0,0.0,0.0,0.0,0.0,0.0,0.0,0.0,-2.1949,-2.453,-2.6354,-2.6823,-2.8032,-2.8562,-2.8051,-2.7041,-2.6304,-2.5946,-2.5262,-2.5477,-2.6752,-2.8218,-3.0441,-3.3452,-3.4922,-3.5622,-3.5577,-3.5577,-3.5558,-3.55,-3.55,-3.4498,-3.262,-2.9412,-2.7551,-2.6468,0.0,0.0,0.0,0.0,0.0,0.0,0.0,0.0,0.0,0.0,0.0,0.0,0.0,0.0,0.0,0.0,0.0,0.0,0.0,0.0,0.0,0.0,0.0,0.0,0.0,0.0,0.0,0.0,0.0,0.0,0.0,0.0,0.0,0.0,0.0,0.0,0.0,-3.3493,-3.5536,-3.526,-3.6557,-3.6941,0.0,0.0,0.0,0.0,0.0,0.0,-4.1766,-4.3239,-4.4833,-4.6518,-4.657,-4.7271,-4.8741,-4.9423,-4.9731,-4.975,-5.0087,-5.0142,-4.9937,-4.934,-4.8928,-4.8732,-4.8426,-4.7974,-4.7183,-4.4382,-4.2636,-4.1559,-4.0182,-3.9489,-3.9345,-3.9559,-3.9261,-3.8953,0.0,0.0,0.0,0.0,0.0,0.0,0.0,0.0,0.0,0.0,0.0,-2.1773,-2.3424,-2.543,-2.7326,-2.8976,-2.9396,-2.9668,0.0,-2.8371,-2.7331,-2.7118,-2.5812,-2.5584,-2.6689,-2.9924,-3.2442,-3.4152,-3.5063,-3.5519,-3.5519,-3.5519,-3.55,-3.55,-3.55,-3.543,-3.5155,-3.2538,-3.0941,-2.985,-2.6498,0.0,0.0,0.0,0.0,0.0,0.0,0.0,0.0,0.0,0.0,0.0,0.0,0.0,0.0,0.0,0.0,0.0,0.0,0.0,0.0,0.0,0.0,0.0,0.0,0.0,0.0,0.0,0.0,0.0,0.0,0.0,0.0,0.0,0.0,0.0,0.0,0.0,0.0,-3.6991,-3.9774,0.0,0.0,0.0,0.0,-4.1493,-4.3074,-4.4432,-4.5306,-4.6212,-4.749,-4.9163,-4.9202,-4.9654,-5.0548,-5.0606,-5.0635,-5.0635,-5.0654,-5.0275,-4.9537,-4.9476,-4.9047,-4.8328,-4.8307,-4.8288,-4.8102,-4.6429,-4.4785,-4.3294,-4.2438,-4.1657,-4.1078,-4.1839,-4.1622,-4.1062,0.0,0.0,0.0,0.0,0.0,-1.5703,-1.6139,-1.6561,-1.7501,-1.9367,-2.1053,-2.2677,-2.423,-2.6785,-2.8616,-2.9237,-3.0348,-3.0976,-3.0882,-2.9201,-2.8627,-2.954,-2.7786,-2.8045,-3.0751,-3.252,-3.3934,-3.5044,-3.5339,-3.55,-3.55,-3.55,-3.55,-3.55,-3.55,-3.55,-3.5365,-3.3333,-3.1987,-3.0987,-2.8139,-2.5784,0.0,0.0,0.0,0.0,0.0,0.0,0.0,0.0,0.0,0.0,0.0,0.0,0.0,0.0,0.0,0.0,0.0,0.0,0.0,0.0,0.0,0.0,0.0,0.0,0.0,0.0,0.0,0.0,0.0,0.0,0.0,0.0,0.0,0.0,0.0,0.0,0.0,-4.0067,-4.2228,0.0,-4.1468,-4.2603,-4.3678,-4.4209,-4.5797,-4.7124,-4.799,-4.8875,-4.9615,-5.0212,-5.0731,-5.1164,-5.1462,-5.1462,-5.1462,-5.1462,-5.0693,-5.0035,-4.9488,-4.9244,-4.8829,-4.8306,-4.8306,-4.8306,-4.825,-4.7679,-4.6817,-4.5736,-4.493,-4.4437,-4.4217,-4.451,-4.4437,-4.4236,0.0,0.0,0.0,0.0,-1.5045,-1.5205,-1.5976,-1.6649,-1.7862,-2.0099,-2.1877,-2.3671,-2.5609,-2.7871,-2.9443,-2.9909,-3.1221,-3.1829,-3.132,-3.0355,-2.9992,-3.0446,-2.8906,-2.953,-3.273,-3.3673,-3.4588,-3.55,-3.55,-3.5446,-3.5361,-3.5376,-3.5369,-3.5377,-3.5373,-3.5424,-3.5423,-3.4269,-3.3295,-3.2372,-3.0371,-2.8563,-2.6846,0.0,0.0,0.0,0.0,0.0,0.0,0.0,0.0,0.0,0.0,0.0,0.0,0.0,0.0,0.0,0.0,0.0,0.0,0.0,0.0,0.0,0.0,0.0,0.0,0.0,0.0,0.0,0.0,0.0,0.0,0.0,0.0,0.0,0.0,-3.8952,-4.1142,-4.2175,-4.4325,-4.5252,-4.4064,-4.5201,-4.6259,-4.6845,-4.8182,-4.9221,-4.9798,-5.0644,-5.1106,-5.1106,-5.1905,-5.2328,-5.2338,-5.2347,-5.2347,-5.2328,-5.1097,-5.0308,-4.9922,-4.923,-4.8675,-4.8306,-4.8306,-4.8306,-4.8306,-4.8306,-4.7992,-4.7439,-4.6924,-4.6722,-4.6722,-4.6722,-4.6539,-4.6266,0.0,0.0,0.0,-1.4345,-1.4554,-1.5081,-1.5789,-1.7,-1.864,-2.0903,-2.2655,-2.4728,-2.7501,-2.8677,-2.9779,-3.1083,-3.1986,-3.2166,-3.1404,-3.1776,-3.1327,-2.969,-2.9162,-2.999,-3.226,-3.3356,-3.4428,-3.5538,-3.5538,-3.5408,-3.5138,-3.5116,-3.5106,-3.5095,-3.5117,-3.5266,-3.55,-3.55,-3.5007,-3.4167,-3.3295,-3.1948,-3.0308,0.0,0.0,0.0,0.0,0.0,0.0,0.0,0.0,0.0,0.0,0.0,0.0,0.0,0.0,0.0,0.0,0.0,0.0,0.0,0.0,0.0,0.0,0.0,0.0,0.0,0.0,0.0,0.0,0.0,0.0,0.0,0.0,0.0,-3.8071,-4.1171,-4.3269,-4.3302,-4.6182,-4.7548,-4.5922,-4.799,-4.9452,-4.9471,-5.026,-5.075,-5.0789,-5.1529,-5.1942,-5.1942,-5.28,-5.3232,-5.324,-5.3247,-5.3227,-5.3241,-5.1943,-5.1145,-5.0749,-4.9508,-4.8693,-4.8306,-4.8306,-4.8306,-4.8306,-4.8306,-4.8306,-4.8306,-4.8306,-4.8306,-4.8306,-4.8306,-4.7811,-4.7022,0.0,0.0,-1.4454,-1.4231,-1.4961,-1.5668,-1.5867,-1.7437,-1.9215,-2.097,-2.3442,-2.5748,-2.7603,-2.9503,-3.0796,-3.1173,-3.1695,-3.2141,-3.2447,-3.136,-3.06,-3.0339,-3.2458,-3.3959,-3.4653,-3.5481,-3.6052,-3.6374,-3.6374,-3.6228,-3.5952,-3.5567,-3.5297,-3.5114,-3.5293,-3.5432,-3.55,-3.55,-3.5365,-3.5064,-3.418,-3.3179,-3.2025,0.0,0.0,0.0,0.0,0.0,0.0,0.0,0.0,0.0,0.0,0.0,0.0,0.0,0.0,0.0,0.0,0.0,0.0,0.0,0.0,0.0,0.0,0.0,0.0,0.0,0.0,0.0,0.0,0.0,0.0,0.0,-3.7964,-4.0677,-4.236,-4.3948,-4.5627,-4.7461,-4.9029,-4.9798,-4.9346,-4.9942,-5.0587,-5.1173,-5.1433,-5.1856,-5.2472,-5.2722,-5.2837,-5.2837,-5.3694,-5.4147,-5.4136,-5.4133,-5.4143,-5.4127,-5.2845,-5.1749,-5.0769,-5.0081,-4.9229,-4.8306,-4.8306,-4.8306,-4.8306,-4.8306,-4.8306,-4.8306,-4.8306,-4.8306,-4.8306,-4.8306,-4.8159,-4.7939,0.0,-1.4344,-1.4195,-1.4195,-1.5241,-1.6037,-1.5919,-1.7967,-2.0045,-2.1461,-2.402,-2.6352,-2.811,-2.9648,-3.0654,-3.0933,-3.1533,-3.1829,-3.166,-3.0668,-3.087,-3.2658,-3.3813,-3.5096,-3.6579,-3.681,-3.7014,-3.7243,-3.7094,-3.6908,-3.6624,-3.5982,-3.576,-3.5923,-3.5499,-3.558,-3.5975,-3.5641,-3.55,-3.5462,-3.4949,-3.4449,-3.3846,-3.2507,-3.1673,-3.1095,-2.9932,-2.9547,-2.9472,-2.8891,0.0,0.0,0.0,0.0,0.0,0.0,0.0,0.0,0.0,0.0,0.0,0.0,0.0,0.0,0.0,0.0,0.0,0.0,0.0,0.0,0.0,0.0,0.0,0.0,-4.1054,-4.3682,-4.6105,-4.6567,-4.7336,-4.9183,-5.0173,-5.0712,-5.0712,-5.0991,-5.1395,-5.1865,-5.2231,-5.2673,-5.3164,-5.3549,-5.3741,-5.3741,-5.4559,-5.5002,-5.5002,-5.5,-5.5011,-5.4993,-5.3738,-5.2506,-5.1285,-5.0492,-4.9469,0.0,-4.8306,-4.8306,-4.8306,-4.8306,-4.8306,0.0,0.0,0.0,0.0,0.0,-4.8306,-4.8306,0.0,-1.4344,-1.4224,-1.427,-1.5378,-1.6194,-1.6014,-1.8396,-2.0693,-2.2017,-2.4214,-2.6438,-2.8516,-2.9313,-2.9937,-3.0559,-3.146,-3.1515,0.0,-3.0448,-3.1988,-3.5284,-3.4198,-3.4921,-3.793,-3.7625,-3.7658,-3.8093,-3.7782,-3.7507,-3.7233,-3.6451,-3.6464,-3.71,-3.5931,-3.5957,-3.6811,-3.6078,-3.5738,-3.5641,-3.5641,-3.5577,-3.5423,-3.4646,-3.4351,-3.4178,-3.2744,-3.2266,-3.2106,-3.0692,0.0,0.0,0.0,0.0,0.0,0.0,0.0,0.0,0.0,0.0,0.0,0.0,0.0,0.0,0.0,0.0,0.0,0.0,0.0,0.0,0.0,0.0,0.0,0.0,-4.4085,-4.5817,-4.8952,-4.8817,-4.8682,-4.9452,-5.0231,-5.0712,-5.0712,-5.1433,-5.1942,-5.2038,-5.2856,-5.3395,-5.3491,0.0,0.0,0.0,0.0,-5.5703,-5.5703,-5.5703,-5.5703,-5.5684,-5.4575,-5.3325,-5.1962,-5.0839,-4.958,-4.8306,-4.8306,-4.8306,-4.8306,-4.8306,-4.8306,-4.8306,-4.8306,-4.8306,-4.8306,-4.8306,-4.8306,-4.8306,0.0,-1.4344,-1.434,-1.4779,-1.5468,-1.6118,-1.6486,-1.8042,-1.9729,-2.1207,-2.3369,-2.536,-2.6962,-2.8596,-2.9851,-3.0612,-3.1491,-3.2218,0.0,0.0,-3.4201,-3.3701,-3.5971,-3.7484,-3.7989,-3.8588,-3.8823,-3.8647,-3.8586,-3.8407,-3.8118,-3.7485,-3.7308,-3.7502,-3.746,-3.7543,-3.7737,-3.7583,-3.7107,-3.647,-3.647,-3.6078,-3.5481,-3.5301,-3.5282,-3.5282,-3.4974,-3.4911,-3.4927,-3.4722,-3.3749,-3.2559,-3.2441,-3.1367,0.0,0.0,0.0,0.0,0.0,0.0,0.0,0.0,0.0,0.0,0.0,0.0,0.0,0.0,0.0,0.0,0.0,0.0,0.0,-4.3682,-4.5913,-4.7836,-4.9202,-4.9856,-5.0269,-5.0442,-5.0596,-5.0712,-5.0712,-5.1433,-5.2192,-5.2895,-5.376,-5.453,-5.5184,-5.5376,-5.5472,-5.5472,-5.5607,-5.5703,-5.5703,-5.5703,-5.5703,-5.5684,0.0,0.0,-5.1985,-5.1417,-5.0116,-4.8306,-4.8306,-4.8306,-4.8306,-4.8306,-4.8306,-4.8306,-4.8306,-4.8306,-4.8306,-4.8306,-4.8306,-4.8306,-1.4493,-1.4745,-1.5047,-1.5302,-1.6269,-1.7043,-1.7177,-1.8513,-1.9949,-2.1182,-2.2976,-2.466,-2.5997,-2.7315,-2.8264,-2.8664,-3.0054,0.0,0.0,-3.3942,-3.4263,-3.4438,-3.6928,-3.8599,-3.9245,-3.9283,-3.9342,-3.9446,-3.9272,-3.9135,-3.8974,-3.8253,-3.8231,-3.8825,-3.8248,-3.8248,-3.8626,-3.8188,-3.775,-3.732,-3.6887,-3.6451,-3.6052,-3.5661,-3.5519,-3.5566,-3.5627,-3.5678,-3.5723,-3.5898,-3.5371,-3.4668,-3.4687,-3.3828,-3.2559,0.0,0.0,0.0,0.0,0.0,0.0,0.0,0.0,0.0,0.0,0.0,0.0,0.0,0.0,-3.8642,-4.0758,0.0,-4.4393,-4.6509,-4.7913,-4.9048,-4.9933,-5.0442,-5.0712,-5.0712,-5.0712,-5.0712,-5.0712,-5.1818,-5.2731,-5.3164,-5.4376,-5.528,-5.5684,-5.5703,-5.5703,-5.5703,-5.5703,-5.5703,-5.5703,-5.5703,-5.5703,-5.5703,-5.5511,-5.4415,-5.2598,-5.2381,-5.1295,-4.9536,-4.9131,-4.8966,-4.8929,-4.847,-4.8306,-4.8306,-4.8306,-4.8306,-4.8306,-4.8306,-4.8306,-4.8306,-1.4695,-1.538,-1.5918,-1.5861,-1.7062,-1.8,-1.7879,-1.8986,-2.0119,-2.0963,-2.2401,-2.3759,-2.4829,-2.5866,-2.6654,0.0,0.0,0.0,0.0,-3.3442,-3.4125,-3.5627,-3.7054,-3.8549,-4.0162,-3.9615,-3.9565,-4.0096,-3.982,-3.9708,-3.9676,-3.8983,-3.9194,-4.0123,-3.8987,-3.8883,-3.9485,-3.8789,-3.8389,-3.8178,-3.7296,-3.6862,-3.6612,-3.5815,-3.5519,-3.5547,-3.5667,-3.5602,-3.5545,-3.5879,-3.5898,-3.5781,-3.5957,-3.5527,-3.4648,-3.3125,-3.2578,0.0,0.0,0.0,0.0,0.0,0.0,0.0,0.0,-3.5019,-3.6169,-3.851,-4.0315,-4.2112,-4.4162,-4.5537,-4.7018,-4.9067,-4.9529,-4.9894,-5.0596,-5.0712,-5.0712,-5.0712,-5.0712,-5.0712,-5.0712,-5.2222,-5.3203,-5.3203,-5.4741,-5.5703,-5.5703,-5.5703,-5.5703,-5.5703,-5.5703,-5.5703,-5.5703,-5.5703,-5.5703,-5.5703,-5.5703,-5.4873,-5.333,-5.3235,-5.2377,-5.0869,-4.9978,-4.9496,-4.9294,-4.858,-4.8306,-4.8306,-4.8306,-4.8306,-4.8306,-4.8306,-4.8306,-4.8306,0.0,-1.6218,-1.6682,-1.6453,-1.7142,-1.7915,-1.8421,-1.865,-1.8968,-1.9484,-2.0851,-2.1988,-2.2595,-2.4447,-2.6463,-2.856,0.0,0.0,-3.2839,-3.4453,-3.5488,-3.5685,-3.5882,-3.6982,-3.9123,-3.9249,-3.9569,-4.0096,-4.0059,-4.0052,-4.005,-3.995,-4.0095,-4.0458,-4.0285,-4.0265,-4.0354,-4.0258,-3.98,-3.9073,-3.8212,-3.7387,-3.6612,-3.5815,-3.5538,-3.5592,-3.5679,-3.5271,-3.4843,-3.57,-3.5488,-3.498,-3.5762,-3.5937,-3.5664,-3.4707,-3.3867,-3.3066,-3.2168,-3.1973,-3.2382,-3.3815,-3.4737,-3.6099,0.0,-3.981,-4.0319,-4.2143,-4.3855,-4.5114,-4.5402,-4.7375,-4.9067,-4.9356,-5.0048,-5.0596,-5.0693,-5.0712,-5.0712,-5.0712,-5.0712,-5.0712,-5.0712,-5.2222,-5.3203,-5.3203,-5.4741,-5.5703,-5.5703,-5.5703,-5.5703,-5.5703,-5.5703,-5.5703,-5.5703,-5.5703,-5.5703,-5.5703,-5.5703,-5.504,-5.3821,-5.3395,-5.2521,-5.1284,-5.0099,-4.915,-4.8453,-4.8343,-4.8306,-4.8306,-4.8306,-4.8306,-4.8306,-4.8306,-4.8306,-4.8306,0.0,-1.6713,-1.7566,-1.7461,-1.8091,-1.8731,-1.896,-1.8904,-1.9065,-1.9678,-2.0027,-2.0714,-2.1992,-2.3513,-2.5305,-2.7413,-2.9561,-3.1132,-3.1884,-3.4293,-3.5741,-3.5871,-3.5767,-3.6732,-3.8953,-3.9206,-3.9565,-4.0096,-4.0099,-4.0089,-4.01,-4.0104,-4.0239,-4.0496,-4.0496,-4.0496,-4.0496,-4.0496,-4.0035,-3.9219,-3.8342,-3.7476,-3.6624,-3.5848,-3.5575,-3.5604,-3.5675,-3.5221,0.0,0.0,-3.5078,-3.4101,-3.4961,-3.4902,-3.4414,-3.4043,-3.4043,-3.4199,-3.4375,-3.5156,-3.5935,-3.5985,-3.7336,-3.8993,-4.0295,-4.1332,-4.2354,-4.3547,-4.5547,-4.7048,-4.7048,-4.874,-5.0173,-5.0173,-5.0462,-5.0614,-5.0369,-5.0554,-5.0614,-5.0388,-5.0554,-5.0712,-5.0712,-5.2222,-5.3203,-5.3203,-5.4741,-5.5703,-5.5703,-5.5703,-5.5703,-5.5703,-5.5703,-5.5703,-5.5703,-5.5703,-5.5703,-5.5703,-5.5703,-5.5305,-5.4577,-5.4159,-5.3162,-5.169,-5.0718,-4.9829,-4.9022,-4.8508,-4.8306,-4.8306,-4.8306,-4.8306,-4.8306,-4.8306,-4.8306,-4.8306,0.0,-1.7307,-1.817,-1.839,-1.8904,-1.9297,-1.9297,-1.9182,-1.9251,-1.9723,-1.9838,-2.0512,-2.2282,-2.3203,-2.4431,-2.6207,-2.8135,-2.9923,-3.1438,-3.4151,-3.5795,-3.5996,-3.5795,-3.6534,-3.8399,-3.8543,-3.8885,-3.9523,-3.9523,-3.9646,-3.9877,-3.9877,-4.0096,-4.0496,-4.0496,-4.0496,-4.0496,-4.0265,-3.9831,-3.9196,-3.8099,-3.7292,-3.6665,-3.5897,-3.5495,-3.5329,-3.5383,-3.4891,0.0,-3.4783,-3.4101,-3.3184,-3.3809,-3.373,-3.3457,-3.3691,-3.4375,-3.5254,-3.6113,-3.7421,-3.8463,-3.8127,-3.9582,-4.1174,-4.1477,-4.2508,-4.3662,-4.4489,-4.6317,-4.7778,-4.7778,-4.9183,-5.0346,-5.0346,-5.045,-5.0432,-5.0147,-5.0347,-5.0399,-4.9974,-5.0283,-5.0544,-5.0544,-5.2143,-5.3203,-5.3203,-5.4741,-5.5703,-5.5703,-5.5703,-5.5703,-5.5703,-5.5703,-5.5703,-5.5703,-5.5703,-5.5703,-5.5703,-5.5703,-5.5554,-5.5256,-5.4731,-5.3584,-5.1958,-5.1371,-5.0545,-4.9555,-4.8912,-4.8526,-4.8306,-4.8306,-4.8306,-4.8306,-4.8306,-4.8306,-4.8306,0.0,0.0,-1.8353,-1.9132,-1.9279,-1.9297,-1.9297,-1.9289,-1.923,-1.9054,-2.0317,-2.1848,-2.3465,-2.3674,-2.4249,-2.5615,-2.7098,-2.9164,-3.1997,-3.4395,-3.5782,-3.5996,-3.5745,-3.6064,-3.705,-3.6884,-3.7206,-3.8055,-3.8055,-3.8493,-3.9323,-3.9323,-3.9742,-4.0496,-4.0496,-4.0496,-4.0458,-3.9677,-3.9311,-3.915,-3.743,-3.68,-3.6801,-3.5935,-3.5201,-3.4626,-3.4628,0.0,-3.323,-3.2557,-3.2285,-3.2246,-3.2266,-3.2793,-3.3574,-3.4414,-3.5273,-3.6152,-3.7012,-3.782,-3.8763,-4.0299,-4.129,-4.2279,-4.3819,-4.422,-4.4509,-4.5383,-4.6297,-4.6942,-4.6942,-4.8317,-4.9433,-4.9433,-4.9822,-5.0104,-5.0092,-5.0104,-4.9962,-4.958,-4.9866,-5.0123,0.0,-5.1987,-5.3203,-5.3203,-5.4741,-5.5703,-5.5703,-5.5703,-5.5703,-5.5703,-5.5703,-5.5703,-5.5703,-5.5703,-5.5703,-5.5703,-5.5703,-5.5684,-5.5651,-5.4848,-5.3584,-5.1995,-5.1958,-5.1061,-4.961,-4.9574,-4.9058,-4.8306,-4.8306,-4.8306,-4.8306,-4.8306,-4.8306,-4.8306,0.0,0.0,0.0,-1.9242,-1.9297,-1.9297,-1.9297,-1.919,-1.9317,-1.992,-2.1425,0.0,0.0,0.0,0.0,0.0,-2.5811,-2.7046,-2.9894,-3.3599,-3.5792,-3.5985,-3.5824,-3.6139,-3.6977,-3.6882,-3.7219,-3.8004,-3.7995,-3.8152,-3.8448,-3.8438,-3.8584,-3.8849,-3.8849,-3.8842,-3.8815,-3.8553,-3.8765,-3.9157,-3.7501,-3.7187,-3.7558,-3.628,-3.5303,-3.4537,0.0,0.0,-3.1754,-3.209,-3.1426,-3.0684,-3.1836,-3.2383,-3.2871,-3.4297,-3.5723,-3.7051,-3.793,-3.9128,-4.0365,-4.1416,-4.2654,-4.3736,-4.4212,-4.4297,-4.4374,-4.4682,-4.497,-4.5163,-4.5163,-4.7028,-4.8452,-4.8182,-4.9236,-4.9905,-4.9367,-4.9532,-4.9547,-4.9155,-4.946,0.0,0.0,0.0,0.0,-5.3144,-5.426,-5.5145,-5.5665,-5.5703,-5.5703,-5.5703,-5.5703,-5.5703,-5.5703,-5.5703,-5.5703,-5.5703,-5.5703,-5.5566,-5.5282,-5.475,-5.402,-5.3103,-5.179,-5.0894,-5.0306,-4.9205,-4.8563,-4.8306,-4.8306,-4.8306,-4.8306,-4.8306,-4.8306,-4.8306,0.0,0.0,0.0,0.0,0.0,0.0,0.0,0.0,0.0,0.0,0.0,0.0,0.0,0.0,0.0,0.0,0.0,-2.5463,-2.7535,-3.158,-3.3951,-3.4098,-3.4624,-3.5134,-3.5626,-3.5554,-3.5885,-3.6647,-3.6636,-3.6946,-3.7537,-3.7541,-3.77,-3.8003,-3.8003,-3.7995,-3.7976,-3.7731,-3.7932,-3.8331,-3.6996,-3.6802,-3.7203,-3.6263,-3.5365,0.0,0.0,0.0,-3.0937,-3.1191,-3.0937,-3.0664,-3.1484,-3.2363,-3.3379,-3.4766,-3.6365,-3.7943,-3.9134,-4.0593,-4.1972,-4.2762,-4.3936,-4.4785,-4.4388,-4.4297,-4.4124,-4.3528,-4.3412,-4.3368,-4.3251,-4.4815,-4.6299,-4.6818,-4.7972,-4.8839,-4.8887,-4.9123,-4.9236,-4.9153,-4.9494,-4.9917,0.0,-5.1003,0.0,-5.3103,-5.426,-5.5145,-5.5665,-5.5703,-5.5703,-5.5703,-5.5703,-5.5703,-5.5703,-5.5703,-5.5703,-5.5703,-5.5703,-5.5489,-5.5075,-5.4671,-5.4105,-5.3293,-5.1851,-5.0894,-5.0288,-4.9205,-4.8581,-4.8306,-4.8306,-4.8306,-4.8306,-4.8306,-4.8306,-4.8306,0.0,0.0,0.0,0.0,0.0,0.0,0.0,0.0,0.0,0.0,0.0,0.0,0.0,0.0,0.0,0.0,0.0,0.0,-2.5244,0.0,0.0,-3.0699,-3.2339,-3.3226,-3.32,-3.3084,-3.3396,-3.4209,-3.4209,-3.5044,-3.665,-3.6635,-3.7077,-3.7868,-3.788,-3.7873,-3.7829,-3.7131,-3.6883,-3.6894,-3.6056,-3.5833,-3.6019,-3.5944,0.0,0.0,0.0,-3.1777,-3.0898,-2.9961,-3.0859,-3.2187,-3.1406,-3.2851,-3.5019,-3.5937,-3.7312,-3.8914,-4.0654,-4.2177,-4.3473,-4.4344,-4.5086,-4.5364,-4.4489,-4.422,-4.3701,-4.2066,-4.1673,-4.15,-4.117,-4.1913,-4.3267,-4.5311,-4.6154,-4.7103,-4.8656,-4.89,-4.9098,-4.9559,-4.9917,-5.0446,-5.1227,-5.1338,-5.1892,-5.3116,0.0,-5.5635,-5.5703,-5.5703,-5.5703,-5.5703,-5.5703,-5.5703,-5.5703,-5.5703,-5.5703,-5.5703,-5.5703,-5.5489,-5.5075,-5.4671,-5.3804,-5.2585,-5.2128,-5.1061,-4.961,-4.9555,-4.904,-4.8306,-4.8306,-4.8306,-4.8306,-4.8306,-4.8306,-4.8306,0.0,0.0,0.0,0.0,0.0,0.0,0.0,0.0,0.0,0.0,0.0,0.0,0.0,0.0,0.0,0.0,0.0,0.0,-2.5288,0.0,0.0,0.0,-3.1832,-3.2719,-3.3183,-3.317,-3.349,-3.4209,-3.4209,-3.4749,-3.5815,-3.5808,-3.5923,-3.6142,-3.6135,-3.6135,-3.6129,-3.5991,-3.6651,-3.7674,0.0,-3.6627,-3.7632,0.0,0.0,0.0,-3.4219,-3.3496,-3.2539,-3.1055,-3.2129,-3.4141,-3.4551,-3.5586,-3.6934,-3.8457,-3.9598,-4.0713,-4.2453,-4.3532,-4.4383,-4.5247,-4.5538,-4.5364,-4.4489,-4.3335,-4.2124,-4.1046,-3.9835,-3.8869,-3.8601,-4.074,-4.2739,-4.3451,-4.5718,-4.7642,-4.8348,-4.9011,-4.947,-4.9593,-5.0204,-5.0804,-5.1266,-5.1895,-5.2527,0.0,-5.388,-5.4697,-5.5654,-5.5703,-5.5703,-5.5703,-5.5703,-5.5703,-5.5703,-5.5703,-5.5703,-5.5703,-5.5703,-5.5489,-5.5075,-5.4671,-5.3804,-5.2547,-5.1538,-5.0527,-4.9555,-4.8893,-4.8508,-4.8306,-4.8306,-4.8306,-4.8306,-4.8306,-4.8306,-4.8306,0.0,0.0,0.0,0.0,0.0,0.0,0.0,0.0,0.0,0.0,0.0,0.0,0.0,0.0,0.0,0.0,0.0,0.0,0.0,-2.7621,0.0,-2.9535,-3.0887,-3.1771,-3.211,-3.2447,-3.2796,-3.3147,0.0,0.0,-3.4365,-3.4365,-3.4365,-3.4353,-3.4398,-3.4403,-3.4401,-3.4538,0.0,0.0,0.0,0.0,0.0,0.0,0.0,-3.5215,-3.4844,-3.4374,-3.384,-3.3272,-3.4313,-3.6055,-3.7324,-3.8301,-3.9277,-4.056,-4.1484,-4.2335,-4.3642,-4.4475,-4.5101,-4.5599,-4.5379,-4.4701,-4.3489,-4.2181,-4.0777,-3.9161,-3.8084,-3.7352,-3.7075,-3.9011,-4.1118,-4.2541,-4.4814,-4.6832,-4.8124,-4.904,-4.9739,-5.0068,-5.0839,-5.1527,-5.208,-5.2582,-5.3033,-5.3442,-5.386,-5.4424,-5.5141,-5.5173,-5.525,-5.5423,-5.5435,-5.5512,-5.5703,-5.5703,-5.5703,-5.5703,-5.5703,-5.5489,-5.5088,-5.4468,-5.3418,-5.2025,0.0,-4.9932,-4.8985,-4.8508,-4.8306,-4.8306,-4.8306,-4.8306,-4.8306,-4.8306,-4.8306,-4.8306,0.0,0.0,0.0,0.0,0.0,0.0,0.0,0.0,0.0,0.0,0.0,0.0,0.0,0.0,0.0,0.0,0.0,0.0,0.0,0.0,0.0,-2.8289,-2.9849,-3.0701,-3.0703,-3.1376,-3.1769,-3.1799,-3.2444,0.0,0.0,0.0,0.0,0.0,0.0,0.0,0.0,0.0,0.0,0.0,0.0,0.0,0.0,0.0,0.0,-3.5898,-3.5137,-3.4837,-3.4905,-3.5779,-3.6761,-3.7909,-3.9509,-4.0701,-4.1656,-4.2401,-4.3065,-4.3714,-4.446,-4.5125,-4.5594,-4.5594,-4.4932,-4.3855,-4.2181,-4.1046,-3.965,-3.7199,-3.6615,-3.6461,-3.619,-3.7236,-3.9114,-4.2058,-4.3662,-4.5424,-4.7957,-4.9132,-5.0033,-5.0729,-5.1591,-5.2435,-5.3133,-5.3185,-5.3339,-5.3683,-5.4102,-5.4373,-5.4503,-5.4503,-5.4671,-5.5075,-5.516,-5.5343,-5.5703,-5.5703,-5.5703,-5.5703,-5.5703,-5.5489,-5.5069,-5.4312,-5.3057,-5.144,-5.0609,0.0,-4.8383,-4.8325,-4.8306,-4.8306,-4.8306,-4.8306,-4.8306,-4.8306,-4.8306,-4.8306,0.0,0.0,0.0,0.0,0.0,0.0,0.0,0.0,0.0,0.0,-2.5493,-2.4704,0.0,0.0,0.0,0.0,0.0,0.0,0.0,0.0,0.0,0.0,-2.9548,-3.0032,-3.0682,-3.0837,-3.1235,-3.188,-3.2015,-3.2381,0.0,0.0,0.0,0.0,0.0,0.0,0.0,0.0,0.0,0.0,0.0,0.0,0.0,0.0,0.0,0.0,-3.582,-3.5735,-3.5804,-3.6682,-3.7998,-3.9442,-4.0354,-4.1802,-4.3335,-4.4078,-4.4292,-4.4498,-4.5338,-4.5584,-4.5594,-4.5594,-4.4932,-4.3855,-4.2181,-4.0604,-3.8969,-3.7084,-3.6173,-3.5636,-3.5367,-3.6394,-3.8263,-4.1235,-4.283,-4.4782,-4.7884,-4.9627,-5.0637,-5.0784,-5.2105,-5.3059,-5.3206,-5.3185,-5.3227,0.0,-5.338,-5.3739,-5.4471,-5.4503,-5.4671,-5.5075,-5.5423,-5.564,-5.5703,-5.5703,-5.5703,-5.5703,-5.5703,-5.5489,-5.5088,-5.4936,-5.3784,-5.1886,-5.1378,0.0,-4.8761,-4.8439,-4.8306,-4.8306,-4.8306,-4.8306,-4.8306,-4.8306,-4.8306,-4.8306,0.0,0.0,0.0,0.0,0.0,0.0,0.0,-2.8006,-2.9407,-3.0513,-2.9311,-2.8227,-2.7882,-2.7345,-2.7086,0.0,0.0,0.0,0.0,0.0,0.0,0.0,0.0,-3.0338,-3.0781,-3.1172,-3.1344,-3.1272,0.0,-3.1843,-3.1751,-3.1825,-3.1819,-3.1759,-3.1849,-3.1899,-3.1904,0.0,0.0,-3.3977,-3.4003,-3.4824,0.0,0.0,0.0,0.0,-3.5996,-3.595,-3.6015,-3.6823,-3.7929,-3.9196,-4.045,-4.2064,-4.364,-4.438,-4.456,-4.4666,-4.5483,-4.566,-4.5594,-4.5594,-4.4278,-4.2662,-4.1412,-3.9488,-3.7584,-3.6327,-3.5769,-3.5453,-3.532,-3.6283,-3.7833,-4.01,-4.1477,-4.3369,-4.6599,-4.8471,-4.9829,-5.071,-5.2234,-5.3185,-5.3185,-5.3185,-5.3185,-5.3185,-5.3185,-5.338,-5.3814,-5.4014,-5.4338,-5.476,-5.5173,-5.5489,-5.5703,-5.5703,-5.5703,-5.5703,-5.5703,-5.5489,-5.5101,-5.4866,-5.3759,-5.1975,-5.1356,0.0,-4.8863,-4.8477,-4.8306,-4.8306,-4.8306,-4.8306,-4.8306,-4.8306,-4.8306,-4.8306,0.0,0.0,0.0,0.0,0.0,0.0,0.0,-2.8559,-2.9665,-3.153,-3.1906,-3.1377,-2.9701,-2.8611,-2.8073,0.0,0.0,0.0,0.0,0.0,0.0,0.0,0.0,-3.0739,-3.0858,0.0,0.0,-3.1016,-3.1836,0.0,0.0,0.0,0.0,0.0,-3.0708,-3.0745,-3.0746,-3.0858,-3.1875,0.0,0.0,-3.4434,0.0,0.0,0.0,0.0,0.0,-3.5918,-3.5916,-3.649,-3.7257,-3.8205,-3.957,-4.1429,-4.3209,-4.3769,-4.4182,-4.4573,-4.5156,-4.546,-4.5594,-4.5594,-4.3682,-4.1566,-4.0708,-3.8527,-3.6462,-3.5673,-3.55,-3.55,-3.55,-3.6146,-3.7252,-3.8971,-4.0188,-4.2038,-4.5204,-4.7186,-4.893,-5.06,-5.2068,-5.3023,-5.3167,-5.3185,-5.3185,-5.3185,-5.3185,-5.3185,-5.3185,-5.3585,-5.3959,-5.4338,-5.4833,-5.5237,-5.5577,-5.5651,-5.5703,-5.5703,-5.5703,-5.5524,-5.5218,-5.471,-5.369,-5.2205,-5.1301,0.0,0.0,-4.8586,-4.8383,-4.8306,-4.8306,-4.8306,-4.8306,-4.8306,-4.8306,-4.8306,0.0,0.0,0.0,0.0,0.0,0.0,0.0,-2.7118,-2.9326,-3.0264,-3.1023,-3.1391,-3.1207,-3.0442,-2.9518,0.0,0.0,0.0,0.0,0.0,0.0,0.0,0.0,0.0,0.0,0.0,0.0,-3.2051,-3.2871,0.0,0.0,0.0,0.0,0.0,0.0,-3.0879,-3.0879,-3.0898,0.0,0.0,0.0,0.0,0.0,0.0,0.0,0.0,0.0,-3.5794,-3.5645,-3.5708,-3.6236,-3.6889,-3.7043,-3.9406,-4.2123,-4.2063,-4.3137,-4.4322,-4.4402,-4.4998,-4.5594,-4.5594,-4.3682,-4.1566,-4.0708,-3.8527,-3.6462,-3.5673,-3.55,-3.55,-3.55,-3.538,-3.5979,-3.8075,-3.9504,-4.1418,-4.4395,-4.6838,-4.893,-5.06,-5.1573,-5.2399,-5.3133,-5.3185,-5.3185,-5.3185,-5.3185,-5.3185,-5.3185,-5.3585,-5.3833,-5.3851,-5.4667,-5.5121,-5.516,-5.5512,-5.5703,-5.5703,-5.5703,-5.5673,-5.5613,-5.4846,-5.3979,-5.3012,-5.1792,0.0,0.0,-4.9013,-4.8621,-4.8306,-4.8306,-4.8306,-4.8306,-4.8306,-4.8306,-4.8306,0.0,0.0,0.0,0.0,0.0,0.0,-2.5359,-2.6738,-2.8548,-3.1292,-3.1494,-3.1568,-3.2063,-3.1403,-3.0392,-2.9101,0.0,0.0,0.0,0.0,0.0,0.0,0.0,0.0,0.0,0.0,-3.2363,-3.293,-3.3242,0.0,0.0,0.0,0.0,0.0,0.0,-3.1387,-3.0937,-3.1465,0.0,0.0,0.0,0.0,0.0,0.0,0.0,0.0,0.0,0.0,-3.5655,-3.5616,-3.58,-3.6021,-3.5996,-3.7275,-3.9096,-4.0577,-4.1854,-4.3028,-4.4028,-4.494,-4.5479,-4.496,-4.2893,-4.0796,-3.9977,-3.7815,-3.5885,-3.5577,-3.55,-3.55,-3.55,-3.5281,-3.5484,-3.6656,-3.7168,-3.8452,-4.1399,-4.3479,-4.5663,-4.825,-5.0178,-5.1591,-5.2399,-5.2931,-5.3185,-5.3185,-5.3185,-5.3185,-5.3185,-5.3359,-5.3682,-5.4204,-5.4563,-5.4979,-5.5466,-5.561,-5.5703,-5.5684,-5.5203,-5.4972,-5.4953,-5.4107,-5.3241,-5.2374,-5.1629,0.0,0.0,-4.9059,-4.8657,-4.8307,-4.8568,-4.8513,-4.8344,-4.8568,-4.8513,-4.8306,0.0,0.0,0.0,0.0,0.0,-2.3271,-2.5538,-2.6502,-2.8062,-3.1133,-3.1458,-3.1623,-3.2192,-3.1733,-3.1058,-3.0193,-2.987,0.0,0.0,0.0,0.0,0.0,0.0,0.0,0.0,0.0,-3.2812,-3.3747,-3.4004,-3.4023,0.0,0.0,-3.334,-3.2539,0.0,0.0,0.0,0.0,0.0,0.0,0.0,0.0,0.0,0.0,0.0,0.0,0.0,0.0,0.0,0.0,0.0,-3.5562,-3.5502,-3.5885,-3.6731,-3.8777,-4.0335,-4.1662,-4.2854,-4.3989,-4.4701,-4.4105,-4.2027,-3.9996,-3.9438,-3.7334,-3.55,-3.55,-3.55,-3.55,-3.55,-3.5354,-3.5312,-3.5608,-3.6043,-3.7237,-3.98,-4.1588,-4.3806,-4.691,-4.8915,-5.049,-5.1536,-5.2601,-5.3185,-5.3185,-5.3185,-5.3185,-5.3185,-5.3185,-5.3482,-5.4103,-5.4373,-5.476,-5.5331,-5.5577,-5.5568,-5.5338,-5.4761,-5.4357,-5.4087,-5.3222,-5.2481,-5.1875,-5.1338,0.0,0.0,-4.9386,-4.8947,-4.8513,-4.8913,-4.883,-4.8513,-4.8796,-4.8709,-4.8477,0.0,0.0,0.0,0.0,0.0,0.0,-2.4227,-2.6245,-2.8081,-2.8932,-3.0411,-3.1397,-3.1415,-3.1415,-3.1494,-3.1752,-3.049,0.0,0.0,0.0,0.0,0.0,0.0,0.0,0.0,0.0,-3.3648,-3.4592,-3.5446,-3.5469,-3.4687,-3.4687,-3.4219,-3.3359,0.0,0.0,0.0,0.0,0.0,0.0,0.0,0.0,0.0,0.0,0.0,0.0,0.0,0.0,0.0,0.0,0.0,0.0,0.0,-3.5519,-3.5673,-3.65,-3.8527,-4.0516,-4.0535,-4.1797,-4.3124,-4.3104,-4.12,-3.9304,-3.9304,-3.7334,-3.55,-3.55,-3.55,-3.55,-3.55,-3.55,-3.5417,-3.5149,-3.6895,-3.8858,-4.0539,-4.2355,-4.4533,-4.7363,-4.807,-4.8985,-5.0655,-5.227,-5.3185,-5.3185,-5.3185,0.0,-5.3185,-5.3185,-5.3206,-5.3206,-5.405,-5.4503,-5.4519,-5.5306,-5.5299,-5.4511,-5.4491,-5.4049,-5.3183,-5.2308,-5.1904,0.0,0.0,0.0,0.0,-5.008,-4.9617,-4.8947,-4.9341,-4.9249,-4.8897,-4.8897,-4.8897,-4.8847,0.0,0.0,0.0,0.0,0.0,0.0,0.0,-2.5209,-2.6227,-2.8675,-2.8962,-2.9579,-3.1231,-3.1397,-3.1434,-3.1506,-3.0785,0.0,0.0,0.0,0.0,0.0,0.0,0.0,0.0,0.0,-3.4408,-3.5352,-3.5712,-3.5779,-3.5511,-3.5565,-3.5117,-3.4277,-3.4023,-3.3711,0.0,0.0,0.0,0.0,0.0,0.0,0.0,0.0,0.0,0.0,0.0,0.0,0.0,0.0,0.0,0.0,0.0,0.0,0.0,-3.5808,-3.7257,-3.8911,-3.9515,-4.0477,-4.1189,-4.0642,-3.945,-3.8257,-3.7661,-3.6462,-3.55,-3.55,-3.55,-3.55,-3.55,-3.55,-3.5789,-3.6663,-3.7386,-3.8522,-4.0575,-4.2104,-4.3766,-4.5754,-4.8366,-5.0435,-5.1518,0.0,-5.3185,-5.3185,-5.3185,-5.2968,-5.2417,-5.2594,-5.2993,-5.3605,-5.4189,-5.4625,-5.4909,-5.4886,-5.4741,-5.4491,-5.3299,-5.2577,-5.2269,-5.1452,-5.1087,0.0,0.0,0.0,0.0,-5.0092,-4.9787,-4.9356,-4.976,-4.9659,-4.9341,-4.9617,-4.9367,-4.888,0.0,0.0,0.0,0.0,0.0,0.0,0.0,-2.4787,-2.5474,-2.7794,-2.7915,-2.8606,-3.0723,-3.1231,-3.1556,-3.1973,-3.1704,0.0,0.0,0.0,0.0,0.0,0.0,0.0,0.0,-3.3838,-3.4731,-3.5707,-3.5775,-3.5862,-3.5944,-3.5975,-3.5703,-3.5176,-3.4844,-3.457,0.0,0.0,0.0,0.0,0.0,0.0,0.0,0.0,0.0,0.0,0.0,0.0,0.0,0.0,0.0,0.0,0.0,0.0,0.0,0.0,-3.6231,-3.7238,-3.8084,-3.8911,-3.9438,-3.8931,-3.8142,-3.7373,-3.6827,-3.6077,-3.55,-3.55,-3.55,-3.55,-3.55,-3.55,-3.5792,-3.6676,-3.7234,-3.8308,-4.0451,-4.2045,-4.3835,-4.6106,-4.8576,-5.0453,0.0,-5.2099,-5.254,-5.2697,-5.2438,0.0,-5.1974,-5.201,-5.2378,-5.3058,-5.3541,-5.3908,-5.4141,-5.405,-5.3837,-5.351,-5.2423,-5.1731,-5.1433,-5.0933,-5.0712,0.0,0.0,0.0,0.0,-5.0325,-5.008,-4.9773,-5.0171,-5.008,-4.976,-5.0019,-4.9787,-4.9322,0.0,0.0,0.0,0.0,0.0,0.0,0.0,-2.4824,-2.5613,-2.6502,-2.7255,-2.8319,-2.9953,-3.087,-3.1795,-3.2801,0.0,0.0,0.0,0.0,0.0,0.0,0.0,0.0,-3.2987,-3.3859,-3.4759,-3.5686,-3.5752,-3.5884,-3.6073,-3.6152,-3.6152,-3.6055,-3.5254,-3.5293,0.0,0.0,0.0,0.0,0.0,0.0,0.0,0.0,0.0,0.0,0.0,0.0,0.0,0.0,0.0,0.0,0.0,0.0,0.0,0.0,0.0,0.0,0.0,-3.7219,-3.7815,-3.7815,-3.7219,-3.6615,-3.6615,-3.6038,0.0,-3.55,-3.55,-3.5519,-3.5577,-3.5538,-3.5558,-3.5731,-3.6851,-3.8407,-4.0388,-4.2375,-4.477,-4.7957,-4.8759,-4.9468,-5.0549,-5.1073,-5.1509,-5.1861,-5.1268,0.0,-5.177,-5.1499,-5.1464,-5.1752,-5.2216,-5.2514,-5.2603,-5.2938,-5.2692,-5.1904,-5.1846,-5.1414,-5.0712,-5.0712,-5.0712,0.0,0.0,0.0,0.0,-5.0712,-5.0483,-5.0171,-5.0554,-5.0472,-5.0147,-5.0147,-5.0116,-5.0043,0.0,0.0,0.0,0.0,0.0,0.0,0.0,0.0,0.0,0.0,-2.6759,-2.7493,-2.9115,-3.0558,-3.1495,0.0,0.0,0.0,0.0,0.0,0.0,0.0,0.0,0.0,-3.3898,-3.4744,-3.5316,-3.5546,-3.6314,-3.6716,-3.6782,-3.759,-3.7637,-3.6992,-3.6777,-3.6426,0.0,0.0,0.0,0.0,0.0,0.0,0.0,0.0,0.0,0.0,-3.4276,-3.4507,0.0,0.0,0.0,0.0,0.0,0.0,0.0,0.0,-3.55,-3.5538,-3.5731,0.0,-3.6096,-3.6096,-3.5923,-3.5788,0.0,-3.5635,-3.55,-3.55,-3.55,-3.5692,-3.6308,-3.5904,-3.6135,-3.8084,-3.9181,-4.0441,-4.2231,-4.482,-4.7068,-4.8565,-4.9665,-5.0278,-5.0241,-5.1171,-5.1801,-5.1895,0.0,-5.1442,-5.1006,-5.1173,-5.106,-5.0526,-5.0929,-5.1614,-5.2584,-5.2332,-5.2096,-5.1885,-5.1279,-5.0875,-5.0712,-5.0712,-5.0712,0.0,0.0,0.0,-5.0712,-5.0712,-5.0634,-5.0565,-5.0663,-5.0634,-5.0554,-5.0554,-5.0358,-5.008,0.0,0.0,0.0,0.0,0.0,0.0,0.0,0.0,0.0,0.0,0.0,0.0,0.0,0.0,0.0,0.0,0.0,0.0,0.0,0.0,0.0,0.0,0.0,-3.4205,-3.4205,-3.5045,-3.5519,-3.5558,-3.6122,-3.6637,-3.7091,-3.7316,-3.7363,-3.7285,-3.6875,-3.6425,0.0,0.0,0.0,0.0,0.0,0.0,0.0,0.0,0.0,0.0,-3.343,-3.3603,0.0,-3.4603,-3.4911,-3.4968,0.0,0.0,0.0,0.0,-3.4622,-3.4308,-3.4308,-3.5154,-3.6058,-3.6058,-3.6058,-3.6058,-3.6058,-3.5769,-3.55,-3.55,-3.55,-3.5635,-3.6077,-3.6096,-3.6635,-3.8411,-3.9708,-4.1516,-4.4432,-4.6727,-4.8509,-4.9589,-5.0139,-5.041,0.0,-5.0794,-5.1142,-5.1338,0.0,-5.0766,-5.0704,-5.0735,-5.0629,-5.0377,-5.0594,-5.1036,-5.1725,-5.1486,-5.1356,-5.1337,-5.0914,-5.0712,-5.0712,-5.0712,-5.0712,0.0,0.0,0.0,-5.0712,-5.0712,-5.0712,-5.0712,-5.0712,-5.0712,-5.0712,-5.0712,-5.0554,-5.0388,0.0,0.0,0.0,0.0,0.0,0.0,0.0,0.0,0.0,0.0,0.0,0.0,0.0,0.0,0.0,0.0,0.0,0.0,0.0,0.0,0.0,0.0,0.0,-3.4398,-3.4398,-3.5115,-3.5538,-3.5577,-3.5926,-3.6515,-3.7359,-3.6828,-3.6836,-3.7266,-3.6387,-3.5973,0.0,0.0,0.0,0.0,0.0,0.0,0.0,0.0,0.0,0.0,0.0,0.0,0.0,-3.3705,-3.409,-3.4321,-3.4904,0.0,0.0,0.0,0.0,0.0,-3.3064,-3.4853,-3.6635,-3.6385,-3.65,-3.6673,-3.6538,-3.5981,-3.55,-3.55,-3.55,-3.5577,-3.5827,-3.6442,-3.7219,-3.8219,-3.99,-4.2527,-4.6701,-4.8205,-4.9327,-5.0469,-5.0358,0.0,-5.0575,-5.0358,-5.0336,0.0,0.0,-4.9974,-5.0663,-5.0388,-5.0347,-5.0683,-5.0712,-5.0712,-5.0712,-5.0712,-5.0712,-5.0712,-5.0712,-5.0712,-5.0712,-5.0712,-5.0712,-5.0712,0.0,0.0,-5.0712,-5.0712,-5.0712,-5.0712,-5.0712,-5.0712,-5.0712,-5.0712,-5.0712,-5.0712,0.0,0.0,0.0,0.0,0.0,0.0,0.0,0.0,0.0,0.0,0.0,0.0,0.0,0.0,0.0,0.0,0.0,0.0,0.0,0.0,0.0,-3.4956,-3.5184,-3.5308,-3.5308,-3.5423,-3.5519,-3.5519,-3.7063,-3.7909,-3.8156,-3.8818,-3.8484,-3.7266,-3.6387,-3.5996,-3.5975,0.0,0.0,0.0,0.0,0.0,0.0,0.0,0.0,0.0,0.0,0.0,0.0,-3.2814,-3.3583,-3.409,-3.3487,0.0,0.0,0.0,0.0,0.0,-3.3801,-3.5315,-3.6365,-3.493,-3.5641,-3.6519,-3.5846,-3.5596,-3.55,-3.55,-3.55,-3.5923,-3.7353,-3.7719,-3.8315,-3.9861,-4.2151,-4.4951,-4.8509,-4.9183,-4.9534,-5.0122,0.0,-5.0493,-5.0225,-5.0432,-5.0624,0.0,0.0,-5.0565,-5.0683,-5.0634,-5.0643,-5.0712,-5.0712,-5.0712,-5.0712,-5.0712,-5.0712,-5.0712,-5.0712,-5.0712,-5.0712,-5.0712,-5.0712,0.0,0.0,-5.0712,-5.0712,-5.0712,-5.0712,-5.0712,-5.0712,-5.0712,-5.0712,-5.0712,-5.0712,-5.0712,0.0,0.0,0.0,0.0,0.0,0.0,0.0,0.0,0.0,0.0,0.0,0.0,0.0,0.0,0.0,0.0,0.0,0.0,0.0,0.0,0.0,-3.5088,-3.5361,-3.55,-3.55,-3.5937,-3.6142,-3.6159,-3.7481,-3.8432,-3.9006,-3.907,-3.8219,-3.6582,-3.6172,-3.5932,-3.5839,-3.5882,0.0,0.0,0.0,0.0,0.0,0.0,0.0,0.0,0.0,0.0,0.0,0.0,-3.2814,-3.343,-3.3026,0.0,0.0,0.0,0.0,0.0,-3.2045,-3.3718,-3.5161,-3.4398,-3.6161,-3.7873,-3.7046,-3.6853,-3.6712,-3.625,-3.6519,-3.6949,-3.7238,-3.8411,-4.0208,-4.2824,-4.5393,-4.7605,-4.9183,-4.9798,-5.0182,0.0,0.0,-5.0624,-5.0432,-5.0594,0.0,0.0,0.0,0.0,-5.0712,-5.0712,-5.0712,-5.0712,-5.0712,-5.0712,-5.0712,-5.0712,-5.0712,-5.0712,-5.0712,-5.0712,-5.0712,-5.0712,-5.0712,-5.0712,0.0,-5.0712,-5.0712,-5.0712,-5.0712,-5.0712,-5.0712,-5.0712,-5.0712,-5.0712,-5.0712,-5.0712,0.0,0.0,0.0,0.0,0.0,0.0,0.0,0.0,0.0,0.0,0.0,0.0,0.0,0.0,0.0,0.0,0.0,0.0,0.0,0.0,-3.4813,-3.5088,-3.5361,-3.55,-3.55,-3.629,-3.6706,-3.6695,-3.7839,-3.8691,-3.9287,-3.859,-3.746,-3.5996,-3.5975,-3.5896,-3.5755,-3.5814,-3.5706,0.0,0.0,0.0,0.0,0.0,0.0,0.0,0.0,0.0,0.0,0.0,0.0,0.0,0.0,0.0,0.0,-3.216,-3.1365,-3.075,-3.0923,-3.2564,-3.4205,-3.4205,-3.6456,-3.8623,-3.8354,-3.8142,-3.7911,-3.7661,-3.7969,-3.8161,-3.768,-3.9527,-4.217,-4.5374,-4.7702,-4.924,-4.9644,-5.0289,-5.0712,-5.0712,-5.0712,-5.0712,-5.0712,0.0,0.0,0.0,0.0,0.0,-5.0712,-5.0712,-5.0712,-5.0712,-5.0712,-5.0712,-5.0712,-5.0712,-5.0712,-5.0712,-5.0712,-5.0712,-5.0712,-5.0712,-5.0712,-5.0712,-5.0712,-5.0712,-5.0712,-5.0712,-5.0712,-5.0712,-5.0712,-5.0712,-5.0712,-5.0712,-5.0712,-5.0712,0.0,0.0,0.0,0.0,0.0,0.0,0.0,0.0,0.0,0.0,0.0,0.0,0.0,0.0,0.0,0.0,0.0,0.0,0.0,0.0,-3.4813,-3.5088,-3.5361,-3.55,-3.55,-3.629,-3.6699,-3.6699,-3.8393,-3.8936,-3.837,-3.7635,-3.6843,-3.5996,-3.5922,-3.5903,-3.5871,-3.571,-3.5601,-3.5585,0.0,0.0,0.0,0.0,0.0,0.0,0.0,0.0,0.0,0.0,0.0,0.0,0.0,0.0,-3.2891,-3.2833,-3.2237,-3.1775,-3.2526,-3.343,-3.4205,-3.4205,-3.5545,-3.7296,-3.8854,-3.8584,-3.8411,-3.9919,-3.9688,-3.9419,-4.0092,-4.17,-4.3778,-4.6374,-4.7586,-4.8759,-5.0385,0.0,-5.0712,-5.0712,-5.0712,-5.0712,-5.0712,0.0,0.0,0.0,0.0,0.0,-5.0712,-5.0712,-5.0712,-5.0712,-5.0712,-5.0712,-5.0712,-5.0712,-5.0712,-5.0712,-5.0712,-5.0712,-5.0712,-5.0712,-5.0712,-5.0712,-5.0712,-5.0712,-5.0712,-5.0712,-5.0712,-5.0712,-5.0712,-5.0712,-5.0712,-5.0712,-5.0712,-5.0712,0.0,0.0,0.0,0.0,0.0,0.0,0.0,0.0,0.0,0.0,0.0,0.0,0.0,0.0,0.0,0.0,0.0,0.0,0.0,-3.3646,-3.4329,-3.53,-3.5446,-3.55,-3.55,-3.629,-3.6706,-3.6695,-3.7996,-3.8236,-3.7498,-3.7298,-3.675,-3.5942,-3.591,-3.5824,-3.5718,-3.5631,-3.5577,-3.5534,-3.5508,0.0,0.0,0.0,0.0,0.0,0.0,0.0,0.0,0.0,-3.125,-3.166,-3.1423,-3.1718,-3.2045,-3.15,-3.1135,-3.0962,-3.125,-3.2737,-3.4205,-3.4205,-3.5872,-3.7815,-3.9034,-3.9438,-3.9892,-4.1066,-4.1508,-4.1758,-4.2066,-4.3066,-4.4528,-4.6567,-4.8029,-4.9336,-5.0539,-5.0712,-5.0712,-5.0712,-5.0712,-5.0712,0.0,0.0,0.0,0.0,0.0,0.0,-5.0336,-5.0325,-5.0432,-5.0683,-5.0462,-5.0462,-5.0712,-5.0712,-5.0712,-5.0712,-5.0712,-5.0712,-5.0712,-5.0712,-5.0712,-5.0712,-5.0712,-5.0712,-5.0712,-5.0712,-5.0712,-5.0712,-5.0712,-5.0712,-5.0712,-5.0712,-5.0712,-5.0712,0.0,0.0,0.0,0.0,0.0,0.0,0.0,0.0,0.0,0.0,0.0,0.0,0.0,0.0,0.0,0.0,0.0,0.0,-3.2562,-3.2874,-3.3641,-3.5025,-3.5084,-3.5212,-3.5481,-3.6033,-3.6456,-3.6704,-3.7385,-3.7475,-3.6968,-3.6774,-3.6387,-3.5838,-3.5816,-3.5721,-3.5605,-3.5577,-3.5534,-3.55,-3.55,-3.4462,0.0,0.0,0.0,0.0,0.0,0.0,0.0,0.0,-3.1019,-3.1269,-3.1212,-3.1423,-3.1641,-3.1288,-3.1192,-3.1192,-3.1192,-3.266,-3.4263,-3.4545,-3.6315,-3.8373,-3.9777,-4.0508,-4.1316,-4.272,-4.3047,-4.3104,-4.3104,-4.3547,-4.447,-4.622,-4.7894,-4.9298,-5.0173,-5.0539,-5.0712,-5.0712,-5.0712,0.0,0.0,0.0,0.0,0.0,0.0,0.0,0.0,-5.0031,-5.0237,-5.0493,-5.0358,-5.0421,-5.0712,-5.0712,-5.0712,-5.0712,-5.0712,-5.0712,-5.0712,-5.0712,-5.0712,-5.0712,-5.0712,-5.0712,-5.0712,-5.0712,-5.0712,-5.0712,-5.0712,-5.0712,-5.0712,-5.0712,-5.0712,-5.0712,0.0,0.0,0.0,0.0,0.0,0.0,0.0,0.0,0.0,0.0,0.0,0.0,0.0,0.0,0.0,0.0,0.0,0.0,-3.095,-3.1751,-3.2788,-3.4135,-3.4205,-3.4603,-3.5481,-3.55,-3.5898,-3.6689,-3.6687,-3.6768,-3.6864,-3.5993,-3.5639,-3.57,-3.563,-3.5611,-3.5595,-3.5515,-3.5481,-3.55,-3.5481,-3.4442,0.0,0.0,0.0,0.0,0.0,0.0,0.0,0.0,-3.1115,-3.0692,-3.2352,-3.2333,-3.1852,-3.2641,-3.2872,-3.2891,-3.2891,-3.3526,-3.4417,-3.5269,-3.6776,-3.87,-4.1212,-4.1808,-4.2527,-4.5075,-4.4259,-4.3104,-4.3104,-4.3104,-4.3662,-4.5325,-4.699,-4.8394,-4.926,-5.0144,-5.0693,-5.0693,-5.0693,0.0,0.0,0.0,0.0,0.0,0.0,0.0,0.0,-4.9885,-5.0092,-5.0123,-5.0483,-5.0702,-5.0712,-5.0712,-5.0712,-5.0712,-5.0712,-5.0712,-5.0712,-5.0712,-5.0712,-5.0712,-5.0712,-5.0712,-5.0712,-5.0712,-5.0712,-5.0712,-5.0712,-5.0712,-5.0712,-5.0712,-5.0712,-5.0712,0.0,0.0,0.0,0.0,0.0,0.0,0.0,0.0,0.0,0.0,0.0,0.0,0.0,0.0,0.0,0.0,0.0,0.0,-3.0931,-3.1231,-3.2216,-3.4115,-3.4205,-3.4603,-3.5481,-3.55,-3.5622,-3.586,-3.5872,-3.5901,-3.5973,-3.5727,-3.5611,-3.5626,-3.5606,-3.5571,-3.5502,-3.4854,-3.4949,-3.5442,-3.4834,-3.391,0.0,0.0,0.0,0.0,0.0,0.0,0.0,0.0,0.0,0.0,-3.0981,-3.1404,-3.1641,-3.125,-3.1583,-3.2064,-3.2064,-3.3103,-3.4417,-3.5269,-3.7642,-4.0123,-4.1489,-4.2277,-4.3258,-4.521,-4.472,-4.3932,-4.3932,-4.3932,-4.4316,-4.5421,-4.6528,-4.7548,-4.8375,-4.924,-4.9779,-4.9779,0.0,0.0,0.0,0.0,0.0,0.0,0.0,0.0,0.0,-4.9603,-4.9936,-5.0493,-5.0358,-5.041,-5.0712,-5.0712,-5.0712,-5.0712,-5.0712,-5.0712,-5.0712,-5.0712,-5.0712,-5.0712,-5.0712,-5.0712,-5.0712,-5.0712,-5.0712,-5.0712,-5.0712,-5.0712,-5.0712,-5.0712,-5.0712,-5.0712,0.0,0.0,0.0,0.0,0.0,0.0,0.0,0.0,0.0,0.0,0.0,0.0,0.0,0.0,0.0,0.0,0.0,0.0,0.0,-3.0564,-3.1516,-3.3596,-3.368,-3.4257,-3.5462,-3.55,-3.55,-3.55,-3.55,-3.5515,-3.5556,-3.5556,-3.5556,-3.5556,-3.5556,-3.5354,-3.4949,-3.441,-3.4507,-3.4949,-3.441,-3.368,-3.2891,0.0,0.0,0.0,0.0,0.0,0.0,0.0,0.0,0.0,-3.0404,-3.0519,-3.0698,-3.0865,-3.1288,-3.1852,-3.2506,-3.391,-3.5391,-3.6276,-3.8777,-4.1412,-4.2951,-4.372,-4.4374,-4.5383,-4.4921,-4.4412,-4.4739,-4.4528,-4.4586,-4.546,-4.6336,-4.7058,-4.7567,-4.8355,-4.9009,-4.9356,0.0,0.0,0.0,0.0,0.0,0.0,0.0,0.0,0.0,-4.8738,-4.9307,-4.9933,-5.0197,-5.0442,-5.0712,-5.0712,-5.0712,-5.0712,-5.0712,-5.0712,-5.0712,-5.0712,-5.0712,-5.0712,-5.0712,-5.0712,-5.0712,-5.0712,-5.0712,-5.0712,-5.0712,-5.0712,-5.0712,-5.0712,-5.0712,-5.0712,0.0,0.0,0.0,0.0,0.0,0.0,0.0,0.0,0.0,0.0,-2.9005,0.0,0.0,0.0,0.0,0.0,0.0,0.0,0.0,0.0,-3.0863,-3.2814,-3.3045,-3.3891,-3.5462,-3.55,-3.55,-3.55,-3.55,-3.55,-3.55,-3.55,-3.55,-3.55,-3.5423,-3.4949,-3.4186,-3.4032,-3.4013,-3.409,-3.3994,-3.3506,-3.2776,-3.2699,0.0,0.0,0.0,0.0,0.0,0.0,0.0,0.0,-3.0404,-2.9871,-2.9531,-3.1121,-3.1641,-3.2045,-3.3648,-3.5315,-3.6808,-3.7757,-3.9988,-4.2566,-4.5037,-4.5594,-4.5594,-4.5594,-4.4979,-4.4662,-4.546,-4.496,-4.4682,-4.5479,-4.6259,-4.6778,-4.6778,-4.749,-4.8279,0.0,0.0,0.0,0.0,0.0,0.0,0.0,0.0,0.0,0.0,-4.7544,-4.8337,-4.8712,-4.986,-5.0462,-5.0462,-5.0462,-5.0462,0.0,-5.0462,-5.0462,-5.0481,-5.0635,-5.0712,-5.0712,-5.0712,-5.0712,-5.0712,-5.0712,-5.0712,-5.0712,-5.0712,-5.0712,-5.0712,-5.0712,-5.0712,-5.0712,0.0,0.0,0.0,0.0,0.0,0.0,0.0,0.0,0.0,0.0,0.0,0.0,0.0,0.0,0.0,0.0,0.0,0.0,0.0,0.0,-3.0877,-3.2819,-3.4212,-3.5115,-3.5481,-3.55,-3.55,-3.55,-3.55,-3.55,-3.55,-3.55,-3.55,-3.5462,-3.4776,-3.4379,-3.4109,-3.2795,-3.2602,-3.3122,-3.2487,-3.2122,-3.1891,-3.1192,-3.0712,0.0,0.0,0.0,0.0,0.0,0.0,0.0,-3.0404,-3.0269,-3.0192,-3.0577,-3.1154,-3.1929,-3.291,-3.4449,-3.6115,-3.7623,-4.0431,-4.3316,-4.519,-4.5594,-4.5594,-4.5594,-4.546,-4.5383,-4.5575,-4.546,-4.5383,-4.5575,-4.5768,-4.5874,-4.5874,-4.6624,-4.724,0.0,0.0,0.0,0.0,0.0,0.0,0.0,0.0,0.0,-4.6887,-4.7123,-4.7587,-4.8231,-4.852,-4.8663,-4.8663,-4.8663,-4.8663,0.0,-4.8663,-4.8663,-4.8702,-5.0067,-5.0712,-5.0712,-5.0712,-5.0712,-5.0712,-5.0712,-5.0712,-5.0712,-5.0712,-5.0712,-5.0712,-5.0712,-5.0712,-5.0712,0.0,0.0,0.0,0.0,0.0,0.0,0.0,0.0,0.0,0.0,0.0,0.0,0.0,0.0,0.0,0.0,0.0,0.0,0.0,0.0,-3.0989,-3.2817,-3.4167,-3.4878,-3.4885,-3.4879,-3.4872,-3.4872,-3.4468,-3.4673,-3.55,-3.55,-3.55,-3.5462,-3.4584,-3.3744,-3.2949,-3.2064,-3.1698,-3.1692,-3.1698,-3.1448,-3.1019,-3.0577,-2.9904,-2.914,-2.8684,0.0,0.0,0.0,0.0,0.0,0.0,0.0,-2.9371,-3.0154,-3.0429,-3.0814,-3.2449,-3.4173,-3.6096,-3.8584,-4.0854,-4.2816,-4.4105,-4.4393,-4.4509,-4.4902,-4.5306,-4.5594,-4.5594,-4.5594,-4.5594,-4.5594,-4.5594,-4.5594,-4.5594,-4.599,0.0,0.0,0.0,0.0,0.0,0.0,0.0,0.0,0.0,-4.6013,-4.5857,-4.636,-4.6923,-4.751,-4.7894,-4.8105,-4.8105,-4.8105,-4.8105,-4.8105,-4.8105,-4.8105,-4.8125,-4.9048,-4.9683,-5.0067,-5.0067,-5.0308,-5.0712,-5.0712,-5.0712,-5.0712,-5.0712,-5.0712,-5.0712,-5.0712,-5.0712,-5.0712,0.0,0.0,0.0,0.0,0.0,0.0,0.0,0.0,0.0,0.0,0.0,0.0,0.0,0.0,0.0,0.0,0.0,0.0,0.0,-2.9953,-3.1235,-3.2625,-3.3513,-3.3981,-3.3981,-3.3834,-3.384,-3.3975,-3.3103,-3.366,-3.55,-3.5346,-3.5365,-3.5462,-3.443,-3.3122,-3.1679,-3.1371,-3.0756,-3.0038,-3.0756,-3.0621,-2.9942,-2.9808,-2.8986,-2.7876,-2.7736,-2.8203,-2.8915,-2.905,0.0,0.0,0.0,0.0,-2.7986,-2.9519,-2.9467,-2.9377,-3.1621,-3.3833,-3.6288,-3.9669,-4.1162,-4.2019,-4.2893,-4.3104,-4.3297,-4.3951,-4.4778,-4.5421,-4.5575,-4.5594,-4.5594,-4.5594,-4.5594,-4.5594,-4.5594,-4.5594,0.0,0.0,0.0,0.0,0.0,0.0,0.0,0.0,0.0,-4.4943,-4.4606,-4.5558,-4.6266,-4.6654,-4.7317,-4.7663,-4.7663,-4.7663,-4.7663,-4.7663,-4.7663,-4.7663,-4.7663,-4.7663,-4.8221,-4.9183,-4.9183,-4.9586,-5.025,-5.025,-5.0346,-5.0481,-5.0481,-5.0577,-5.0712,-5.0712,-5.0712,-5.0712,0.0,0.0,0.0,0.0,0.0,0.0,0.0,0.0,0.0,0.0,-2.8998,-2.9175,-2.9614,-2.8777,0.0,0.0,0.0,0.0,-2.901,0.0,0.0,-3.185,-3.2651,-3.3069,-3.3064,-3.2396,-3.2371,-3.3064,-3.2256,-3.3115,-3.5481,-3.4737,-3.4776,-3.5423,-3.3795,-3.2564,-3.1602,-3.0083,-2.8973,-2.8236,-2.8352,-2.8332,-2.814,-2.739,-2.7448,-2.7799,-2.7044,-2.7332,-2.8165,-2.8857,-2.8703,0.0,0.0,0.0,-2.6967,-2.7948,-2.814,-2.8299,-2.9338,-3.2487,-3.6288,-3.9669,-4.1162,-4.2019,-4.2893,-4.3104,-4.3124,-4.3239,-4.3912,-4.4701,-4.546,-4.5594,-4.5594,-4.5594,-4.5594,-4.5594,-4.5594,-4.5594,0.0,0.0,0.0,0.0,0.0,0.0,0.0,0.0,-4.4908,-4.4943,-4.4606,-4.5014,-4.5425,-4.5759,-4.5883,-4.5941,-4.5941,-4.5941,-4.5941,-4.5941,-4.5941,-4.5941,-4.5941,-4.5941,-4.6778,-4.8279,-4.8279,-4.8336,-4.8452,-4.8452,-4.8894,-4.9567,-4.9567,-5.0029,-5.0712,-5.0712,-5.0712,-5.0712,0.0,0.0,0.0,0.0,0.0,0.0,0.0,0.0,0.0,0.0,0.0,-2.9851,-3.0078,-2.8966,0.0,0.0,0.0,0.0,-2.8365,-2.9579,0.0,0.0,-3.1773,-3.1991,-3.1517,-3.1158,-3.1147,-3.15,-3.0198,-3.1602,-3.5462,-3.4103,-3.4699,-3.6834,-3.5115,-3.3622,-3.2256,-3.0544,-2.9083,-2.7895,-2.7895,-2.8165,-2.8434,-2.7101,-2.714,-2.7717,-2.6365,-2.6428,-2.7236,-2.7582,-2.7794,-2.7953,-2.8319,0.0,0.0,0.0,-2.7178,-2.7678,-2.9948,-3.2622,-3.5468,-3.8373,-3.9758,-4.0623,-4.145,-4.1643,-4.1777,-4.2277,-4.2643,-4.3297,-4.4624,-4.4874,-4.5037,-4.5518,-4.5594,-4.5594,-4.5594,-4.5594,0.0,0.0,0.0,0.0,0.0,0.0,0.0,0.0,-4.5201,-4.5232,-4.4896,-4.5201,-4.5438,-4.5605,-4.5594,-4.5594,-4.5594,-4.5594,-4.5594,-4.5594,-4.5594,-4.5594,-4.5594,-4.5594,-4.6259,-4.7432,-4.7432,-4.7682,-4.8105,-4.8105,-4.8336,-4.8663,-4.8663,-4.9202,-4.9971,-4.9971,-5.0289,-5.0712,0.0,0.0,0.0,0.0,0.0,0.0,0.0,0.0,0.0,0.0,0.0,0.0,-3.0402,0.0,0.0,0.0,0.0,0.0,-2.7508,0.0,0.0,0.0,0.0,-3.0727,-3.0078,-2.9863,-2.975,-2.975,-2.8506,-3.0275,-3.4827,-3.3737,-3.5045,-3.8257,-3.6346,-3.4423,-3.2506,-3.1019,-2.9544,-2.8203,-2.8203,-2.8569,-2.8992,-2.7967,-2.7967,-2.8313,-2.6577,-2.639,-2.6909,-2.6678,-2.689,-2.7274,-2.7505,-2.6967,0.0,0.0,0.0,-2.6923,-2.9929,-3.1968,-3.3853,-3.6392,-3.7834,-3.8911,-3.9958,-4.0208,-4.0439,-4.1296,-4.147,-4.1912,-4.3393,-4.3855,-4.4201,-4.4863,-4.5152,-4.5267,-4.5267,0.0,0.0,0.0,0.0,0.0,0.0,0.0,0.0,0.0,-4.541,-4.5448,-4.5107,-4.5419,-4.5594,-4.5594,-4.5594,-4.5594,-4.5594,-4.5594,-4.5594,-4.5594,-4.5594,-4.5594,-4.5594,-4.5594,-4.5951,-4.6567,-4.6567,-4.6913,-4.7451,-4.7451,-4.7605,-4.7798,-4.7798,-4.8317,-4.9106,-4.9317,-4.9798,-5.0404,0.0,0.0,0.0,0.0,0.0,0.0,0.0,0.0,0.0,0.0,0.0,0.0,-3.0411,-2.8917,-2.7676,-2.7105,0.0,0.0,0.0,0.0,0.0,0.0,0.0,0.0,-2.9165,-2.8415,-2.803,-2.803,-2.7934,-2.966,-3.3045,-3.3801,-3.5956,-3.913,-3.6622,-3.4115,-3.1698,-3.0788,-2.9871,-2.905,-2.905,-2.9069,-2.9184,-2.9923,-3.0231,-3.0058,-2.8371,-2.7799,-2.7703,-2.689,-2.6077,-2.5577,-2.6409,-2.6077,-2.5365,0.0,0.0,0.0,-2.7601,-2.9313,-3.1212,-3.3757,-3.5622,-3.7276,-3.8977,-3.9361,-3.9592,-4.04,-4.0573,-4.0862,-4.1758,-4.2604,-4.3181,-4.322,-4.3874,-4.4374,-4.4374,0.0,0.0,0.0,0.0,0.0,0.0,0.0,0.0,0.0,-4.541,-4.5448,-4.5107,-4.5419,-4.5594,-4.5594,-4.5594,-4.5594,-4.5594,-4.5594,-4.5594,-4.5594,-4.5594,-4.5594,-4.5594,-4.5594,-4.5614,-4.5671,-4.5671,-4.5691,-4.5729,-4.5729,-4.622,-4.6962,-4.6962,-4.7471,-4.8279,-4.9106,-4.9433,-4.9586,0.0,0.0,0.0,0.0,0.0,0.0,0.0,0.0,0.0,0.0,0.0,0.0,0.0,-2.8909,-2.7668,-2.7048,-2.596,0.0,0.0,0.0,0.0,0.0,0.0,0.0,0.0,-2.8049,-2.7621,-2.7063,-2.6505,-2.8255,-3.2141,-3.2449,-3.3814,-3.6014,-3.5661,-3.5269,-3.4712,-3.1673,-3.0538,-3.066,-2.955,-3.0088,-3.1468,-3.0692,-3.1077,-3.1795,-3.0121,-2.95,-2.9371,-2.8506,-2.764,-2.6928,-2.6678,-2.6,-2.5308,-2.5308,-2.5692,-2.639,-2.7582,-2.8717,-3.0179,-3.2737,-3.4237,-3.5545,-3.7238,-3.8488,-3.9381,-3.9669,-4.015,-4.0593,-4.0912,-4.1681,-4.245,-4.3008,-4.3335,-4.3701,-4.422,0.0,0.0,0.0,0.0,0.0,0.0,0.0,0.0,0.0,0.0,-4.5559,-4.5429,-4.5522,-4.5594,-4.5594,-4.5594,-4.5594,-4.5594,-4.5594,-4.5594,-4.5594,-4.5594,-4.5594,-4.5594,-4.5594,-4.5594,-4.5594,-4.5594,-4.5594,-4.5594,-4.5594,-4.5787,-4.6067,-4.6067,-4.6586,-4.7375,-4.7682,-4.849,-4.9433,0.0,0.0,0.0,0.0,0.0,0.0,0.0,0.0,-3.0404,-3.0404,0.0,0.0,0.0,0.0,-2.8236,-2.6982,-2.6163,-2.5606,-2.5327,-2.5842,0.0,0.0,0.0,0.0,0.0,-2.7895,-2.7467,-2.6601,-2.6019,-2.7346,-3.0429,-3.0698,-3.1872,-3.3744,-3.3468,-3.4295,-3.568,-3.2872,-3.2006,-3.2449,-3.1281,-3.1839,-3.3276,-3.2712,-3.3038,-3.3583,-3.2179,-3.1481,-3.1058,-2.9929,-2.8986,-2.8145,-2.7294,-2.6043,-2.4909,-2.4909,-2.5313,-2.5947,-2.6794,-2.7621,-2.8871,-3.1429,-3.2506,-3.3583,-3.6115,-3.7392,-3.818,-3.8738,-3.9515,-4.0092,-4.0092,-4.0796,-4.1546,-4.2124,-4.247,-4.2854,-4.3393,0.0,0.0,0.0,0.0,0.0,0.0,0.0,0.0,0.0,0.0,0.0,-4.4786,-4.4767,-4.4767,-4.4767,-4.5017,-4.5171,-4.5171,-4.546,-4.5594,-4.5594,-4.5594,-4.5594,-4.5594,-4.5594,-4.5594,-4.5594,-4.5594,-4.5594,-4.5594,-4.5594,-4.5594,-4.5594,-4.5594,-4.5951,-4.6509,-4.6797,-4.7605,-4.8606,0.0,0.0,0.0,0.0,0.0,0.0,0.0,0.0,-3.0423,-3.0404,0.0,0.0,0.0,0.0,0.0,-2.6874,-2.6616,-2.6237,-2.5385,-2.5308,0.0,0.0,0.0,0.0,-2.7895,-2.7895,-2.7467,-2.6601,-2.6563,-2.7005,-2.7876,-2.8684,-3.0396,-3.2679,-3.0223,-3.0973,-3.409,-3.4032,-3.409,-3.4205,-3.4148,-3.4186,-3.4456,-3.6045,-3.6212,-3.5462,-3.4584,-3.3757,-3.2795,-3.1115,-2.9967,-2.9088,-2.8184,-2.6183,-2.4168,-2.4149,-2.4168,-2.4375,0.0,0.0,0.0,-2.9673,-3.0308,-3.1404,-3.5577,-3.5942,-3.5904,-3.7584,-3.8623,-3.9227,-3.9265,-3.99,-4.0439,-4.0439,-4.1181,-4.1769,-4.1788,0.0,0.0,0.0,0.0,0.0,0.0,0.0,0.0,0.0,-4.4259,-4.3912,-4.3143,-4.3104,-4.3104,-4.3104,-4.3855,-4.4259,-4.4259,-4.5094,-4.5537,-4.5537,-4.5537,-4.5537,-4.5556,-4.5556,-4.5575,-4.5594,-4.5594,-4.5594,-4.5594,-4.5594,-4.5594,-4.5594,-4.5594,-4.5594,-4.571,-4.6547,-4.6885,-4.7,0.0,0.0,0.0,0.0,0.0,-3.3353,-3.1929,-3.1506,-3.1115,0.0,0.0,0.0,-3.0481,-3.039,-2.9786,-2.8252,-2.7185,-2.6497,-2.6256,-2.5644,-2.5692,-2.6558,-2.7428,-2.7895,-2.7895,-2.7895,-2.7467,-2.6601,-2.5962,-2.6115,-2.6986,-2.7832,-2.8915,-3.0146,-3.0063,-3.0577,-3.1365,-3.016,-3.1416,-3.409,-3.2872,-3.3833,-3.6007,-3.5885,-3.6442,-3.7199,-3.6315,-3.6257,-3.6334,-3.4654,-3.3506,-3.2224,-2.8934,-2.6986,-2.5774,-2.5159,-2.5851,-2.6626,-2.5577,0.0,0.0,0.0,0.0,0.0,0.0,0.0,-3.4103,-3.5846,-3.6853,-3.7603,-3.8238,-3.8546,-3.8681,-3.8681,-3.9912,-4.1085,-4.1712,0.0,0.0,0.0,0.0,0.0,0.0,0.0,0.0,0.0,-4.3431,-4.3335,-4.3104,-4.3104,-4.3104,-4.3104,-4.3316,-4.3431,-4.3431,-4.3662,-4.3797,-4.3797,-4.3797,-4.4105,-4.4662,-4.4662,-4.4998,-4.5594,-4.5594,-4.5594,-4.5594,-4.5594,-4.5594,-4.5594,-4.5594,-4.5594,-4.5633,-4.5883,-4.6355,-4.6923,0.0,0.0,0.0,-3.4359,-3.4205,-3.3744,-3.241,-3.2199,-3.2025,0.0,0.0,0.0,-3.1481,-3.1442,-3.0891,-2.9536,-2.8338,-2.7343,-2.6651,-2.6125,-2.5918,-2.6058,-2.7236,-2.7895,-2.7895,-2.7895,-2.764,-2.714,-2.5904,-2.5558,-2.6077,-2.6582,-2.7255,-2.8063,-2.8212,-2.8673,-2.9256,-2.7544,-2.9275,-3.316,-3.3256,-3.4462,-3.625,-3.6853,-3.7469,-3.7988,-3.7834,-3.7873,-3.7796,-3.6442,-3.4968,-3.3051,-2.9511,-2.8049,-2.7409,-2.6192,-2.6813,-2.7678,-2.6659,-2.7121,-2.7948,-2.814,0.0,0.0,-3.091,-3.1654,-3.2449,0.0,-3.5615,-3.6462,-3.7296,-3.7757,-3.8007,-3.8007,-3.8815,-3.9758,-4.0623,0.0,0.0,0.0,0.0,0.0,0.0,-4.2893,-4.2951,-4.2585,-4.2566,-4.2393,-4.2027,-4.2008,-4.2008,-4.2008,-4.2374,-4.2566,-4.2566,-4.2912,-4.3104,-4.3104,-4.3104,-4.3355,-4.3797,-4.3797,-4.4259,-4.5056,-4.5056,-4.5267,-4.5594,-4.5594,-4.5594,-4.5594,-4.5594,-4.5594,-4.5594,-4.5594,-4.5913,-4.6355,0.0,0.0,-3.5135,-3.4449,-3.434,-3.4045,-3.3179,-3.3045,-3.3006,0.0,-3.2532,-3.2513,-3.3122,-3.2968,-3.2231,-3.0808,-2.9707,-2.8464,-2.6978,-2.6697,-2.6201,-2.5346,-2.689,-2.7761,-2.7761,-2.7857,-2.7857,-2.7761,-2.6192,-2.5385,-2.5308,-2.5308,-2.5712,-2.6428,-2.5654,-2.6154,-2.7525,-2.6154,-2.7846,-3.1621,-3.3981,-3.5212,-3.5885,-3.8142,-3.87,-3.8373,-3.9053,-3.8854,-3.8123,-3.718,-3.5161,-3.2622,-3.0281,-2.9454,-2.9088,-2.7486,-2.764,-2.8299,-2.8198,-2.8255,-2.8621,-2.9923,-2.9217,0.0,-3.1718,-3.1346,-3.1038,0.0,-3.4468,-3.5327,-3.6135,-3.6988,-3.7546,-3.745,-3.7661,-3.818,-3.9169,0.0,0.0,0.0,0.0,0.0,-4.1662,-4.2354,-4.2489,-4.172,-4.1662,-4.1316,-4.0535,-4.0496,-4.0496,-4.0496,-4.1258,-4.1662,-4.1662,-4.2412,-4.2816,-4.2816,-4.2816,-4.2854,-4.297,-4.297,-4.3393,-4.4162,-4.4259,-4.4739,-4.546,-4.5556,-4.5594,-4.5594,-4.5594,-4.5594,-4.5594,-4.5594,-4.5594,-4.5594,0.0,-3.3853,-3.4622,-3.5154,-3.525,-3.4949,-3.409,-3.3955,-3.368,-3.2987,-3.3231,-3.3866,-3.4885,-3.3359,-3.2301,-3.241,-3.038,-2.8964,-2.8634,-2.7351,-2.6201,-2.5346,-2.6288,-2.6851,-2.6851,-2.7544,-2.7563,-2.6851,-2.6505,-2.5981,-2.5308,-2.5308,-2.5385,-2.5558,-2.5385,-2.55,-2.5885,-2.6948,-2.8255,-2.9704,-3.0904,-3.3423,-3.6519,-3.7026,-3.8373,-3.9958,-3.9477,-3.9611,-3.9785,-3.8257,-3.6045,-3.3744,-3.2545,-3.1718,-3.0987,-2.9962,-3.0269,-3.0814,-3.0096,-3.0423,-3.0698,-2.9621,-2.964,0.0,-2.9025,-2.9679,-3.0538,0.0,-3.1827,-3.2699,-3.3487,-3.4353,-3.4699,-3.4007,-3.5622,-3.7507,-3.9092,-3.9438,0.0,0.0,0.0,0.0,-4.0746,-4.092,-4.0939,-4.0766,-4.0746,-4.0689,-4.0516,-4.0496,-4.0496,-4.0496,-4.0669,-4.0746,-4.0746,-4.092,-4.1016,-4.1016,-4.1016,-4.1373,-4.2038,-4.2038,-4.2527,-4.3374,-4.4028,-4.4393,-4.4605,-4.5306,-4.5594,-4.5594,-4.5594,-4.5594,-4.5594,-4.5594,-4.5594,-4.5594,-3.2218,-3.3333,-3.434,-3.4776,-3.5212,-3.5346,-3.493,-3.4853,-3.4699,-3.4257,-3.4456,-3.4879,-3.5442,-3.398,-3.2603,-3.1738,-3.0887,-3.0034,-2.9154,-2.7942,-2.6865,-2.5981,-2.637,-2.6794,-2.7236,-2.7255,-2.7255,-2.7255,-2.639,-2.5731,-2.5308,-2.5308,-2.5769,-2.6563,-2.5692,-2.6,-2.7198,-2.7236,-2.7972,-2.93,-3.1429,-3.3814,-3.6192,-3.7026,-3.8142,-3.92,-3.8796,-3.8623,-3.8488,-3.7623,-3.6238,-3.4699,-3.3814,-3.3564,-3.3346,-3.2019,-3.2256,-3.2756,-3.1891,-3.1968,-3.2083,-3.1198,-3.0698,0.0,0.0,-2.9775,-3.0102,-3.1385,-3.1679,-3.2083,-3.3314,-3.3545,-3.3545,-3.3545,-3.4622,-3.5911,-3.7219,-3.8123,0.0,0.0,0.0,0.0,-3.9861,-3.99,-4.0073,-4.0477,-4.0496,-4.0496,-4.0496,-4.0496,-4.0496,-4.0496,-4.0496,-4.0496,-4.0496,-4.0496,-4.0496,-4.0496,-4.0496,-4.0727,-4.1143,-4.1143,-4.1623,-4.2508,-4.3335,-4.3932,-4.4374,-4.5248,-4.5594,-4.5594,-4.5594,-4.5594,-4.5594,-4.5594,-4.5594,-4.5594,-3.1679,-3.2795,-3.3763,-3.3917,-3.468,-3.525,-3.525,-3.5385,-3.55,-3.55,-3.55,-3.55,-3.55,-3.4531,-3.3293,-3.1834,-3.1853,-3.1322,-2.9925,-2.8923,-2.7986,-2.7121,-2.6774,-2.7005,-2.7876,-2.7044,-2.6851,-2.739,-2.6154,-2.5462,-2.5308,-2.5308,-2.6135,-2.7601,-2.6346,-2.7024,-2.9011,-2.7832,-2.8294,-3.0069,-3.284,-3.4372,-3.5173,-3.6892,-3.7603,-3.7777,-3.795,-3.745,-3.6692,-3.6692,-3.6173,-3.5385,-3.4661,-3.493,-3.5212,-3.3814,-3.3891,-3.4295,-3.3583,-3.341,-3.3314,-3.2987,-3.2006,-3.1135,0.0,0.0,0.0,-3.1814,-3.1795,0.0,0.0,0.0,0.0,0.0,0.0,0.0,0.0,-3.6219,0.0,0.0,0.0,0.0,0.0,-3.8892,-3.915,-3.9958,-4.0015,-4.0092,-4.0265,-4.0419,-4.0496,-4.0496,-4.0496,-4.0496,-4.0496,-4.0496,-4.0496,-4.0496,-4.0496,-4.0496,-4.0496,-4.0496,-4.0873,-4.1604,-4.247,-4.322,-4.3893,-4.494,-4.5344,-4.5364,-4.5537,-4.5594,-4.5594,-4.5594,-4.5594,-4.5594,-3.1545,-3.1852,-3.2218,-3.291,-3.3776,-3.4359,-3.4359,-3.5007,-3.55,-3.55,-3.55,-3.55,-3.55,-3.4684,-3.4768,-3.6285,-3.4186,-3.2673,-3.2478,-3.0985,-2.9737,-2.8857,-2.739,-2.7005,-2.7876,-2.7044,-2.6269,-2.5596,-2.6173,-2.6058,-2.5308,-2.5308,-2.5827,-2.6774,-2.7351,-2.8165,-2.9146,-2.9712,-3.0942,-3.2506,-3.2891,-3.3103,-3.3372,-3.5115,-3.6231,-3.6942,-3.7719,-3.745,-3.6692,0.0,-3.6173,-3.5481,0.0,-3.5423,-3.5462,-3.525,-3.5269,-3.5327,-3.5231,-3.5192,-3.4827,-3.3295,-3.3333,-3.2993,-3.0069,0.0,-3.1044,-2.98,0.0,0.0,0.0,0.0,0.0,0.0,0.0,0.0,-3.2333,-3.3564,-3.518,0.0,0.0,0.0,0.0,-3.745,-3.7353,-3.8219,-3.8277,-3.8623,-3.94,-4.0112,-4.0496,-4.0496,-4.0496,-4.0496,-4.0496,-4.0496,-4.0496,-4.0496,-4.0496,-4.0496,-4.0496,-4.0496,-4.0554,-4.0708,-4.1566,-4.2,-4.222,-4.3797,-4.4451,-4.4509,-4.5306,-4.5594,-4.5594,-4.5594,-4.5594,-4.5594,-3.0865,-3.1346,-3.1814,-3.2141,-3.2891,-3.3622,-3.4129,-3.5334,-3.6038,-3.5558,-3.5904,-3.6269,-3.6469,-3.5988,-3.6072,-3.7107,-3.55,-3.4185,-3.3699,-3.2083,-3.0987,-3.0621,-2.8967,-2.8222,-2.8588,-2.7274,-2.6428,-2.6058,-2.5904,-2.5654,-2.5308,-2.5308,-2.6269,-2.8044,-2.7953,-2.9165,-3.1295,-3.1198,-3.1564,-3.2237,0.0,-3.2622,0.0,-3.4654,-3.5712,-3.6058,-3.6423,-3.6308,-3.6,0.0,-3.5788,0.0,0.0,0.0,0.0,-3.55,-3.55,-3.55,0.0,0.0,0.0,0.0,0.0,0.0,-3.1044,0.0,-3.0885,0.0,0.0,0.0,0.0,0.0,0.0,0.0,-3.2045,0.0,0.0,0.0,-3.3718,0.0,0.0,0.0,0.0,0.0,0.0,0.0,-3.7526,-3.7853,-3.9227,-3.9631,-4.0015,-4.0496,-4.0496,-4.0496,-4.0496,-4.0496,-4.0496,-4.0496,-4.0496,-4.0496,-4.0496,-4.0496,-4.0496,-4.0554,-4.1431,-4.1788,-4.1885,-4.3104,-4.3605,-4.3682,-4.4509,-4.5152,-4.5594,-4.5594,-4.5594,-4.5594,-3.0404,-3.0904,-3.1346,-3.1346,-3.2025,-3.2929,-3.4032,-3.5449,-3.6154,-3.5577,-3.6,-3.6546,-3.7014,-3.6841,-3.699,-3.7704,-3.6805,-3.5808,-3.4941,-3.3532,-3.2641,-3.2391,-3.0737,-2.9819,-2.9819,-2.7948,-2.6832,-2.6601,-2.5731,-2.5308,-2.5308,-2.5308,-2.6404,-2.8415,-2.8525,-3.0063,-3.2564,-3.2449,-3.2526,-3.2776,-3.3122,-3.3045,-3.2929,-3.4519,-3.5288,-3.55,-3.55,-3.55,-3.55,-3.55,-3.55,0.0,-3.55,0.0,-3.55,0.0,0.0,0.0,-3.55,0.0,0.0,0.0,0.0,0.0,0.0,0.0,0.0,0.0,0.0,0.0,0.0,0.0,-3.1212,-3.1641,0.0,-3.166,0.0,0.0,0.0,0.0,0.0,0.0,0.0,0.0,0.0,0.0,0.0,-3.6776,-3.8488,-3.9034,-3.9573,-4.015,-4.04,-4.0519,-4.0552,-4.0519,-4.053,-4.0571,-4.0561,-4.0561,-4.0571,-4.0571,-4.0563,-4.0591,-4.1219,-4.1478,-4.1508,-4.2374,-4.2739,-4.2835,-4.3643,-4.4355,-4.4979,-4.5441,-4.5594,-4.5594,-3.0404,-3.0423,-3.0442,-3.0442,-3.1154,-3.2295,-3.3955,-3.4968,-3.5538,-3.55,-3.5519,-3.5846,-3.6635,-3.6716,-3.7377,-3.9083,-3.842,-3.754,-3.6682,-3.5841,-3.5007,-3.4167,-3.2506,-3.1621,-3.1621,-2.914,-2.7448,-2.6601,-2.5731,-2.5308,-2.5308,-2.5308,-2.5788,-2.6794,-2.9231,-3.0846,-3.1833,-3.343,-3.4603,-3.5308,-3.4487,-3.4641,-3.5288,0.0,-3.4776,-3.55,-3.55,0.0,0.0,-3.55,-3.55,0.0,0.0,0.0,0.0,0.0,0.0,0.0,0.0,0.0,0.0,-3.3372,0.0,0.0,0.0,0.0,-3.1679,0.0,0.0,0.0,0.0,-3.2833,-3.2564,-3.1814,-3.2352,0.0,0.0,0.0,0.0,0.0,0.0,0.0,0.0,0.0,0.0,0.0,0.0,0.0,-3.6692,-3.8373,-3.9304,-3.9342,-4.0092,-4.0566,-4.0692,-4.0566,-4.0597,-4.0785,-4.0721,-4.0731,-4.0789,-4.0789,-4.0747,-4.0692,-4.073,-4.0662,-4.0612,-4.1489,-4.1846,-4.1923,-4.2797,-4.3162,-4.3374,-4.4998,-4.5594,-4.5594,-3.0404,-3.0404,-3.0404,-3.0404,-3.0635,-3.1404,-3.3083,-3.5026,-3.6288,-3.6288,-3.6788,-3.768,-3.9065,-3.8746,-3.9107,-4.0816,-3.9673,-3.8747,-3.8442,-3.7096,-3.643,-3.6699,-3.4564,-3.3353,-3.3353,-3.0852,-2.914,-2.8261,-2.7428,-2.7024,-2.7005,-2.6428,-2.664,-2.7525,-2.8909,-3.0333,-3.1814,-3.3494,-3.4379,-3.4603,0.0,-3.4718,-3.5462,0.0,0.0,-3.55,-3.55,-3.55,0.0,-3.55,-3.55,-3.55,-3.55,-3.55,-3.55,-3.55,-3.55,0.0,0.0,0.0,-3.5212,-3.4045,0.0,0.0,0.0,0.0,0.0,0.0,0.0,0.0,0.0,-3.2891,-3.2641,-3.1833,-3.1929,-3.1314,0.0,0.0,0.0,0.0,0.0,0.0,0.0,0.0,0.0,0.0,-3.4379,0.0,0.0,-3.7257,-3.7872,-3.8485,-3.8775,-3.9259,-3.9975,-3.9932,-4.0209,-4.0797,-4.0779,-4.0779,-4.0797,-4.0797,-4.0796,-4.0781,-4.0781,-4.0726,-4.0655,-4.0945,-4.1024,-4.1027,-4.1893,-4.2239,-4.2374,-4.3528,-4.4278,-4.4816,-3.0865,-3.0615,-3.0404,-3.0404,-3.0885,-3.1756,-3.3141,-3.5257,-3.6808,-3.7123,-3.7911,-3.9104,-4.0777,-4.0504,-4.075,-4.2144,-4.0989,-3.9935,-3.9346,-3.825,-3.7603,-3.7546,-3.6257,-3.5276,-3.468,-3.2756,-3.1025,-2.9563,-2.8742,-2.8184,-2.7876,-2.7005,-2.6909,-2.7486,-2.8607,-2.989,-3.1365,-3.3353,-3.4379,-3.4661,0.0,-3.5007,0.0,0.0,-3.55,-3.55,0.0,-3.55,-3.55,-3.55,-3.55,-3.55,-3.55,-3.55,-3.55,-3.55,-3.55,-3.55,-3.55,-3.55,0.0,-3.441,-3.3782,0.0,-3.2314,0.0,-3.2583,0.0,0.0,0.0,0.0,-3.3564,-3.3083,-3.2256,-3.1891,-3.1025,0.0,-2.8794,0.0,0.0,0.0,0.0,0.0,0.0,-3.3353,-3.4564,-3.3814,0.0,0.0,0.0,-3.7055,-3.7696,-3.8011,-3.8499,-3.9166,-3.9466,-3.9893,-4.0479,-4.0746,-4.0905,-4.093,-4.093,-4.0917,-4.087,-4.087,-4.0812,-4.0697,-4.0697,-4.0623,-4.0554,-4.1123,-4.1335,-4.1489,-4.2662,-4.3605,-4.4412,-3.1711,-3.1064,-3.0538,-3.0577,-3.191,-3.3237,0.0,0.0,-3.7019,-3.795,-3.8815,-4.0008,-4.1739,-4.1885,-4.2209,-4.3071,-4.2324,-4.1123,-3.953,-3.935,-3.8584,-3.6962,-3.7603,-3.7257,-3.5654,-3.468,-3.3006,-3.0596,-2.9621,-2.878,-2.8005,-2.7082,-2.664,-2.6678,-2.8319,-2.955,-3.0569,-3.3077,-3.4674,-3.5494,-3.5494,-3.5507,-3.55,-3.55,-3.55,-3.55,-3.55,-3.55,-3.55,-3.55,-3.55,-3.55,-3.55,-3.55,-3.55,-3.55,-3.55,-3.55,-3.55,-3.55,-3.5308,-3.4468,0.0,0.0,0.0,0.0,-3.4205,0.0,0.0,0.0,0.0,0.0,-3.3955,-3.3045,-3.216,-3.1295,-3.0519,-3.0365,-3.0365,0.0,0.0,0.0,-3.3801,-3.191,-3.1904,-3.5077,-3.3147,-3.2937,0.0,0.0,-3.6833,-3.6938,-3.7755,-3.8228,-3.834,-3.9094,-3.9624,-3.9902,-4.0609,-4.1039,-4.1191,-4.1191,-4.1128,-4.1019,-4.1019,-4.0903,-4.0701,-4.0701,-4.0623,-4.0512,-4.0512,-4.0504,-4.0708,-4.245,-4.3585,-4.4374,-3.1768,-3.2044,-3.2468,-3.3103,-3.3583,-3.3936,0.0,0.0,0.0,0.0,-3.9688,-4.1073,-4.3393,-4.3124,-4.3096,-4.3915,-4.2656,-4.1615,-4.1201,-3.9985,-3.9381,-3.9515,-3.8546,-3.7796,-3.7373,-3.5276,-3.3878,-3.3218,-3.1102,-2.9962,-2.9731,-2.8255,-2.7217,-2.6659,-2.7736,-2.9061,-3.0607,-3.2556,-3.4229,-3.5571,-3.5571,-3.554,-3.55,0.0,-3.55,-3.55,-3.55,-3.55,-3.55,-3.55,-3.55,-3.55,-3.55,-3.55,-3.55,-3.55,-3.55,-3.55,-3.55,-3.55,-3.5442,-3.5212,-3.468,-3.4148,0.0,0.0,0.0,0.0,0.0,0.0,0.0,0.0,0.0,-3.3141,-3.1141,-2.991,-3.0346,-2.9833,0.0,-3.1218,0.0,0.0,-3.0435,-3.2128,-3.3064,-3.2699,-3.3277,0.0,0.0,0.0,0.0,-3.615,-3.6404,-3.6861,-3.7575,-3.7785,-3.8569,-3.9902,-4.0096,-4.0546,-4.1191,-4.1191,-4.1171,-4.115,-4.115,-4.1052,-4.0925,-4.0925,-4.0803,-4.0655,-4.0655,-4.0602,-4.0708,-4.245,-4.3239,-4.3624,-3.2986,-3.3563,-3.4113,-3.4199,0.0,0.0,-3.5366,-3.6084,0.0,-3.9073,-4.0335,0.0,-4.3585,-4.4028,-4.4212,-4.4282,-4.3436,0.0,-4.1304,-4.07,-4.0277,-3.9996,-3.9419,-3.8738,-3.8027,-3.6584,-3.5122,-3.3622,-3.1833,-3.0577,-2.9794,-2.8159,-2.7094,-2.664,-2.7542,-2.8897,-3.0664,-3.3168,-3.4757,-3.5596,-3.5635,-3.5611,0.0,-3.5544,-3.554,-3.5547,-3.5508,-3.55,-3.55,-3.55,-3.55,-3.55,-3.55,-3.55,-3.55,-3.55,-3.55,-3.55,-3.55,-3.55,-3.55,-3.55,-3.5135,-3.4776,-3.4776,-3.4776,-3.4776,0.0,0.0,0.0,0.0,0.0,0.0,-3.2653,-3.116,-3.0279,-3.0416,-3.0027,-3.0085,0.0,-3.1115,0.0,0.0,-3.0893,-3.1925,-3.1801,-3.2668,0.0,0.0,0.0,0.0,-3.5925,-3.5946,-3.6206,-3.6738,-3.7109,-3.7793,-3.8769,-3.9141,-3.9785,-4.0625,-4.0625,-4.084,-4.1191,-4.1191,-4.1127,-4.0996,-4.0996,-4.0893,-4.0747,-4.0707,-4.0642,-4.0781,-4.2483,-4.3104,-4.3335,-3.451,-3.5189,-3.5479,0.0,0.0,0.0,0.0,-3.7005,0.0,-3.9437,0.0,-4.2237,-4.3305,-4.4643,-4.5192,-4.4521,-4.428,-4.3195,-4.0987,-4.1338,-4.0989,-3.9515,-4.0131,-3.9773,-3.8224,-3.7966,-3.6343,-3.3267,-3.2226,-3.0838,-2.9084,-2.758,-2.6725,-2.6501,-2.7546,-2.9078,-3.106,-3.4231,-3.5608,-3.563,-3.5709,-3.5717,-3.5696,-3.5639,-3.5616,-3.5601,-3.5546,-3.5502,-3.55,-3.55,-3.55,-3.55,-3.55,-3.55,-3.55,-3.55,-3.55,-3.55,-3.55,-3.55,-3.55,-3.55,-3.552,-3.5508,-3.5507,-3.5515,-3.5528,-3.5502,-3.5574,-3.5616,0.0,0.0,0.0,-3.2306,-3.1879,-3.1518,-3.0938,-3.0757,-3.075,-3.0927,0.0,0.0,0.0,0.0,0.0,0.0,0.0,0.0,0.0,0.0,0.0,-3.5996,-3.5996,0.0,-3.5996,0.0,-3.7187,-3.7305,-3.8184,-3.9062,-3.9902,-4.0019,-4.0488,-4.1191,-4.1191,-4.1129,-4.1025,-4.1025,-4.0952,-4.0828,-4.0747,-4.0707,-4.0903,-4.2416,-4.2973,-4.3216,-3.4503,-3.5719,-3.6452,-3.5523,0.0,-3.7365,-3.7857,-3.8593,-3.9685,-4.1312,-4.1831,-4.2836,-4.4936,-4.4885,-4.4876,-4.5336,-4.4108,0.0,0.0,0.0,0.0,-4.0304,-4.0419,-4.007,-3.9178,-3.7798,-3.6478,-3.5209,-3.2958,-3.0969,-2.9249,-2.8297,-2.7076,-2.5762,-2.7368,-2.9849,-3.2906,-3.4285,0.0,-3.5856,-3.5867,-3.5802,-3.5703,-3.5686,-3.5678,-3.5678,-3.5679,-3.5595,-3.55,-3.55,-3.55,-3.55,-3.55,-3.55,-3.55,-3.55,-3.55,-3.55,-3.55,-3.55,-3.55,-3.55,-3.5534,-3.5579,-3.5515,-3.5599,-3.5646,-3.5595,-3.5639,-3.5678,-3.5678,0.0,0.0,0.0,0.0,0.0,0.0,-3.2114,-3.1939,-3.2668,-3.2246,-3.1526,0.0,0.0,0.0,0.0,0.0,0.0,0.0,0.0,0.0,0.0,-3.5996,0.0,0.0,0.0,-3.6582,-3.7305,-3.8184,-3.9062,-3.9922,-4.0644,-4.1055,-4.1191,-4.1191,-4.1191,-4.1151,-4.1151,-4.1081,-4.0955,-4.0832,-4.0788,-4.0904,-4.1908,-4.2287,-4.2581,-3.6545,-3.7174,-3.7575,-3.7082,0.0,0.0,0.0,-4.015,-4.115,-4.1392,-4.1823,-4.2703,-4.4297,-4.4917,-4.5019,-4.4502,-4.4141,-4.3342,-4.2001,-4.1542,-4.1135,-4.067,-4.0657,-4.0283,-3.9524,-3.8272,-3.6777,-3.5022,-3.2928,-3.0782,-2.8604,-2.7839,-2.7002,-2.6296,-2.8981,-3.1328,0.0,0.0,0.0,-3.5903,-3.5944,-3.5902,-3.5845,-3.5817,-3.5805,-3.5799,-3.572,-3.5663,-3.5596,-3.5596,-3.5588,-3.5558,-3.5558,-3.5534,-3.55,-3.55,-3.55,-3.55,-3.55,-3.55,-3.5501,-3.554,-3.5577,-3.5591,-3.5596,-3.5655,-3.5693,-3.5663,-3.573,-3.5805,-3.5805,-3.5493,0.0,0.0,0.0,0.0,0.0,0.0,-3.2645,-3.2684,-3.2687,-3.2186,0.0,0.0,0.0,0.0,0.0,0.0,0.0,0.0,0.0,0.0,0.0,0.0,0.0,0.0,0.0,-3.6641,-3.7519,-3.8379,-3.9258,-4.0137,-4.0762,-4.1191,-4.1191,-4.1191,-4.1191,-4.1191,-4.1151,-4.1082,-4.0957,-4.0908,-4.1,-4.1805,-4.2092,-4.2391,-3.8734,-3.8863,0.0,0.0,-3.9655,0.0,-4.0008,-4.1362,-4.2103,-4.1295,-4.1909,-4.2763,-4.36,-4.4868,-4.5133,-4.3786,-4.4127,-4.3468,-4.1211,-4.156,-4.1513,-4.0836,-4.0797,-4.0521,-3.9906,-3.8867,-3.7231,-3.5021,-3.3323,-3.1156,0.0,-2.8025,-2.7729,0.0,0.0,0.0,0.0,0.0,-3.5798,-3.5938,-3.5975,-3.5996,-3.5996,-3.5945,-3.5916,-3.5911,-3.5795,-3.5758,-3.5758,-3.5758,-3.5709,-3.5611,-3.5611,-3.5599,-3.5534,-3.5534,-3.5534,-3.5534,-3.5534,-3.5534,-3.5564,-3.5606,-3.563,-3.567,-3.5693,-3.5732,-3.5752,-3.5755,-3.5845,-3.5916,-3.5916,-3.5916,0.0,0.0,0.0,0.0,0.0,0.0,-3.339,-3.2793,-3.2988,-3.2637,-3.1309,0.0,0.0,0.0,0.0,0.0,-3.334,-3.3887,0.0,0.0,0.0,-3.5723,-3.5723,0.0,-3.5996,0.0,-3.707,-3.7949,-3.8633,-3.9687,-4.0547,-4.1191,-4.1191,-4.1191,-4.1191,-4.1191,-4.1191,-4.1191,-4.1081,-4.1049,-4.1104,-4.1697,-4.1906,-4.214,0.0,0.0,0.0,0.0,0.0,0.0,-4.101,-4.1733,-4.2341,-4.2182,-4.2975,-4.381,-4.4495,-4.4777,-4.4811,-4.4593,-4.3923,-4.3084,-4.2049,-4.1317,-4.0894,-4.0797,-4.0797,-4.0822,-4.0871,-3.9249,-3.7941,0.0,0.0,-3.3124,0.0,-3.0566,-3.0527,0.0,0.0,0.0,0.0,-3.4746,-3.5273,-3.5996,-3.5996,-3.5996,-3.5996,-3.5996,-3.5996,-3.5996,-3.5975,-3.5975,-3.5975,-3.5975,-3.5843,-3.5693,-3.5693,-3.5686,-3.5678,-3.5678,-3.5678,-3.5678,-3.5678,-3.5678,-3.5682,-3.5689,-3.5786,-3.5836,-3.572,-3.5841,-3.5953,-3.5885,-3.5946,-3.5996,-3.5996,-3.5996,-3.5957,0.0,0.0,0.0,0.0,0.0,-3.4531,-3.4473,-3.3184,-3.2246,0.0,-3.0019,0.0,0.0,0.0,0.0,-3.3301,-3.2793,-3.3164,-3.4766,0.0,-3.4824,-3.4824,-3.5605,-3.5996,-3.6016,-3.7676,-3.8516,-3.8652,-4.0312,-4.1113,-4.1191,-4.1191,-4.1191,-4.1191,-4.1191,-4.1191,-4.1191,-4.1191,-4.1171,-4.1191,-4.1268,-4.1287,-4.1405,0.0,0.0,0.0,0.0,0.0,0.0,0.0,-4.3046,-4.3574,-4.2493,-4.3143,-4.4197,-4.5522,-4.5679,-4.5271,-4.4193,-4.3785,-4.3008,-4.1641,-4.1221,-4.1049,-4.1049,-4.1049,-4.1076,-4.1126,-3.9915,-3.8625,0.0,0.0,-3.414,-3.1553,-3.164,0.0,0.0,0.0,-3.4062,-3.4726,-3.5254,-3.5684,-3.5996,-3.5996,-3.5996,-3.5996,-3.5996,-3.5996,-3.5996,-3.5996,-3.5996,-3.5996,-3.5996,-3.5924,-3.5812,-3.5812,-3.5764,-3.5707,-3.5707,-3.5707,-3.5707,-3.5707,-3.5707,-3.5717,-3.5802,-3.5869,-3.5905,-3.5875,-3.5933,-3.5996,-3.5972,-3.5975,-3.5996,-3.5996,-3.5996,-3.5996,0.0,0.0,0.0,0.0,0.0,0.0,-3.4766,-3.3652,-3.2734,0.0,0.0,0.0,0.0,0.0,0.0,0.0,0.0,0.0,-3.3906,0.0,-3.5234,-3.4707,-3.5566,-3.5996,-3.6016,-3.7773,-3.8594,-3.8652,-4.041,-4.1191,-4.1191,-4.1191,-4.1191,-4.1191,-4.1191,-4.1191,-4.1191,-4.1191,-4.1191,-4.1191,-4.1191,-4.1191,-4.125,-4.4023,0.0,-4.3437,0.0,-4.3965,-4.3379,-4.2851,-4.4043,-4.4473,-4.2988,-4.3535,-4.4551,-4.5781,-4.6152,-4.5605,-4.3848,-4.3555,-4.2812,-4.1308,-4.1191,-4.1191,-4.1191,-4.1191,0.0,-4.1191,-4.0351,-3.9276,-3.7997,-3.7167,-3.5526,-3.3171,0.0,0.0,0.0,-3.4434,-3.5215,-3.5508,-3.6113,-3.6387,-3.6406,-3.666,-3.6601,-3.6406,-3.668,-3.6758,-3.6758,-3.6758,-3.6758,-3.6758,-3.6758,-3.6735,-3.6604,-3.6095,-3.5862,-3.5792,-3.5792,-3.5792,-3.5792,-3.5792,-3.5792,-3.5802,-3.5914,-3.5939,-3.5945,-3.5996,-3.5996,-3.5996,-3.5996,-3.5996,-3.5996,-3.5996,-3.5996,-3.5996,-3.5996,0.0,0.0,0.0,-3.5996,0.0,-3.4805,-3.3711,-3.2812,-3.2266,-3.1172,0.0,0.0,0.0,0.0,0.0,0.0,0.0,0.0,0.0,0.0,0.0,-3.5566,-3.5996,-3.6016,-3.7519,-3.8359,-3.8652,-4.041,-4.1191,-4.1191,-4.1191,-4.1191,-4.1191,-4.1191,-4.1191,-4.1191,-4.1191,-4.1191,-4.1191,-4.1191,-4.1191,-4.1191,-4.4824,-4.498,-4.5234,-4.6113,-4.6269,-4.5664,-4.3945,-4.4433,-4.4687,-4.3808,-4.4433,-4.498,-4.5019,-4.5781,-4.5605,-4.3848,-4.3223,-4.2422,-4.1289,-4.1191,-4.1191,0.0,0.0,-4.1191,-4.1191,-4.0351,-3.9883,-3.9863,0.0,0.0,-3.5937,0.0,-3.4668,-3.4707,-3.5586,-3.6465,-3.7266,-3.7285,-3.7285,-3.7363,-3.8223,-3.8047,-3.7383,-3.8242,-3.8574,-3.8574,-3.8574,-3.8574,-3.8574,-3.8574,-3.8574,-3.8262,-3.6543,-3.5996,-3.5996,-3.5996,-3.5996,-3.5996,-3.5996,-3.5996,-3.5996,-3.5996,-3.5996,-3.5996,-3.5996,-3.5996,-3.5996,-3.5996,-3.5996,-3.5996,-3.5996,-3.5996,-3.5996,-3.5996,0.0,0.0,0.0,-3.5996,0.0,-3.4805,-3.3223,-3.2207,-3.2207,-3.0625,0.0,0.0,0.0,0.0,0.0,0.0,0.0,-3.4629,-3.4707,0.0,-3.4707,-3.5566,-3.5996,-3.6016,-3.6894,-3.7773,-3.8652,-4.041,-4.1191,-4.1191,-4.1191,-4.1191,-4.1191,-4.1191,-4.1191,-4.1191,-4.1191,-4.1191,-4.1191,-4.1191,-4.1191,-4.1191,-4.582,-4.5898,-4.5976,-4.625,-4.5801,-4.5039,-4.3887,-4.3945,-4.4004,-4.373,-4.4453,-4.5234,-4.582,-4.6133,-4.5605,0.0,-4.3203,-4.2422,0.0,-4.1191,-4.1191,-4.1191,-4.1191,-4.1191,-4.1191,-4.0937,-4.0508,-3.9902,0.0,0.0,0.0,-3.748,-3.7363,-3.7363,-3.7656,-3.793,-3.8184,-3.8184,-3.8184,-3.8203,-3.8496,-3.8437,-3.8223,-3.8496,-3.8594,-3.8594,-3.8594,-3.8594,-3.8594,-3.8594,-3.8594,-3.8496,-3.7949,-3.7363,-3.6894,-3.6894,-3.6465,-3.5996,-3.5996,-3.5996,-3.5996,-3.5996,-3.5996,-3.5996,-3.5996,-3.5996,-3.5996,-3.5996,-3.5996,-3.5996,-3.5996,-3.5996,-3.5996,-3.5996,-3.5996,0.0,0.0,0.0,-3.5898,-3.5625,-3.459,-3.3906,0.0,-3.2851,0.0,0.0,0.0,0.0,0.0,0.0,0.0,0.0,-3.4961,0.0,-3.4707,-3.5566,-3.5996,-3.6016,-3.748,-3.8945,-4.0391,-4.0957,-4.1191,-4.1191,-4.1191,-4.1191,-4.1191,-4.1191,-4.1191,-4.1191,-4.1191,-4.1191,-4.1191,-4.1191,-4.1191,-4.1191,-4.6308,-4.6308,-4.6308,-4.6308,-4.5859,-4.5078,-4.3887,-4.4258,-4.4433,-4.3789,-4.4746,-4.5703,-4.623,-4.6308,0.0,-4.418,-4.2949,-4.1953,-4.125,-4.1191,-4.1191,-4.1191,-4.1191,-4.1191,-4.1191,0.0,0.0,-4.0391,-4.0059,-3.9629,-3.9082,-3.875,-3.8594,-3.8594,-3.8594,-3.8789,-3.9082,-3.9082,-3.9082,-3.9121,-3.9434,-3.9375,-3.9121,-3.9453,-3.957,-3.957,-3.957,-3.957,-3.957,-3.957,-3.957,-3.957,-3.957,-3.8984,-3.8144,-3.748,-3.6914,-3.6426,-3.6094,-3.5996,-3.5996,-3.5996,-3.5996,-3.5996,-3.5996,-3.5996,-3.5996,-3.5996,-3.5996,-3.5996,-3.5996,-3.5996,-3.5996,-3.5996,-3.5996,-3.5996,-3.5996,0.0,-3.5879,0.0,0.0,0.0,0.0,-3.4023,-3.3887,0.0,0.0,0.0,0.0,0.0,0.0,-3.4375,-3.543,0.0,-3.5195,-3.6055,-3.6484,-3.6504,-3.8262,-3.9668,-4.0723,-4.1055,-4.1191,-4.1191,-4.1191,-4.1191,-4.1191,-4.1191,-4.1191,-4.1191,-4.1191,-4.1191,-4.1191,-4.1191,-4.1191,-4.1191,-4.6308,-4.6308,0.0,0.0,-4.625,0.0,-4.4043,-4.5117,-4.5566,-4.3984,-4.5195,-4.623,-4.6289,-4.6308,-4.5879,-4.4805,0.0,0.0,0.0,-4.1191,-4.1191,-4.1191,-4.1191,-4.1191,-4.1191,-4.1191,-4.1191,-4.1191,-4.0391,-3.998,-3.9961,-3.916,-3.8789,-3.8789,-3.8789,-3.9238,-3.998,-3.998,-3.998,-4.0059,-4.0879,-4.0703,-4.0078,-4.0898,-4.1191,-4.1191,-4.1191,-4.1191,-4.1191,-4.1191,-4.1191,-4.1191,-4.1191,-4.0644,-3.9668,-3.7969,-3.7441,-3.7207,-3.6328,-3.6094,-3.6074,-3.6016,-3.5996,-3.5996,-3.5996,-3.5996,-3.5996,-3.5996,-3.5996,-3.5996,-3.5996,-3.5996,-3.5996,-3.5996,-3.5996,-3.5996,-3.5996,0.0,-3.5703,0.0,0.0,0.0,0.0,-3.4316,-3.4766,0.0,0.0,0.0,0.0,0.0,-3.4258,-3.5957,-3.5996,-3.5996,-3.5996,-3.6855,-3.7363,-3.75,-3.9121,-3.9922,-4.0019,-4.082,-4.1191,-4.1191,-4.1191,-4.1191,-4.1191,-4.1191,-4.1191,-4.1191,-4.1191,-4.1191,-4.1191,-4.1191,-4.1191,-4.1191,0.0,0.0,-4.6308,-4.6308,-4.5742,-4.5176,-4.4766,-4.4473,-4.4414,-4.4668,-4.5058,-4.5566,-4.623,-4.6308,-4.6191,-4.5918,-4.4199,-4.2578,-4.1289,-4.1191,-4.1191,-4.1191,-4.1191,-4.1191,-4.1191,-4.1191,-4.1191,-4.1191,-4.0996,-4.0898,-4.0898,-4.0684,-4.0586,-4.0586,-4.0586,-4.0703,-4.0898,-4.0898,-4.0898,-4.0918,-4.1113,-4.1074,-4.0918,-4.1113,-4.1191,-4.1191,-4.1191,-4.1191,-4.1191,-4.1191,-4.1191,-4.1191,-4.1191,-4.1055,-4.0684,-3.9609,-3.8809,-3.8105,-3.7226,-3.6992,-3.6836,-3.6172,-3.5996,-3.5996,-3.5996,-3.5996,-3.5996,-3.5996,-3.5996,-3.5996,-3.5996,-3.5996,-3.5996,-3.5996,-3.5996,-3.5996,-3.5996,-3.5996,0.0,0.0,-3.5684,-3.5605,-3.5391,-3.5566,-3.543,0.0,0.0,0.0,0.0,-3.4629,-3.4883,-3.5976,-3.5996,-3.5996,-3.5996,-3.6855,-3.7969,-3.9297,-3.9707,-4.0254,-4.0898,-4.1113,-4.1191,-4.1191,-4.1191,-4.1191,-4.1191,-4.1191,-4.1191,-4.1191,-4.1191,-4.1191,-4.1191,-4.1191,-4.1191,-4.1191,-4.6308,-4.6308,-4.6308,-4.6308,-4.5918,-4.5469,-4.5058,-4.4941,-4.4922,-4.498,-4.5351,-4.5762,-4.625,-4.6308,-4.6308,-4.6308,-4.543,-4.3848,-4.1367,-4.1543,-4.1582,-4.1211,-4.1191,-4.1191,-4.1191,-4.1191,-4.1191,-4.1191,-4.1191,-4.1191,-4.1191,-4.1191,-4.1191,-4.1191,-4.1191,-4.1191,-4.1191,-4.1191,-4.1191,-4.1191,-4.1191,-4.1191,-4.1191,-4.1191,-4.1191,-4.1191,-4.1191,-4.1191,-4.1191,-4.1191,-4.1191,-4.1191,-4.1191,-4.1191,-4.1113,-4.0625,-3.9883,-3.9004,-3.8125,-3.7598,-3.709,-3.6211,-3.5996,-3.5996,-3.5996,-3.5996,-3.5996,-3.5996,-3.5996,-3.5996,-3.5996,-3.5996,-3.5996,-3.5996,-3.5996,-3.5996,-3.5996,-3.5996,0.0,-3.5996,-3.5996,-3.5996,-3.5996,-3.5996,-3.5801,-3.5332,-3.5293,0.0,-3.5293,-3.5293,-3.5508,-3.5996,-3.5996,-3.6191,-3.6582,-3.7851,-3.916,-4.0488,-4.0488,-4.0742,-4.1191,-4.1191,-4.1191,-4.1191,-4.1191,-4.1191,-4.1191,-4.1191,-4.1191,-4.1191,-4.1191,-4.1191,-4.1191,-4.1191,-4.1191,-4.1191,-4.6308,-4.6308,-4.6308,-4.6308,-4.6308,-4.6055,-4.5312,-4.582,-4.6035,-4.5293,-4.584,-4.6308,-4.6308,-4.6308,-4.6308,-4.6308,-4.6308,-4.4961,-4.1777,-4.209,-4.2031,-4.123,-4.1191,-4.1269,-4.1387,-4.1387,-4.1387,-4.1387,-4.1269,-4.1191,-4.1191,-4.1191,-4.1191,-4.1191,-4.1191,-4.1191,-4.1191,-4.1191,-4.1191,-4.1191,-4.1191,-4.1191,-4.1191,-4.1191,-4.1191,-4.1191,-4.1191,-4.1191,-4.1191,-4.1191,-4.1191,-4.1191,-4.1191,-4.1191,-4.1191,-4.1191,-4.0684,-3.9902,-3.9023,-3.8164,-3.7285,-3.6406,-3.6191,-3.6152,-3.6035,-3.5996,-3.5996,-3.5996,-3.5996,-3.5996,-3.5996,-3.5996,-3.5996,-3.5996,-3.5996,-3.5996,-3.5996,0.0,-3.5996,-3.5996,-3.5996,-3.5996,-3.5996,-3.5996,-3.5996,-3.5996,-3.5996,-3.5996,0.0,-3.5996,-3.5996,-3.5996,-3.5996,-3.6484,-3.748,-3.9082,-4.0332,-4.1191,-4.1191,-4.1191,-4.1191,-4.1191,-4.1191,-4.1191,-4.1191,-4.1191,-4.1191,-4.1191,-4.1191,-4.1191,-4.1191,-4.1191,-4.1191,-4.1191,-4.1191,-4.1191,-4.6308,-4.6308,-4.6308,-4.6308,-4.6308,-4.625,-4.6113,-4.6211,-4.625,-4.6113,-4.6211,-4.6308,-4.6308,-4.6308,-4.6308,-4.6308,-4.6308,-4.5449,-4.3437,-4.2734,-4.2031,-4.123,-4.1191,-4.1523,-4.2207,-4.2207,-4.2207,-4.2207,-4.1523,-4.1191,-4.1191,-4.1191,-4.1191,-4.1191,-4.1191,-4.1191,-4.1191,-4.1191,-4.1191,-4.1191,-4.1191,-4.1191,-4.1191,-4.1191,-4.1191,-4.1191,-4.1191,-4.1191,-4.1191,-4.1191,-4.1191,-4.1191,-4.1191,-4.1191,-4.1191,-4.1191,-4.1094,-4.0801,-3.9941,-3.9062,-3.8184,-3.7324,-3.7109,-3.6914,-3.6172,-3.5996,-3.5996,-3.5996,-3.5996,-3.5996,-3.5996,-3.5996,-3.5996,-3.5996,-3.5996,-3.5996,-3.5996,0.0,-3.5996,-3.5996,-3.5996,-3.5996,-3.5996,-3.5996,-3.5996,-3.5996,-3.5996,-3.5996,-3.5996,-3.5996,-3.5996,-3.5996,-3.5996,-3.6777,-3.8379,-3.9394,-4.0332,-4.1191,-4.1191,-4.1191,-4.1191,-4.1191,-4.1191,-4.1191,-4.1191,-4.1191,-4.1191,-4.1191,-4.1191,-4.1191,-4.1191,-4.1191,-4.1191,-4.1191,-4.1191,-4.1191,-4.6308,-4.6308,-4.6308,-4.6308,-4.6308,-4.6308,-4.6308,-4.6308,-4.6308,-4.6308,-4.6308,-4.6308,-4.6308,-4.6308,-4.6307,-4.6297,-4.6309,-4.5964,-4.5156,-4.4277,-4.3437,-4.2578,-4.2558,-4.2715,-4.3086,-4.2637,-4.2402,-4.2402,-4.1582,-4.1191,-4.1191,-4.1191,-4.1191,-4.1191,-4.1191,-4.1191,-4.1191,-4.1191,-4.1445,-4.1816,-4.1367,-4.1465,-4.1797,-4.1367,-4.1465,-4.1855,-4.1855,-4.1855,-4.1855,-4.1855,-4.1562,-4.1191,-4.1191,-4.1191,-4.1191,-4.1191,-4.1191,-4.1016,-4.0137,-3.9609,-3.9082,-3.8223,-3.7656,-3.7187,-3.6797,-3.6348,-3.5996,-3.5996,-3.5996,-3.5996,-3.5996,-3.5996,-3.5996,-3.5996,-3.5996,0.0,0.0,-3.5996,-3.5996,-3.5996,-3.5996,-3.5996,-3.5996,-3.5996,-3.5996,-3.5996,-3.5996,-3.5996,-3.5996,-3.5996,-3.5996,-3.5996,-3.6914,-3.8008,-3.9297,-4.0156,-4.0801,-4.1191,-4.1191,-4.1191,-4.1191,-4.1191,-4.1191,-4.1191,-4.1191,-4.1191,-4.1191,-4.1191,-4.1191,-4.1191,-4.1191,-4.1191,-4.1191,-4.1191,-4.1191,-4.1191,-4.6202,-4.6202,-4.6202,-4.6202,-4.6202,-4.6202,-4.6202,-4.6202,-4.6202,-4.6202,-4.6202,-4.6202,-4.6202,-4.6221,-4.6269,-4.6306,-4.6245,-4.6181,-4.6134,-4.5617,-4.4881,-4.3945,-4.3965,-4.4004,-4.4004,-4.3359,-4.3008,-4.3008,-4.2187,-4.1777,-4.1777,-4.1777,-4.1777,-4.1777,-4.1562,-4.1582,-4.1777,-4.1562,-4.1953,-4.2656,-4.2031,-4.2148,-4.2637,-4.2012,-4.2168,-4.2695,-4.2695,-4.2695,-4.2695,-4.2695,-4.2168,-4.1484,-4.1484,-4.1348,-4.1191,-4.1191,-4.1191,-4.1055,-4.0371,-4.0195,-3.998,-3.9121,-3.8398,-3.7851,-3.7656,-3.707,-3.6601,-3.6601,-3.6581,-3.6561,-3.6601,-3.6404,-3.6243,-3.6267,0.0,0.0,0.0,-3.593,-3.593,-3.593,-3.5953,-3.5975,-3.5975,-3.5996,-3.5996,-3.5996,-3.5996,-3.5996,-3.5996,-3.5996,-3.6191,-3.6582,-3.7891,-3.9023,-3.9883,-4.0762,-4.1191,-4.1191,-4.1191,-4.1191,-4.1191,-4.1191,-4.1191,-4.1191,-4.1191,-4.1191,-4.1191,-4.1191,-4.1191,-4.1191,-4.1191,-4.1191,-4.1191,-4.1191,-4.1191,-4.1191,-4.5924,-4.5924,-4.5924,-4.5924,-4.5924,-4.5924,-4.5924,-4.5924,-4.5924,-4.5924,-4.5924,-4.5924,-4.5924,-4.6041,-4.6158,-4.6286,-4.6067,-4.5842,-4.567,-4.6006,-4.5709,-4.457,-4.4766,-4.4902,-4.4902,-4.4844,-4.4805,-4.4805,-4.3945,-4.3516,-4.3516,-4.3516,-4.3516,-4.3476,-4.2676,-4.2754,-4.3457,-4.2656,-4.2812,-4.3594,-4.3535,-4.3555,-4.3594,-4.3535,-4.3555,-4.3594,-4.3594,-4.3594,-4.3594,-4.3594,-4.3027,-4.2305,-4.2305,-4.1797,-4.1191,-4.1191,-4.1191,-4.1191,-4.1113,-4.1094,-4.0898,-4.0019,-3.9766,-3.9492,-3.8691,-3.8457,-3.8418,-3.8418,-3.831,-3.8258,-3.8398,-3.7597,-3.6965,-3.7092,0.0,0.0,-3.5723,-3.5723,-3.5723,-3.5723,-3.5821,-3.5907,-3.5907,-3.5952,-3.5996,-3.5996,-3.5996,-3.5996,-3.5996,-3.5996,-3.6738,-3.8359,-3.8535,-3.9023,-3.9883,-4.0762,-4.1191,-4.1191,-4.1191,-4.1191,-4.1191,-4.1191,-4.1191,-4.1191,-4.1191,-4.1191,-4.1191,-4.1191,-4.1191,-4.1191,-4.1191,-4.1191,-4.1191,-4.1191,-4.1191,-4.1191,-4.5899,-4.5877,-4.5857,-4.589,-4.5877,-4.5857,-4.5894,-4.5899,-4.5899,-4.5899,-4.5899,-4.5899,-4.5899,-4.5899,-4.5949,-4.6042,-4.5836,-4.5677,-4.5615,-4.577,-4.5764,-4.5546,-4.5625,-4.5644,-4.5566,-4.5078,-4.4805,-4.4805,-4.3945,-4.3516,-4.3516,-4.3516,-4.3516,-4.3496,-4.3164,-4.3203,-4.3496,-4.3164,-4.3516,-4.4277,-4.3828,-4.3901,-4.427,-4.3865,-4.3981,-4.4377,-4.4377,-4.4377,-4.4374,-4.4321,-4.3806,-4.3123,-4.3049,-4.2498,-4.1758,-4.1122,-4.0955,-4.0955,-4.0955,-4.1,-4.1,-4.0668,-4.018,-3.9686,-3.9301,-3.8832,-3.8453,-3.8419,-3.8369,-3.8357,-3.8407,-3.7647,-3.7011,-3.7069,0.0,-3.5707,-3.5707,-3.5707,-3.5707,-3.5707,-3.5732,-3.5789,-3.5789,-3.5795,-3.5808,-3.5808,-3.5808,-3.5808,-3.5808,-3.5893,-3.6751,-3.8535,-3.8594,-3.9277,-4.0684,-4.1035,-4.1191,-4.1191,-4.1191,-4.1191,-4.1191,-4.1191,-4.1191,-4.1191,-4.1191,-4.1191,-4.1191,-4.1191,-4.1191,-4.1191,-4.1191,-4.1191,-4.1191,-4.1191,-4.1191,-4.1191,-4.5811,-4.577,-4.5757,-4.5799,-4.577,-4.5738,-4.5799,-4.5811,-4.5811,-4.5811,-4.5811,-4.5811,-4.5811,-4.5753,-4.5769,-4.5805,-4.5675,-4.5597,-4.5597,-4.5602,-4.5729,-4.6017,-4.6045,-4.5986,-4.5869,-4.532,-4.5067,-4.5086,-4.4479,-4.4187,-4.4187,-4.4187,-4.4187,-4.4167,-4.3914,-4.3953,-4.4167,-4.3914,-4.4304,-4.5028,-4.4538,-4.4632,-4.5022,-4.458,-4.471,-4.5159,-4.5159,-4.5159,-4.515,-4.5083,-4.4577,-4.3935,-4.3849,-4.3097,-4.2109,-4.14,-4.1011,-4.0797,-4.0797,-4.0847,-4.0916,-4.0922,-4.0499,-4.0034,-3.9991,-3.9559,-3.9132,-3.9089,-3.9064,-3.8969,-3.8758,-3.8169,-3.7569,-3.705,-3.6423,-3.5935,-3.5663,-3.5644,-3.5644,-3.5644,-3.5659,-3.5679,-3.5679,-3.5689,-3.5707,-3.5707,-3.5707,-3.582,-3.6089,-3.6454,-3.7357,-3.887,-3.9192,-3.9937,-4.1129,-4.1171,-4.1191,-4.1191,-4.1191,-4.1191,-4.1191,-4.1191,-4.1191,-4.1191,-4.1191,-4.1191,-4.1191,-4.1191,-4.1191,-4.1191,-4.1191,-4.1191,-4.1191,-4.1191,-4.1191,-4.1191,-4.5594,-4.5594,-4.5594,-4.5594,-4.5594,-4.5594,-4.5594,-4.5594,-4.5594,-4.5594,-4.5594,-4.5594,-4.5594,-4.5594,-4.5594,-4.5594,-4.5594,-4.5594,-4.5594,-4.5594,-4.5691,-4.5892,-4.5911,-4.5873,-4.5787,-4.5787,-4.5834,-4.5911,-4.5911,-4.5911,-4.5911,-4.5911,-4.5911,-4.5853,-4.5058,-4.5154,-4.5853,-4.5058,-4.5173,-4.5911,-4.5911,-4.5893,-4.5907,-4.5909,-4.5899,-4.5899,-4.5899,-4.5899,-4.5899,-4.5899,-4.5369,-4.4703,-4.4703,-4.3512,-4.2112,-4.2112,-4.1494,-4.0817,-4.0817,-4.0747,-4.0713,-4.0788,-4.0797,-4.0797,-4.0797,-4.0797,-4.0797,-4.0797,-4.0738,-4.0472,-3.9731,-3.9447,-3.8791,-3.7174,-3.6806,-3.6423,-3.5615,-3.5519,-3.5519,-3.55,-3.5556,-3.5605,-3.5605,-3.5663,-3.5703,-3.5703,-3.5703,-3.6089,-3.6954,-3.7836,-3.8692,-3.9564,-4.0493,-4.0994,-4.0994,-4.1128,-4.1191,-4.1191,-4.1191,-4.1191,-4.1191,-4.1191,-4.1191,-4.1191,-4.1191,-4.1191,-4.1191,-4.1191,-4.1191,-4.1191,-4.1191,-4.1191,-4.1191,-4.1191,-4.1191,-4.1171,-4.5594,-4.5594,-4.5594,-4.5594,-4.5594,-4.5594,-4.5594,-4.5594,-4.5594,-4.5594,-4.5594,-4.5594,-4.5594,-4.5594,-4.5594,-4.5594,-4.5594,-4.5594,-4.5594,-4.5594,-4.5633,-4.5691,-4.5691,-4.5671,-4.5652,-4.5652,-4.5671,-4.5691,-4.5691,-4.5691,-4.5691,-4.5691,-4.5691,-4.5671,-4.5432,-4.5451,-4.5671,-4.5432,-4.547,-4.5691,-4.5787,-4.578,-4.5711,-4.5842,-4.5867,-4.5832,-4.5832,-4.5832,-4.582,-4.5715,-4.5595,-4.5367,-4.4746,-4.4144,-4.3525,-4.2965,-4.2181,-4.1505,-4.1505,-4.1045,-4.0589,-4.0693,-4.0726,-4.0699,-4.061,-4.0653,-4.0699,-4.061,-4.0563,-4.0484,-4.0269,-3.973,-3.9145,-3.867,-3.805,-3.7315,-3.6462,-3.6346,-3.6135,-3.5577,-3.5528,-3.5522,-3.5522,-3.5546,-3.5556,-3.5556,-3.6078,-3.6568,-3.6915,-3.7715,-3.8593,-3.956,-3.9866,-4.0292,-4.0841,-4.1081,-4.1191,-4.1191,-4.1191,-4.115,-4.1055,-4.1055,-4.1017,-4.0917,-4.0917,-4.0917,-4.0917,-4.0917,-4.0917,-4.0917,-4.0917,-4.0917,-4.0917,-4.0917,-4.0917,-4.0914,-4.5594,-4.5594,-4.5594,-4.5594,-4.5594,-4.5594,-4.5594,-4.5594,-4.5594,-4.5594,-4.5594,-4.5594,-4.5594,-4.5594,-4.5594,-4.5594,-4.5594,-4.5594,-4.5594,-4.5594,-4.5594,-4.5594,-4.5594,-4.5594,-4.5594,-4.5594,-4.5594,-4.5594,-4.5594,-4.5594,-4.5594,-4.5594,-4.5594,-4.5594,-4.5594,-4.5594,-4.5594,-4.5594,-4.5594,-4.5614,-4.5691,-4.5671,-4.5601,-4.5737,-4.577,-4.573,-4.573,-4.573,-4.5708,-4.5637,-4.564,-4.5633,-4.5092,-4.4643,-4.4201,-4.372,-4.2989,-4.2316,-4.2316,-4.1931,-4.1463,-4.1207,-4.0874,-4.0596,-4.0519,-4.0566,-4.0596,-4.0519,-4.0496,-4.04,-4.0073,-3.99,-3.9554,-3.8892,-3.8623,-3.82,-3.7334,-3.7219,-3.7026,-3.6538,-3.6481,-3.6346,-3.6,-3.5962,-3.5962,-3.5962,-3.6731,-3.7403,-3.7829,-3.8318,-3.8999,-3.9924,-4.0014,-4.0276,-4.0767,-4.0947,-4.1049,-4.1049,-4.1049,-4.0996,-4.092,-4.092,-4.0874,-4.0797,-4.0797,-4.0797,-4.0797,-4.0797,-4.0797,-4.0797,-4.0797,-4.0797,-4.0797,-4.0797,-4.0797,-4.0793,-4.5594,-4.5594,-4.5594,-4.5594,-4.5594,-4.5594,-4.5594,-4.5594,-4.5594,-4.5594,-4.5594,-4.5594,-4.5594,-4.5594,-4.5594,-4.5594,-4.5594,-4.5594,-4.5594,-4.5594,-4.5594,-4.5594,-4.5594,-4.5594,-4.5594,-4.5594,-4.5594,-4.5594,-4.5594,-4.5594,-4.5594,-4.5594,-4.5594,-4.5594,-4.5594,-4.5594,-4.5594,-4.5594,-4.5594,-4.5594,-4.5594,-4.5594,-4.5594,-4.5594,-4.5594,-4.5594,-4.5594,-4.5594,-4.5594,-4.5594,-4.5594,-4.5594,-4.5594,-4.5056,-4.4412,-4.4412,-4.3835,-4.3201,-4.3201,-4.3143,-4.2912,-4.2104,-4.1258,-4.0593,-4.0516,-4.0496,-4.0496,-4.0496,-4.0496,-4.0285,-3.9534,-4.0015,-3.9996,-3.8469,-3.8892,-3.9111,-3.8238,-3.8123,-3.8084,-3.8007,-3.8007,-3.77,-3.6885,-3.6808,-3.6808,-3.6808,-3.7623,-3.845,-3.9265,-3.9381,-3.9746,-4.0477,-4.0623,-4.068,-4.068,-4.0733,-4.0781,-4.0797,-4.0797,-4.0793,-4.0785,-4.0785,-4.0777,-4.0768,-4.0768,-4.0768,-4.0768,-4.0768,-4.0768,-4.0768,-4.0768,-4.0768,-4.0768,-4.0768,-4.0768,-4.0755,-4.5594,-4.5594,-4.5594,-4.5594,-4.5594,-4.5594,-4.5594,-4.5594,-4.5594,-4.5594,-4.5594,-4.5594,-4.5594,-4.5594,-4.5594,-4.5594,-4.5594,-4.5594,-4.5594,-4.5594,-4.5594,-4.5594,-4.5594,-4.5594,-4.5594,-4.5594,-4.5594,-4.5594,-4.5594,-4.5594,-4.5594,-4.5594,-4.5594,-4.5594,-4.5594,-4.5594,-4.5594,-4.5594,-4.5594,-4.5594,-4.5594,-4.5594,-4.5594,-4.5594,-4.5594,-4.5594,-4.5594,-4.5594,-4.5594,-4.5594,-4.5594,-4.5594,-4.5594,-4.5479,-4.5325,-4.5325,-4.4701,-4.4047,-4.4047,-4.3585,-4.3047,-4.2874,-4.2162,-4.1335,-4.0669,-4.0496,-4.0496,-4.0496,-4.0496,-4.0458,-4.0265,-4.0381,-4.0381,-4.0015,-4.0131,-3.9958,-3.913,-3.9015,-3.8757,-3.8084,-3.8007,-3.793,-3.7738,-3.7719,-3.7719,-3.7719,-3.8527,-3.9111,-3.9284,-3.99,-4.0323,-4.0496,-4.0534,-4.0537,-4.0537,-4.0561,-4.0633,-4.0797,-4.0797,-4.077,-4.0729,-4.0729,-4.0666,-4.0563,-4.0563,-4.0563,-4.0563,-4.0563,-4.0563,-4.0563,-4.0563,-4.0563,-4.0563,-4.0563,-4.0563,-4.0556,-4.5594,-4.5594,-4.5594,-4.5594,-4.5594,-4.5594,-4.5594,-4.5594,-4.5594,-4.5594,-4.5594,-4.5594,-4.5594,-4.5594,-4.5594,-4.5594,-4.5594,-4.5594,-4.5594,-4.5594,-4.5594,-4.5594,-4.5594,-4.5594,-4.5594,-4.5594,-4.5594,-4.5594,-4.5594,-4.5594,-4.5594,-4.5594,-4.5594,-4.5594,-4.5594,-4.5594,-4.5594,-4.5594,-4.5594,-4.5594,-4.5594,-4.5594,-4.5594,-4.5594,-4.5594,-4.5594,-4.5594,-4.5594,-4.5594,-4.5594,-4.5594,-4.5594,-4.5594,-4.5594,-4.5594,-4.5594,-4.5287,-4.4921,-4.4921,-4.4605,-4.4182,-4.3778,-4.3335,-4.2662,-4.1412,-4.0804,-4.0496,-4.0496,-4.0496,-4.0496,-4.0496,-4.0496,-4.0496,-4.0496,-4.0496,-4.0342,-3.9938,-3.9881,-3.9708,-3.9238,-3.9181,-3.9046,-3.8661,-3.8623,-3.8623,-3.8623,-3.94,-3.9881,-3.9881,-4.0265,-4.0496,-4.0496,-4.0496,-4.0496,-4.0496,-4.0496,-4.0561,-4.0657,-4.0657,-4.0629,-4.0603,-4.0603,-4.0574,-4.0496,-4.0496,-4.0496,-4.0496,-4.0496,-4.0496,-4.0496,-4.0496,-4.0496,-4.0496,-4.0496,-4.0496,-4.0496,-4.5594,-4.5594,-4.5594,-4.5594,-4.5594,-4.5594,-4.5594,-4.5594,-4.5594,-4.5594,-4.5594,-4.5594,-4.5594,-4.5594,-4.5594,-4.5594,-4.5594,-4.5594,-4.5594,-4.5594,-4.5594,-4.5594,-4.5594,-4.5594,-4.5594,-4.5594,-4.5594,-4.5594,-4.5594,-4.5594,-4.5594,-4.5594,-4.5594,-4.5594,-4.5594,-4.5594,-4.5594,-4.5594,-4.5594,-4.5594,-4.5594,-4.5594,-4.5594,-4.5594,-4.5594,-4.5594,-4.5594,-4.5594,-4.5594,-4.5594,-4.5594,-4.5594,-4.5594,-4.5594,-4.5594,-4.5594,-4.5594,-4.5594,-4.5594,-4.5594,-4.5441,-4.4701,-4.4412,-4.3932,-4.2547,-4.145,-4.0689,-4.0535,-4.0496,-4.0496,-4.0496,-4.0496,-4.0496,-4.0496,-4.0496,-4.0496,-4.0496,-4.0496,-4.0496,-4.0496,-4.0496,-4.0246,-3.9573,-3.9515,-3.9515,-3.9515,-4.0131,-4.0496,-4.0496,-4.0496,-4.0496,-4.0496,-4.0496,-4.0496,-4.0496,-4.0496,-4.0496,-4.0496,-4.0496,-4.0496,-4.0496,-4.0496,-4.0496,-4.0496,-4.0496,-4.0496,-4.0496,-4.0496,-4.0496,-4.0496,-4.0496,-4.0496,-4.0496,-4.0496,-4.0496,-4.0496,-4.5594,-4.5594,-4.5594,-4.5594,-4.5594,-4.5594,-4.5594,-4.5594,-4.5594,-4.5594,-4.5594,-4.5594,-4.5594,-4.5594,-4.5594,-4.5594,-4.5594,-4.5594,-4.5594,-4.5594,-4.5594,-4.5594,-4.5594,-4.5594,-4.5594,-4.5594,-4.5594,-4.5594,-4.5594,-4.5594,-4.5594,-4.5594,-4.5594,-4.5594,-4.5594,-4.5594,-4.5594,-4.5594,-4.5594,-4.5594,-4.5594,-4.5594,-4.5594,-4.5594,-4.5594,-4.5594,-4.5594,-4.5594,-4.5594,-4.5594,-4.5594,-4.5594,-4.5594,-4.5594,-4.5594,-4.5594,-4.5594,-4.5594,-4.5594,-4.5594,-4.5575,-4.546,-4.4855,-4.4239,-4.4008,-4.2758,-4.1412,-4.0669,-4.0496,-4.0496,-4.0496,-4.0496,-4.0496,-4.0496,-4.0496,-4.0496,-4.0496,-4.0496,-4.0496,-4.0496,-4.0496,-4.0458,-4.0342,-4.0342,-4.0342,-4.0342,-4.0439,-4.0496,-4.0496,-4.0496,-4.0496,-4.0496,-4.0496,-4.0496,-4.0496,-4.0496,-4.0496,-4.0496,-4.0496,-4.0496,-4.0496,-4.0496,-4.0496,-4.0496,-4.0496,-4.0496,-4.0496,-4.0496,-4.0496,-4.0496,-4.0496,-4.0496,-4.0496,-4.0496,-4.0496,-4.0496,-4.5594,-4.5594,-4.5594,-4.5594,-4.5594,-4.5594,-4.5594,-4.5594,-4.5594,-4.5594,-4.5594,-4.5594,-4.5594,-4.5594,-4.5594,-4.5594,-4.5594,-4.5594,-4.5594,-4.5594,-4.5594,-4.5594,-4.5594,-4.5594,-4.5594,-4.5594,-4.5594,-4.5594,-4.5594,-4.5594,-4.5594,-4.5594,-4.5594,-4.5594,-4.5594,-4.5594,-4.5594,-4.5594,-4.5594,-4.5594,-4.5594,-4.5594,-4.5594,-4.5594,-4.5594,-4.5594,-4.5594,-4.5594,-4.5594,-4.5594,-4.5594,-4.5594,-4.5594,-4.5594,-4.5594,-4.5594,-4.5594,-4.5594,-4.5594,-4.5594,-4.5594,-4.5594,-4.5306,-4.4893,-4.4412,-4.372,-4.2816,-4.1508,-4.0843,-4.0496,-4.0496,-4.0496,-4.0496,-4.0496,-4.0496,-4.0496,-4.0496,-4.0496,-4.0496,-4.0496,-4.0496,-4.0496,-4.0496,-4.0496,-4.0496,-4.0496,-4.0496,-4.0496,-4.0496,-4.0496,-4.0496,-4.0496,-4.0496,-4.0496,-4.0496,-4.0496,-4.0496,-4.0496,-4.0496,-4.0496,-4.0496,-4.0496,-4.0496,-4.0496,-4.0496,-4.0496,-4.0496,-4.0496,-4.0496,-4.0496,-4.0496,-4.0496,-4.0496,-4.0496,-4.0496,-4.0496]},{"header":{"parameterUnit":"m.s-1","parameterCategory":1,"la1":30.6,"la2":28.766,"lo1":-90.7593,"lo2":-88.6598,"dy":0.0162,"dx":0.0183,"nx":116,"ny":114,"refTime":"2024-06-07T06:00:00:Z","depth":0,"parameterNumber":3,"parameterNumberName":"V-component_of_WINDS"},"data":[0.0,0.0,0.0,0.0,0.0,0.0,0.0,0.0,0.0,0.0,0.0,0.0,0.0,0.0,0.0,0.0,0.0,0.0,0.0,0.0,0.0,0.0,0.0,0.0,0.0,0.0,0.0,0.0,0.0,0.0,0.0,0.0,0.0,0.0,0.0,0.0,0.0,0.0,0.0,0.0,0.0,0.0,0.0,0.0,0.0,0.0,0.0,0.0,0.0,0.0,0.0,0.0,0.0,0.0,0.0,0.0,0.0,0.0,0.0,0.0,0.0,0.0,0.0,0.0,0.0,0.0,0.0,0.0,0.0,0.0,0.0,0.0,0.0,0.0,0.0,0.0,0.0,0.0,0.0,0.0,0.0,0.0,0.0,0.0,0.0,0.0,0.0,0.0,0.0,0.0,0.0,0.0,0.0,0.0,0.0,0.0,0.0,0.0,0.0,0.0,0.0,0.0,0.0,0.0,0.0,0.0,0.0,0.0,0.0,0.0,0.0,0.0,0.0,0.0,0.0,0.0,0.0,0.0,0.0,0.0,0.0,0.0,0.0,0.0,0.0,0.0,0.0,0.0,0.0,0.0,0.0,0.0,0.0,0.0,0.0,0.0,0.0,0.0,0.0,0.0,0.0,0.0,0.0,0.0,0.0,0.0,0.0,0.0,0.0,0.0,0.0,0.0,0.0,0.0,0.0,0.0,0.0,0.0,0.0,0.0,0.0,0.0,0.0,0.0,0.0,0.0,0.0,0.0,0.0,0.0,0.0,0.0,0.0,0.0,0.0,0.0,0.0,0.0,0.0,0.0,0.0,0.0,0.0,0.0,0.0,0.0,0.0,0.0,0.0,0.0,0.0,0.0,0.0,0.0,0.0,0.0,0.0,0.0,0.0,0.0,0.0,0.0,0.0,0.0,0.0,0.0,0.0,0.0,0.0,0.0,0.0,0.0,0.0,0.0,0.0,0.0,0.0,0.0,0.0,0.0,0.0,0.0,0.0,0.0,0.0,0.0,0.0,0.0,0.0,0.0,0.0,0.0,0.0,0.0,0.0,0.0,0.0,0.0,0.0,0.0,0.0,0.0,0.0,0.0,0.0,0.0,0.0,0.0,0.0,0.0,0.0,0.0,0.0,0.0,0.0,0.0,0.0,0.0,0.0,0.0,0.0,0.0,0.0,0.0,0.0,0.0,0.0,0.0,0.0,0.0,0.0,0.0,0.0,0.0,0.0,0.0,0.0,0.0,0.0,0.0,0.0,0.0,0.0,0.0,0.0,0.0,0.0,0.0,0.0,0.0,0.0,0.0,0.0,0.0,0.0,0.0,0.0,0.0,0.0,0.0,0.0,0.0,0.0,0.0,0.0,0.0,0.0,0.0,0.0,0.0,0.0,0.0,0.0,0.0,0.0,0.0,0.0,0.0,0.0,0.0,0.0,0.0,0.0,0.0,0.0,0.0,0.0,0.0,0.0,0.0,0.0,0.0,0.0,0.0,0.0,0.0,0.0,0.0,0.0,0.0,0.0,0.0,0.0,0.0,0.0,0.0,0.0,0.0,0.0,0.0,0.0,0.0,0.0,0.0,0.0,0.0,0.0,0.0,0.0,0.0,0.0,0.0,0.0,0.0,0.0,0.0,0.0,0.0,0.0,0.0,0.0,0.0,0.0,0.0,0.0,0.0,0.0,0.0,0.0,0.0,0.0,0.0,0.0,0.0,0.0,0.0,0.0,0.0,0.0,0.0,0.0,0.0,0.0,0.0,0.0,0.0,0.0,0.0,0.0,0.0,0.0,0.0,0.0,0.0,0.0,0.0,0.0,0.0,0.0,0.0,0.0,0.0,0.0,0.0,0.0,0.0,0.0,0.0,0.0,0.0,0.0,0.0,0.0,0.0,0.0,0.0,0.0,0.0,0.0,0.0,0.0,0.0,0.0,0.0,0.0,0.0,0.0,0.0,0.0,0.0,0.0,0.0,0.0,0.0,0.0,0.0,0.0,0.0,0.0,0.0,0.0,0.0,0.0,0.0,0.0,0.0,0.0,0.0,0.0,0.0,0.0,0.0,0.0,0.0,0.0,0.0,0.0,0.0,0.0,0.0,0.0,0.0,0.0,0.0,0.0,0.0,0.0,0.0,0.0,0.0,0.0,0.0,0.0,0.0,0.0,0.0,0.0,0.0,0.0,0.0,0.0,0.0,0.0,0.0,0.0,0.0,0.0,0.0,0.0,0.0,0.0,0.0,0.0,0.0,0.0,0.0,0.0,0.0,0.0,0.0,0.0,0.0,0.0,0.0,0.0,0.0,0.0,0.0,0.0,0.0,0.0,0.0,0.0,0.0,0.0,0.0,0.0,0.0,0.0,0.0,0.0,0.0,0.0,0.0,0.0,0.0,0.0,0.0,0.0,0.0,0.0,0.0,0.0,0.0,0.0,0.0,0.0,0.0,0.0,0.0,0.0,0.0,0.0,0.0,0.0,0.0,0.0,0.0,0.0,0.0,0.0,0.0,0.0,0.0,0.0,0.0,0.0,0.0,0.0,0.0,0.0,0.0,0.0,0.0,0.0,0.0,0.0,0.0,0.0,0.0,0.0,0.0,0.0,0.0,0.0,0.0,0.0,0.0,0.0,0.0,0.0,0.0,0.0,0.0,0.0,0.0,0.0,0.0,0.0,0.0,0.0,0.0,0.0,0.0,0.0,0.0,0.0,0.0,0.0,0.0,0.0,0.0,0.0,0.0,0.0,0.0,0.0,0.0,0.0,0.0,0.0,0.0,0.0,0.0,0.0,0.0,0.0,0.0,0.0,0.0,0.0,0.0,0.0,0.0,0.0,0.0,0.0,0.0,0.0,0.0,0.0,0.0,0.0,0.0,0.0,0.0,0.0,0.0,0.0,0.0,0.0,0.0,0.0,0.0,0.0,0.0,0.0,0.0,0.0,0.0,0.0,0.0,0.0,0.0,0.0,0.0,0.0,0.0,0.0,0.0,0.0,0.0,0.0,0.0,0.0,0.0,0.0,0.0,0.0,0.0,0.0,0.0,0.0,0.0,0.0,0.0,0.0,0.0,0.0,0.0,0.0,0.0,0.0,0.0,0.0,0.0,0.0,0.0,0.0,0.0,0.0,0.0,0.0,0.0,0.0,0.0,0.0,0.0,0.0,0.0,0.0,0.0,0.0,0.0,0.0,0.0,0.0,0.0,0.0,0.0,0.0,0.0,0.0,0.0,0.0,0.0,0.0,0.0,0.0,0.0,0.0,0.0,0.0,0.0,0.0,0.0,0.0,0.0,0.0,0.0,0.0,0.0,0.0,0.0,0.0,0.0,0.0,0.0,0.0,0.0,0.0,0.0,0.0,0.0,0.0,0.0,0.0,0.0,0.0,0.0,0.0,0.0,0.0,0.0,0.0,0.0,0.0,0.0,0.0,0.0,0.0,0.0,0.0,0.0,0.0,0.0,0.0,0.0,0.0,0.0,0.0,0.0,0.0,0.0,0.0,0.0,0.0,0.0,0.0,0.0,0.0,0.0,0.0,0.0,0.0,0.0,0.0,0.0,0.0,0.0,0.0,0.0,0.0,0.0,0.0,0.0,0.0,0.0,0.0,0.0,0.0,0.0,0.0,0.0,0.0,0.0,0.0,0.0,0.0,0.0,0.0,0.0,0.0,0.0,0.0,0.0,0.0,0.0,0.0,0.0,0.0,0.0,0.0,0.0,0.0,0.0,0.0,0.0,0.0,0.0,0.0,0.0,0.0,0.0,0.0,0.0,0.0,0.0,0.0,0.0,0.0,0.0,0.0,0.0,0.0,0.0,0.0,0.0,0.0,0.0,0.0,0.0,0.0,0.0,0.0,0.0,0.0,0.0,0.0,0.0,0.0,0.0,0.0,0.0,0.0,0.0,0.0,0.0,0.0,0.0,0.0,0.0,0.0,0.0,0.0,0.0,0.0,0.0,0.0,0.0,0.0,0.0,0.0,0.0,0.0,0.0,0.0,0.0,0.0,0.0,0.0,0.0,0.0,0.0,0.0,0.0,0.0,0.0,0.0,0.0,0.0,0.0,0.0,0.0,0.0,0.0,0.0,0.0,0.0,0.0,0.0,0.0,0.0,0.0,0.0,0.0,0.0,0.0,0.0,0.0,0.0,0.0,0.0,0.0,0.0,0.0,0.0,0.0,0.0,0.0,0.0,0.0,0.0,0.0,0.0,0.0,0.0,0.0,0.0,0.0,0.0,0.0,0.0,0.0,0.0,0.0,0.0,0.0,0.0,0.0,0.0,0.0,0.0,0.0,0.0,0.0,0.0,0.0,0.0,0.0,0.0,0.0,0.0,0.0,0.0,0.0,0.0,0.0,0.0,0.0,0.0,0.0,0.0,0.0,0.0,0.0,0.0,0.0,0.0,0.0,0.0,0.0,0.0,0.0,0.0,0.0,0.0,0.0,0.0,0.0,0.0,0.0,0.0,0.0,0.0,0.0,0.0,0.0,0.0,0.0,0.0,0.0,0.0,0.0,0.0,0.0,0.0,0.0,0.0,0.0,0.0,0.0,0.0,0.0,0.0,0.0,0.0,0.0,0.0,0.0,0.0,0.0,0.0,0.0,0.0,0.0,0.0,0.0,0.0,0.0,0.0,0.0,0.0,0.0,0.0,0.0,0.0,0.0,0.0,0.0,0.0,0.0,0.0,0.0,0.0,0.0,0.0,0.0,0.0,0.0,0.0,0.0,0.0,0.0,0.0,0.0,0.0,0.0,0.0,0.0,0.0,0.0,0.0,0.0,0.0,0.0,0.0,0.0,0.0,0.0,0.0,0.0,0.0,0.0,0.0,0.0,0.0,0.0,0.0,0.0,0.0,0.0,0.0,0.0,0.0,0.0,0.0,0.0,0.0,0.0,0.0,0.0,0.0,0.0,0.0,0.0,0.0,0.0,0.0,0.0,0.0,0.0,0.0,0.0,0.0,0.0,0.0,0.0,0.0,0.0,0.0,0.0,0.0,0.0,0.0,0.0,0.0,0.0,0.0,0.0,0.0,0.0,0.0,0.0,0.0,0.0,0.0,0.0,0.0,0.0,0.0,0.0,0.0,0.0,0.0,0.0,0.0,0.0,0.0,0.0,0.0,0.0,0.0,0.0,0.0,0.0,0.0,0.0,0.0,0.0,0.0,0.0,0.0,0.0,0.0,0.0,0.0,0.0,0.0,0.0,0.0,0.0,0.0,0.0,0.0,0.0,0.0,0.0,0.0,0.0,0.0,0.0,0.0,0.0,0.0,0.0,0.0,0.0,0.0,0.0,0.0,0.0,0.0,0.0,0.0,0.0,0.0,0.0,0.0,0.0,0.0,0.0,0.0,0.0,0.0,0.0,0.0,0.0,0.0,0.0,0.0,0.0,0.0,0.0,0.0,0.0,0.0,0.0,0.0,0.0,0.0,0.0,0.0,0.0,0.0,0.0,0.0,0.0,0.0,0.0,0.0,0.0,0.0,0.0,0.0,0.0,0.0,0.0,0.0,0.0,0.0,0.0,0.0,0.0,0.0,0.0,0.0,0.0,0.0,0.0,0.0,0.0,0.0,0.0,0.0,0.0,0.0,0.0,0.0,0.0,0.0,0.0,0.0,0.0,0.0,0.0,0.0,0.0,0.0,0.0,0.0,0.0,0.0,0.0,0.0,0.0,0.0,0.0,0.0,0.0,0.0,0.0,0.0,0.0,0.0,0.0,0.0,0.0,0.0,0.0,0.0,0.0,0.0,0.0,0.0,0.0,0.0,0.0,0.0,0.0,0.0,0.0,0.0,0.0,0.0,0.0,0.0,0.0,0.0,0.0,0.0,0.0,0.0,0.0,0.0,0.0,0.0,0.0,0.0,0.0,0.0,0.0,0.0,0.0,0.0,0.0,0.0,0.0,0.0,0.0,0.0,0.0,0.0,0.0,0.0,0.0,0.0,0.0,0.0,0.0,0.0,0.0,0.0,0.0,0.0,0.0,0.0,0.0,0.0,0.0,0.0,0.0,0.0,0.0,0.0,0.0,0.0,0.0,0.0,0.0,0.0,0.0,0.0,0.0,0.0,0.0,0.0,0.0,0.0,0.0,0.0,0.0,0.0,0.0,0.0,0.0,0.0,0.0,0.0,0.0,-1.1456,0.0,0.0,0.0,0.0,0.0,0.0,0.0,0.0,0.0,0.0,0.0,0.0,0.0,0.0,0.0,0.0,0.0,0.0,0.0,0.0,0.0,0.0,0.0,0.0,-1.2553,-1.3208,-1.3278,-1.3045,-1.2892,-1.2892,0.0,0.0,0.0,0.0,0.0,-0.4963,-0.4343,-0.3332,-0.1878,-0.3028,-0.1851,0.1485,0.1491,0.0961,0.0,0.0,0.0,0.0,0.0,0.0,0.0,0.0,0.0,0.0,0.0,0.0,0.0,0.0,0.0,0.0,0.0,0.0,0.0,0.0,0.0,0.0,0.0,0.0,0.0,0.0,0.0,0.0,0.0,0.0,0.0,0.0,0.0,0.0,0.0,0.0,0.0,0.0,0.0,0.0,0.0,0.0,0.0,0.0,0.0,0.0,0.0,0.0,0.0,0.0,0.0,0.0,0.0,0.0,0.0,0.0,0.0,0.0,0.0,0.0,0.0,0.0,0.0,0.0,0.0,0.0,0.0,0.0,0.0,0.0,0.0,0.0,-1.191,0.0,0.0,0.0,0.0,0.0,0.0,0.0,0.0,0.0,0.0,0.0,0.0,0.0,0.0,0.0,0.0,0.0,0.0,0.0,0.0,0.0,-1.1679,-1.187,-1.286,-1.3625,-1.3953,-1.3455,-1.2955,-1.2555,-1.1524,0.0,0.0,0.0,-0.6926,-0.456,-0.3978,-0.2507,0.0,-0.1272,-0.0179,0.3097,0.324,0.2322,0.0529,0.0531,0.0,0.0,0.0,0.0,0.0,0.0,0.0,0.0,0.0,0.0,0.0,0.0,0.0,0.0,0.0,0.0,0.0,0.0,0.0,0.0,0.0,0.0,0.0,0.0,0.0,0.0,0.0,0.0,0.0,0.0,0.0,0.0,0.0,0.0,0.0,0.0,0.0,0.0,0.0,0.0,0.0,0.0,0.0,0.0,0.0,0.0,0.0,0.0,0.0,0.0,0.0,0.0,0.0,0.0,0.0,0.0,0.0,0.0,0.0,0.0,0.0,0.0,0.0,-0.8918,-0.9673,-1.0999,-1.23,-1.2638,-1.2227,-1.3038,-1.2999,-1.2329,-1.2534,0.0,0.0,0.0,0.0,0.0,0.0,0.0,0.0,0.0,0.0,0.0,0.0,0.0,0.0,0.0,0.0,0.0,0.0,0.0,-1.1985,-1.2972,-1.3319,-1.3941,-1.5079,-1.4413,-1.3119,-1.1193,-1.1278,0.0,0.0,-0.6413,-0.488,-0.4498,-0.1922,-0.0408,0.0,0.3351,0.4348,0.313,0.3738,0.3551,0.27,0.2691,0.2681,0.2666,0.0,0.0,0.0,0.0,0.0,0.0,0.0,0.0,0.0,0.0,0.0,0.0,0.0,0.0,0.0,0.0,0.0,0.0,0.0,0.0,0.0,0.0,0.0,0.0,0.0,0.0,0.0,0.0,0.0,0.0,0.0,0.0,0.0,0.0,0.0,0.0,0.0,0.0,0.0,0.0,0.0,0.0,0.0,0.0,0.0,0.0,0.0,0.0,0.0,0.0,0.0,0.0,0.0,0.0,0.0,0.0,-0.7825,-0.7894,-0.7356,-0.7442,-0.8146,-0.8484,-0.9937,-1.237,-1.3089,-1.4351,-1.5939,-1.5588,0.0,-1.2365,-1.3429,0.0,0.0,0.0,0.0,0.0,0.0,0.0,0.0,0.0,0.0,0.0,0.0,0.0,0.0,0.0,0.0,0.0,0.0,0.0,0.0,0.0,-1.4598,-1.5413,-1.5974,-1.5051,-1.3967,-1.2797,-1.1495,-1.0512,-0.9939,-0.6431,-0.4508,-0.4498,-0.1534,0.1155,0.3529,0.5381,0.5807,0.489,0.5214,0.5199,0.4916,0.488,0.4211,0.3087,0.2743,0.0,0.0,0.0,0.0,0.0,0.0,0.0,0.0,0.0,0.0,0.0,0.0,0.0,0.0,0.0,0.0,0.0,0.0,0.0,0.0,0.0,0.0,0.0,0.0,0.0,0.0,0.0,0.0,0.0,0.0,0.0,0.0,0.0,0.0,0.0,0.0,0.0,0.0,0.0,0.0,-0.022,-0.0842,-0.0907,-0.1293,0.0,0.0,0.0,0.0,0.0,0.0,0.0,0.0,0.0,-0.7247,-0.8057,-0.8511,-0.8507,-0.8255,-0.8151,-0.8258,-0.8623,-0.9396,-1.058,-1.2503,-1.3018,-1.2469,-1.55,-1.6229,-1.5287,-1.5144,-1.4345,-1.3223,0.0,0.0,0.0,0.0,-1.2713,-1.3649,0.0,0.0,0.0,0.0,0.0,0.0,0.0,0.0,0.0,0.0,0.0,0.0,-1.422,-1.544,-1.6428,-1.6965,-1.5699,-1.4671,-1.4254,-1.1723,-1.0229,-1.0286,-0.6917,-0.4866,-0.4507,-0.0493,0.3166,0.6313,0.6315,0.6281,0.6313,0.6313,0.631,0.63,0.63,0.5425,0.3897,0.3579,0.3352,0.3191,0.0,0.0,0.0,0.0,0.0,0.0,0.0,0.0,0.0,0.0,0.0,0.0,0.0,0.0,0.0,0.0,0.0,0.0,0.0,0.0,0.0,0.0,0.0,0.0,0.0,0.0,0.0,0.0,0.0,0.0,0.0,0.0,0.0,0.0,0.0,0.0,0.0,-0.0475,-0.0892,-0.1925,-0.2156,-0.2583,0.0,0.0,0.0,0.0,0.0,0.0,-0.7318,-0.8063,-0.836,-0.815,-0.8631,-0.8921,-0.8924,-0.8881,-0.8825,-0.8604,-0.8832,-0.9293,-1.0046,-1.1505,-1.1803,-1.1363,-1.5734,-1.758,-1.7524,-1.6649,-1.5571,-1.4462,-1.3542,-1.3213,-1.3212,-1.3188,-1.3758,-1.4661,0.0,0.0,0.0,0.0,0.0,0.0,0.0,0.0,0.0,0.0,0.0,-1.2986,-1.4923,-1.5318,-1.6257,-1.8238,-1.6462,-1.4995,0.0,-1.1788,-0.988,-0.8942,-0.7341,-0.5877,-0.4526,0.2388,0.6086,0.6291,0.6301,0.6303,0.6303,0.6303,0.63,0.63,0.63,0.6247,0.612,0.5664,0.5386,0.5163,0.399,0.0,0.0,0.0,0.0,0.0,0.0,0.0,0.0,0.0,0.0,0.0,0.0,0.0,0.0,0.0,0.0,0.0,0.0,0.0,0.0,0.0,0.0,0.0,0.0,0.0,0.0,0.0,0.0,0.0,0.0,0.0,0.0,0.0,0.0,0.0,0.0,0.0,0.0,-0.3196,-0.3655,0.0,0.0,0.0,0.0,-0.7176,-0.7547,-0.7834,-0.7938,-0.82,-0.8374,-0.8558,-0.8786,-0.8923,-0.8913,-0.8923,-0.8871,-0.8871,-0.8875,-1.0343,-1.2984,-1.0347,-1.2058,-1.7173,-1.7463,-1.7575,-1.7627,-1.7532,-1.68,-1.5704,-1.5656,-1.5627,-1.5614,-1.5643,-1.5665,-1.5711,0.0,0.0,0.0,0.0,0.0,-0.7177,-0.772,-0.8667,-0.9801,-1.1182,-1.2744,-1.4239,-1.5511,-1.6696,-1.7708,-1.8447,-1.7039,-1.5698,-1.4647,-1.2133,-0.9787,-0.7777,-0.6992,-0.3941,0.1746,0.4788,0.6289,0.6298,0.6311,0.63,0.63,0.63,0.63,0.63,0.63,0.63,0.6276,0.5878,0.564,0.5464,0.474,0.4257,0.0,0.0,0.0,0.0,0.0,0.0,0.0,0.0,0.0,0.0,0.0,0.0,0.0,0.0,0.0,0.0,0.0,0.0,0.0,0.0,0.0,0.0,0.0,0.0,0.0,0.0,0.0,0.0,0.0,0.0,0.0,0.0,0.0,0.0,0.0,0.0,0.0,-0.4787,-0.5138,0.0,-0.6614,-0.6938,-0.726,-0.7746,-0.8075,-0.8309,-0.8462,-0.8618,-0.8693,-0.8797,-0.8888,-0.8907,-0.8901,-0.8901,-0.8901,-0.8901,-0.8881,-0.9443,-1.0575,-1.3252,-1.563,-1.7582,-1.7582,-1.7582,-1.7621,-1.759,-1.733,-1.6987,-1.6967,-1.6947,-1.6973,-1.6974,-1.6947,-1.6925,0.0,0.0,0.0,0.0,-0.664,-0.7498,-0.7922,-0.904,-1.0312,-1.1633,-1.3604,-1.5153,-1.5886,-1.7501,-1.8487,-1.8328,-1.6996,-1.5739,-1.4772,-1.1881,-0.9384,-0.7626,-0.4127,0.0258,0.5587,0.6089,0.6294,0.63,0.63,0.701,0.8326,0.764,0.7196,0.6957,0.6876,0.6606,0.6286,0.6081,0.5871,0.5708,0.5355,0.5036,0.4764,0.0,0.0,0.0,0.0,0.0,0.0,0.0,0.0,0.0,0.0,0.0,0.0,0.0,0.0,0.0,0.0,0.0,0.0,0.0,0.0,0.0,0.0,0.0,0.0,0.0,0.0,0.0,0.0,0.0,0.0,0.0,0.0,0.0,0.0,-0.4395,-0.5006,-0.6256,-0.6674,-0.7066,-0.7671,-0.797,-0.8157,-0.8207,-0.8496,-0.8679,-0.8781,-0.893,-0.9011,-0.9011,-0.8977,-0.905,-0.9111,-0.9171,-0.9171,-0.905,-0.8952,-0.8927,-0.9084,-1.4934,-1.7596,-1.7582,-1.7582,-1.7582,-1.7582,-1.7582,-1.7586,-1.7619,-1.7603,-1.7585,-1.7585,-1.7585,-1.7516,-1.7356,0.0,0.0,0.0,-0.5942,-0.6961,-0.7956,-0.8329,-0.9496,-1.0762,-1.2038,-1.4054,-1.5565,-1.6038,-1.7573,-1.8428,-1.8037,-1.6298,-1.5085,-1.4686,-1.1019,-0.8651,-0.8269,0.1018,0.6204,0.6307,0.6295,0.6303,0.6306,0.6306,0.8297,1.2056,1.0111,0.8875,0.8264,0.7906,0.7215,0.63,0.63,0.6173,0.5986,0.5871,0.5633,0.5378,0.0,0.0,0.0,0.0,0.0,0.0,0.0,0.0,0.0,0.0,0.0,0.0,0.0,0.0,0.0,0.0,0.0,0.0,0.0,0.0,0.0,0.0,0.0,0.0,0.0,0.0,0.0,0.0,0.0,0.0,0.0,0.0,0.0,-0.5435,-0.5832,-0.6467,-0.7489,-0.8143,-0.8384,-0.8046,-0.8462,-0.872,-0.8723,-0.8862,-0.8892,-0.8898,-0.9086,-0.9217,-0.9217,-0.9191,-0.9326,-0.9507,-0.9689,-0.9685,-0.9388,-0.9101,-0.8903,-0.912,-1.4959,-1.7603,-1.7582,-1.7582,-1.7582,-1.7582,-1.7582,-1.7582,-1.7582,-1.7582,-1.7582,-1.7582,-1.7582,-1.7343,-1.6998,0.0,0.0,-0.5987,-0.5913,-0.7196,-0.8265,-0.8392,-0.9715,-1.1094,-1.2077,-1.3809,-1.5243,-1.6017,-1.7335,-1.814,-1.7998,-1.6897,-1.5546,-1.3982,-1.1259,-0.8199,-0.4839,0.0425,0.4207,0.6266,0.6296,0.6316,0.6291,0.6291,0.6878,0.7929,0.7398,0.7543,0.8268,0.718,0.6567,0.63,0.63,0.6276,0.6183,0.6027,0.585,0.5647,0.0,0.0,0.0,0.0,0.0,0.0,0.0,0.0,0.0,0.0,0.0,0.0,0.0,0.0,0.0,0.0,0.0,0.0,0.0,0.0,0.0,0.0,0.0,0.0,0.0,0.0,0.0,0.0,0.0,0.0,0.0,-0.6013,-0.6853,-0.7089,-0.7305,-0.7686,-0.8315,-0.8645,-0.8781,-0.8646,-0.875,-0.892,-0.9081,-0.9069,-0.9144,-0.9252,-0.9296,-0.9317,-0.9317,-0.9407,-0.9426,-0.9485,-0.9728,-0.9669,-0.9422,-0.9496,-0.9299,-0.9123,-1.4954,-1.7614,-1.7582,-1.7582,-1.7582,-1.7582,-1.7582,-1.7582,-1.7582,-1.7582,-1.7582,-1.7582,-1.7582,-1.7528,-1.7448,0.0,-0.5632,-0.5898,-0.5898,-0.7107,-0.8149,-0.8376,-0.9806,-1.1254,-1.2359,-1.429,-1.5795,-1.6311,-1.7203,-1.7609,-1.7235,-1.598,-1.4463,-1.2671,-0.9707,-0.6386,-0.275,0.0996,0.4076,0.6368,0.6408,0.6485,0.6651,0.7631,0.7467,0.6334,0.7607,0.842,0.8666,0.7626,0.6835,0.6303,0.6285,0.63,0.6293,0.6162,0.6074,0.6006,0.5842,0.562,0.5413,0.5143,0.4845,0.4306,0.2559,0.0,0.0,0.0,0.0,0.0,0.0,0.0,0.0,0.0,0.0,0.0,0.0,0.0,0.0,0.0,0.0,0.0,0.0,0.0,0.0,0.0,0.0,0.0,0.0,-0.6962,-0.7702,-0.813,-0.8211,-0.8347,-0.8672,-0.879,-0.8885,-0.8885,-0.8991,-0.9062,-0.9204,-0.9268,-0.9347,-0.9374,-0.9442,-0.9476,-0.9476,-0.9559,-0.9636,-0.9636,-0.976,-0.97,-0.9573,-0.9717,-0.9613,-0.9447,-1.5076,-1.7579,0.0,-1.7582,-1.7582,-1.7582,-1.7582,-1.7582,0.0,0.0,0.0,0.0,0.0,-1.7582,-1.7582,0.0,-0.5632,-0.5928,-0.6021,-0.6948,-0.7876,-0.8448,-0.9833,-1.1294,-1.2647,-1.4911,-1.644,-1.6547,-1.6924,-1.6894,-1.6121,-1.4378,-1.2613,0.0,-0.7205,-0.4069,-0.1849,0.2017,0.483,0.6347,0.6507,0.6767,0.7103,0.9202,0.9178,0.7237,0.9682,1.0155,0.895,0.8378,0.7438,0.6284,0.628,0.6302,0.6285,0.6285,0.6313,0.6286,0.6304,0.6289,0.6257,0.5958,0.5399,0.4512,0.2584,0.0,0.0,0.0,0.0,0.0,0.0,0.0,0.0,0.0,0.0,0.0,0.0,0.0,0.0,0.0,0.0,0.0,0.0,0.0,0.0,0.0,0.0,0.0,0.0,-0.7773,-0.8079,-0.8632,-0.8608,-0.8584,-0.872,-0.8801,-0.8885,-0.8885,-0.9069,-0.9217,-0.9234,-0.932,-0.9415,-0.9432,0.0,0.0,0.0,0.0,-0.9822,-0.9822,-0.9822,-0.9822,-0.9819,-0.9807,-1.0124,-1.0867,-1.5482,-1.7618,-1.7582,-1.7582,-1.7582,-1.7582,-1.7582,-1.7582,-1.7582,-1.7582,-1.7582,-1.7582,-1.7582,-1.7582,-1.7582,0.0,-0.5632,-0.6106,-0.6755,-0.7628,-0.8502,-0.9256,-1.0234,-1.1219,-1.2213,-1.3663,-1.4864,-1.5566,-1.577,-1.5872,-1.5936,-1.431,-1.2206,0.0,0.0,-0.3256,-0.2689,0.1335,0.3981,0.4875,0.6069,0.6802,0.7119,0.7544,0.9443,1.2569,1.1059,0.9086,0.6866,0.6985,0.6747,0.6315,0.6289,0.6293,0.6308,0.6308,0.628,0.6296,0.6304,0.63,0.63,0.6246,0.3978,0.0991,0.0568,0.0221,0.0,0.0,0.0,0.0,0.0,0.0,0.0,0.0,0.0,0.0,0.0,0.0,0.0,0.0,0.0,0.0,0.0,0.0,0.0,0.0,0.0,0.0,-0.7702,-0.8096,-0.8435,-0.8676,-0.8791,-0.8807,-0.8838,-0.8865,-0.8885,-0.8885,-0.9069,-0.9262,-0.9327,-0.9479,-0.9615,-0.973,-0.9764,-0.9781,-0.9781,-0.9805,-0.9822,-0.9822,-0.9822,-0.9822,-0.9819,0.0,0.0,-1.6142,-1.7142,-1.7624,-1.7582,-1.7582,-1.7582,-1.7582,-1.7582,-1.7582,-1.7582,-1.7582,-1.7582,-1.7582,-1.7582,-1.7582,-1.7582,-0.5293,-0.5568,-0.5927,-0.6338,-0.7011,-0.7722,-0.8401,-0.918,-1.0192,-1.1621,-1.2736,-1.3846,-1.4972,-1.4485,-1.4092,-1.4252,-1.1952,0.0,0.0,-0.4921,-0.2772,-0.2257,0.137,0.3419,0.3433,0.5652,0.6893,0.7089,0.7901,1.0303,1.4041,1.1558,0.909,0.6671,0.6572,0.6572,0.668,0.6691,0.6699,0.6664,0.6421,0.6304,0.6316,0.6288,0.6303,0.6032,0.3902,0.1792,0.0,0.0,0.0,0.0,0.0,0.0,0.0,0.0,0.0,0.0,0.0,0.0,0.0,0.0,0.0,0.0,0.0,0.0,0.0,0.0,0.0,-0.6814,-0.7187,0.0,-0.7828,-0.8201,-0.8448,-0.8648,-0.8804,-0.8838,-0.8885,-0.8885,-0.8885,-0.8885,-0.8885,-0.9137,-0.9357,-0.9374,-0.9588,-0.9747,-0.9819,-0.9822,-0.9822,-0.9822,-0.9822,-0.9822,-0.9822,-0.9822,-0.9822,-0.9822,-0.9788,-1.2001,-1.6144,-1.7463,-1.8039,-1.8029,-1.7943,-1.7883,-1.7869,-1.7702,-1.7582,-1.7582,-1.7582,-1.7582,-1.7582,-1.7582,-1.7582,-1.7582,-0.5367,-0.5598,-0.5833,-0.593,-0.64,-0.6955,-0.7566,-0.8157,-0.9169,-1.0912,-1.1911,-1.2933,-1.4299,-1.3251,-1.2394,0.0,0.0,0.0,0.0,-0.4551,-0.2536,-0.1633,0.1618,0.3076,0.2412,0.5391,0.6976,0.7115,0.933,1.1668,1.405,1.1224,0.8914,0.7075,0.6655,0.6681,0.7096,0.7102,0.7115,0.7076,0.6576,0.6334,0.6291,0.6315,0.6303,0.5789,0.1986,0.0505,0.0349,0.0078,0.0,0.0,0.0,0.0,0.0,0.0,0.0,0.0,0.0,0.0,0.0,0.0,0.0,0.0,0.0,-0.5116,-0.5607,-0.6661,-0.7109,-0.7378,-0.7787,-0.7978,-0.8238,-0.8652,-0.8733,-0.8798,-0.8865,-0.8885,-0.8885,-0.8885,-0.8885,-0.8885,-0.8885,-0.9208,-0.9381,-0.9381,-0.9652,-0.9822,-0.9822,-0.9822,-0.9822,-0.9822,-0.9822,-0.9822,-0.9822,-0.9822,-0.9822,-0.9822,-0.9822,-1.1351,-1.4227,-1.6594,-1.778,-1.8014,-1.8129,-1.8138,-1.8064,-1.7742,-1.7582,-1.7582,-1.7582,-1.7582,-1.7582,-1.7582,-1.7582,-1.7582,0.0,-0.5923,-0.63,-0.6773,-0.7101,-0.7581,-0.8419,-0.8622,-0.9047,-1.0116,-1.0999,-1.1938,-1.3012,-1.2423,-1.1679,-1.0892,0.0,0.0,-0.7355,-0.4651,-0.2637,-0.1636,0.1606,0.3073,0.2436,0.5472,0.7066,0.7115,1.1439,1.3742,1.3986,0.9545,0.7341,0.7088,0.7058,0.7055,0.7115,0.7099,0.7107,0.7066,0.6781,0.6508,0.6291,0.6315,0.6306,0.5996,0.3593,0.2389,0.1674,0.0428,0.0,0.0,0.0,0.0,0.0,0.0,0.0,0.0,0.0,0.0,-0.0283,-0.1476,-0.2467,-0.3516,0.0,-0.6216,-0.6973,-0.7431,-0.7733,-0.7904,-0.7955,-0.8353,-0.8652,-0.8703,-0.8825,-0.8865,-0.8881,-0.8885,-0.8885,-0.8885,-0.8885,-0.8885,-0.8885,-0.9208,-0.9381,-0.9381,-0.9652,-0.9822,-0.9822,-0.9822,-0.9822,-0.9822,-0.9822,-0.9822,-0.9822,-0.9822,-0.9822,-0.9822,-0.9822,-1.0823,-1.2673,-1.4058,-1.5309,-1.6416,-1.7557,-1.7889,-1.7635,-1.7595,-1.7582,-1.7582,-1.7582,-1.7582,-1.7582,-1.7582,-1.7582,-1.7582,0.0,-0.6104,-0.6502,-0.6724,-0.699,-0.7284,-0.766,-0.8,-0.8463,-0.9098,-1.004,-1.084,-1.1388,-1.0996,-1.0514,-1.0113,-0.8721,-0.7367,-0.6198,-0.4211,-0.2382,-0.0744,0.1953,0.3456,0.3622,0.5772,0.6976,0.7115,0.9074,1.0042,0.9998,0.8023,0.7095,0.7095,0.7095,0.7095,0.7095,0.7095,0.7014,0.6915,0.6718,0.6566,0.6334,0.5638,0.5356,0.5162,0.3632,0.254,0.0,0.0,0.0,0.0,0.0,0.0,0.0,0.0,0.0,0.0,0.0,0.0,-0.0431,-0.224,-0.3061,-0.4012,-0.6022,-0.6963,-0.7468,-0.7678,-0.8031,-0.8296,-0.8296,-0.8594,-0.879,-0.879,-0.8841,-0.921,-1.0076,-0.9427,-0.921,-1.008,-0.9427,-0.8885,-0.8885,-0.9208,-0.9381,-0.9381,-0.9652,-0.9822,-0.9822,-0.9822,-0.9822,-0.9822,-0.9822,-0.9822,-0.9822,-0.9822,-0.9822,-0.9822,-0.9822,-1.0688,-1.235,-1.3755,-1.5621,-1.7735,-1.8147,-1.8136,-1.7842,-1.7655,-1.7582,-1.7582,-1.7582,-1.7582,-1.7582,-1.7582,-1.7582,-1.7582,0.0,-0.6299,-0.6613,-0.6693,-0.688,-0.7,-0.7,-0.7363,-0.7827,-0.827,-0.9172,-0.9894,-1.0213,-0.9969,-0.9654,-0.9313,-0.8167,-0.6702,-0.5015,-0.374,-0.215,-0.0079,0.215,0.3679,0.4417,0.5975,0.69,0.7102,0.7102,0.708,0.7121,0.7121,0.7115,0.7095,0.7095,0.7095,0.7095,0.7055,0.6934,0.6823,0.6632,0.6366,0.5971,0.5045,0.4358,0.3752,0.2979,0.221,0.0,0.0379,0.0,0.0,0.0,0.0,0.0,0.0,0.0,0.0,0.0,-0.0286,-0.1007,-0.2959,-0.3811,-0.4737,-0.6801,-0.7495,-0.7699,-0.7845,-0.8167,-0.8425,-0.8425,-0.8672,-0.8821,-0.8821,-0.9237,-0.986,-1.0945,-1.0186,-1.0025,-1.1538,-1.0402,-0.9482,-0.9482,-0.9429,-0.9381,-0.9381,-0.9652,-0.9822,-0.9822,-0.9822,-0.9822,-0.9822,-0.9822,-0.9822,-0.9822,-0.9822,-0.9822,-0.9822,-0.9822,-1.0422,-1.1619,-1.3646,-1.6191,-1.8911,-1.8698,-1.8397,-1.7975,-1.7802,-1.7662,-1.7582,-1.7582,-1.7582,-1.7582,-1.7582,-1.7582,-1.7582,0.0,0.0,-0.668,-0.694,-0.6993,-0.7,-0.7,-0.7021,-0.7238,-0.7844,-0.852,-0.9162,-0.975,-0.9806,-0.9369,-0.8323,-0.7674,-0.6332,-0.4,-0.3274,-0.2032,-0.0079,0.1991,0.3473,0.418,0.5842,0.6854,0.7096,0.7096,0.7091,0.7111,0.7111,0.7097,0.7095,0.7095,0.7095,0.7088,0.6907,0.6843,0.6859,0.66,0.587,0.4927,0.4771,0.3467,0.1701,0.1663,0.0,0.1451,0.0355,0.0,0.0,0.0,0.0,0.0,0.0,0.0,0.0,0.0,-0.0949,-0.2244,-0.3481,-0.475,-0.6083,-0.748,-0.7797,-0.7848,-0.7951,-0.8163,-0.833,-0.833,-0.852,-0.8716,-0.8716,-1.0023,-1.1051,-1.1105,-1.1051,-1.1592,-1.3053,-1.1914,-1.1055,0.0,-1.0046,-0.9381,-0.9381,-0.9652,-0.9822,-0.9822,-0.9822,-0.9822,-0.9822,-0.9822,-0.9822,-0.9822,-0.9822,-0.9822,-0.9822,-0.9822,-0.9819,-1.0001,-1.3168,-1.6191,-1.8925,-1.8911,-1.8522,-1.7995,-1.7982,-1.7856,-1.7582,-1.7582,-1.7582,-1.7582,-1.7582,-1.7582,-1.7582,0.0,0.0,0.0,-0.698,-0.7,-0.7,-0.7,-0.7342,-0.7609,-0.7622,-0.8171,0.0,0.0,0.0,0.0,0.0,-0.783,-0.6649,-0.5473,-0.3754,-0.2189,-0.0903,0.1055,0.2567,0.3561,0.5471,0.6563,0.683,0.6657,0.6556,0.6563,0.6734,0.6803,0.6763,0.6763,0.6805,0.6844,0.6755,0.6792,0.6816,0.5814,0.5268,0.4861,0.3254,0.2198,0.1508,0.0,0.0,0.0485,0.0105,0.0,0.0,0.0,0.0,0.0,0.0,0.0,0.0,0.0,-0.0982,-0.2292,-0.3487,-0.486,-0.6244,-0.7498,-0.7811,-0.7824,-0.7879,-0.7929,-0.7963,-0.7963,-0.8292,-0.8871,-0.9857,-1.0634,-1.1751,-1.3691,-1.3156,-1.3102,-1.4502,-1.3426,0.0,0.0,0.0,0.0,-0.949,-0.9568,-0.9724,-0.9815,-0.9822,-0.9822,-0.9822,-0.9822,-0.9822,-0.9822,-0.9822,-0.9822,-0.9822,-0.9822,-1.0361,-1.1499,-1.3651,-1.5681,-1.7704,-1.834,-1.8524,-1.831,-1.7909,-1.7675,-1.7582,-1.7582,-1.7582,-1.7582,-1.7582,-1.7582,-1.7582,0.0,0.0,0.0,0.0,0.0,0.0,0.0,0.0,0.0,0.0,0.0,0.0,0.0,0.0,0.0,0.0,0.0,-0.6615,-0.5633,-0.3703,-0.2225,-0.1265,0.0604,0.2072,0.3117,0.5234,0.6368,0.6544,0.6378,0.6307,0.6324,0.6535,0.6647,0.6615,0.6615,0.6657,0.6654,0.6229,0.6093,0.6071,0.4789,0.4112,0.3664,0.2178,0.1351,0.0,0.0,0.0,0.0,0.0,0.0,0.0,0.0,0.0,0.0,0.0,-0.0357,-0.0704,-0.0726,-0.2039,-0.3626,-0.44,-0.5638,-0.6893,-0.7627,-0.7811,-0.778,-0.7675,-0.7655,-0.7793,-0.8211,-0.8559,-0.9314,-1.097,-1.185,-1.3029,-1.5121,-1.4609,-1.4643,-1.6149,-1.5073,-1.3902,0.0,-1.3012,0.0,-0.9603,-0.9568,-0.9724,-0.9815,-0.9822,-0.9822,-0.9822,-0.9822,-0.9822,-0.9822,-0.9822,-0.9822,-0.9822,-0.9822,-1.066,-1.2273,-1.3885,-1.5387,-1.6867,-1.8107,-1.8524,-1.8303,-1.7909,-1.7682,-1.7582,-1.7582,-1.7582,-1.7582,-1.7582,-1.7582,-1.7582,0.0,0.0,0.0,0.0,0.0,0.0,0.0,0.0,0.0,0.0,0.0,0.0,0.0,0.0,0.0,0.0,0.0,0.0,-0.4622,0.0,0.0,-0.1206,0.0564,0.1923,0.2832,0.4981,0.619,0.6302,0.6302,0.6298,0.6298,0.6501,0.6579,0.6592,0.6637,0.6678,0.6585,0.5384,0.4897,0.4816,0.3551,0.2466,0.1612,0.153,0.0,0.0,0.0,0.0,0.0,0.0,0.0,0.0,0.0,0.0,0.0,0.0,-0.0936,-0.1997,-0.1997,-0.3968,-0.6013,-0.5986,-0.699,-0.7948,-0.7845,-0.7797,-0.7706,-0.7417,-0.7395,-0.7692,-0.8845,-0.9196,-0.9939,-1.1929,-1.3562,-1.4739,-1.54,-1.5535,-1.6131,-1.7793,-1.6823,-1.6087,-1.6275,-1.631,-1.4452,-0.9964,0.0,-0.9872,-0.9822,-0.9822,-0.9822,-0.9822,-0.9822,-0.9822,-0.9822,-0.9822,-0.9822,-0.9822,-0.9822,-1.066,-1.2273,-1.3885,-1.5301,-1.658,-1.8204,-1.8522,-1.7995,-1.7975,-1.7849,-1.7582,-1.7582,-1.7582,-1.7582,-1.7582,-1.7582,-1.7582,0.0,0.0,0.0,0.0,0.0,0.0,0.0,0.0,0.0,0.0,0.0,0.0,0.0,0.0,0.0,0.0,0.0,0.0,-0.6276,0.0,0.0,0.0,-0.0521,0.1,0.2284,0.3157,0.4483,0.6302,0.6302,0.6284,0.6315,0.6354,0.6375,0.6373,0.6412,0.6412,0.633,0.5218,0.4866,0.4876,0.0,0.196,0.1808,0.0,0.0,0.0,0.0,0.0,0.0,0.0,0.0,0.0,0.0,0.0,0.0,0.0,-0.095,-0.2,-0.1993,-0.3952,-0.5991,-0.6007,-0.7009,-0.7948,-0.7845,-0.7641,-0.7428,-0.7238,-0.7024,-0.7204,-0.8249,-0.8985,-1.031,-1.2922,-1.4196,-1.5365,-1.6825,-1.7235,-1.7518,-1.7928,-1.7902,-1.7431,-1.641,-1.6363,-1.5497,0.0,-1.2068,-1.0942,-0.9876,-0.9822,-0.9822,-0.9822,-0.9822,-0.9822,-0.9822,-0.9822,-0.9822,-0.9822,-0.9822,-1.066,-1.2273,-1.3885,-1.5301,-1.6568,-1.7998,-1.839,-1.7975,-1.7796,-1.7655,-1.7582,-1.7582,-1.7582,-1.7582,-1.7582,-1.7582,-1.7582,0.0,0.0,0.0,0.0,0.0,0.0,0.0,0.0,0.0,0.0,0.0,0.0,0.0,0.0,0.0,0.0,0.0,0.0,0.0,-0.3728,0.0,-0.2357,-0.0843,0.0624,0.1929,0.2447,0.3737,0.5919,0.0,0.0,0.6098,0.6098,0.6098,0.6057,0.5679,0.5526,0.541,0.3973,0.0,0.0,0.0,0.0,0.0,0.0,0.0,0.0,0.0,-0.03,-0.0701,-0.0762,-0.0449,0.0,0.0,0.0,-0.0129,-0.0708,-0.1811,-0.3007,-0.3578,-0.5264,-0.6891,-0.6866,-0.739,-0.7882,-0.7668,-0.7438,-0.719,-0.6905,-0.6715,-0.6923,-0.8007,-0.9186,-1.0826,-1.3362,-1.4777,-1.6068,-1.7397,-1.7849,-1.8042,-1.8223,-1.8504,-1.8437,-1.7742,-1.7721,-1.7167,-1.564,-1.4055,-1.2753,-1.1972,-1.1916,-1.1555,-1.0899,-1.0838,-1.0539,-0.9822,-0.9822,-0.9822,-0.9822,-0.9822,-1.066,-1.2213,-1.3077,-1.4501,-1.6341,0.0,-1.7559,-1.7829,-1.7655,-1.7582,-1.7582,-1.7582,-1.7582,-1.7582,-1.7582,-1.7582,-1.7582,0.0,0.0,0.0,0.0,0.0,0.0,0.0,0.0,0.0,0.0,0.0,0.0,0.0,0.0,0.0,0.0,0.0,0.0,0.0,0.0,0.0,-0.2257,-0.0912,0.0368,0.1542,0.2091,0.3234,0.5108,0.5284,0.0,0.0,0.0,0.0,0.0,0.0,0.0,0.0,0.0,0.0,0.0,0.0,0.0,0.0,0.0,0.0,0.0,0.0,-0.0684,-0.16,-0.1719,-0.1083,-0.0248,-0.0431,-0.04,-0.0545,-0.1851,-0.32,-0.4498,-0.5705,-0.6996,-0.7988,-0.7988,-0.7923,-0.7733,-0.7438,-0.7238,-0.6947,-0.6559,-0.6497,-0.6799,-0.794,-0.9457,-1.1262,-1.3463,-1.5194,-1.6533,-1.7455,-1.7883,-1.8149,-1.8464,-1.8778,-1.9085,-1.9339,-1.9424,-1.8823,-1.7443,-1.6026,-1.5079,-1.4604,-1.4604,-1.3885,-1.2273,-1.1976,-1.1197,-0.9822,-0.9822,-0.9822,-0.9822,-0.9822,-1.066,-1.2209,-1.2103,-1.3413,-1.5788,-1.5896,0.0,-1.7312,-1.7529,-1.7582,-1.7582,-1.7582,-1.7582,-1.7582,-1.7582,-1.7582,-1.7582,0.0,0.0,0.0,0.0,0.0,0.0,0.0,0.0,0.0,0.0,-0.8871,-0.8991,0.0,0.0,0.0,0.0,0.0,0.0,0.0,0.0,0.0,0.0,-0.1581,-0.0655,0.0301,0.0404,0.1466,0.3491,0.333,0.3582,0.0,0.0,0.0,0.0,0.0,0.0,0.0,0.0,0.0,0.0,0.0,0.0,0.0,0.0,0.0,0.0,0.0,-0.0702,-0.1602,-0.1642,-0.1493,-0.155,-0.2778,-0.2465,-0.1939,-0.3276,-0.4606,-0.571,-0.5919,-0.6965,-0.7988,-0.7988,-0.7923,-0.7733,-0.7438,-0.716,-0.6871,-0.6539,-0.6419,-0.6645,-0.7679,-0.9201,-1.0972,-1.315,-1.4852,-1.6299,-1.7428,-1.8063,-1.843,-1.8484,-1.8965,-1.9312,-1.9366,-1.9424,-1.9307,0.0,-1.8706,-1.7396,-1.4723,-1.4604,-1.3885,-1.2273,-1.0899,-1.0061,-0.9822,-0.9822,-0.9822,-0.9822,-0.9822,-1.066,-1.2213,-1.2179,-1.2912,-1.4328,-1.5524,0.0,-1.5902,-1.7094,-1.7582,-1.7582,-1.7582,-1.7582,-1.7582,-1.7582,-1.7582,-1.7582,0.0,0.0,0.0,0.0,0.0,0.0,0.0,-0.8797,-0.9484,-1.0062,-1.0021,-0.9927,-0.9908,-0.9784,-0.9162,0.0,0.0,0.0,0.0,0.0,0.0,0.0,0.0,-0.0894,-0.0034,0.0,0.0479,0.1502,0.0,0.1808,0.2813,0.2854,0.3134,0.3513,0.2576,0.2161,0.2091,0.0,0.0,0.0704,0.0223,0.0,0.0,0.0,0.0,0.0,0.0,-0.0706,-0.1691,-0.2293,-0.2444,-0.2526,-0.3317,-0.3218,-0.3099,-0.4518,-0.5373,-0.6079,-0.6848,-0.7487,-0.7988,-0.7988,-0.7807,-0.7522,-0.7302,-0.6963,-0.6627,-0.6446,-0.6347,-0.6451,-0.6945,-0.8753,-1.0625,-1.1926,-1.3979,-1.5785,-1.6961,-1.7642,-1.8136,-1.8457,-1.9011,-1.9424,-1.9424,-1.9424,-1.9424,-1.9424,-1.9424,-1.8706,-1.7161,-1.6321,-1.5133,-1.3526,-1.1916,-1.066,-0.9822,-0.9822,-0.9822,-0.9822,-0.9822,-1.066,-1.2153,-1.1287,-1.198,-1.3927,-1.4484,0.0,-1.5524,-1.6988,-1.7582,-1.7582,-1.7582,-1.7582,-1.7582,-1.7582,-1.7582,-1.7582,0.0,0.0,0.0,0.0,0.0,0.0,0.0,-0.9314,-1.007,-1.0895,-1.1064,-1.0919,-1.0445,-1.0132,-0.9291,0.0,0.0,0.0,0.0,0.0,0.0,0.0,0.0,-0.1174,-0.0303,0.0,0.0,0.0,0.0,0.0,0.0,0.0,0.0,0.0,0.1441,0.1006,0.0973,0.0303,0.0,0.0,0.0,0.0,0.0,0.0,0.0,0.0,0.0,-0.1176,-0.2393,-0.3313,-0.3711,-0.3847,-0.3941,-0.3989,-0.4256,-0.5714,-0.616,-0.6463,-0.7658,-0.7965,-0.7988,-0.7988,-0.7702,-0.7329,-0.7132,-0.6793,-0.647,-0.633,-0.63,-0.63,-0.63,-0.8138,-0.9938,-1.0762,-1.2961,-1.5042,-1.6397,-1.7174,-1.7809,-1.8417,-1.8951,-1.9299,-1.9417,-1.9424,-1.9424,-1.9424,-1.9424,-1.9424,-1.9424,-1.7864,-1.6433,-1.5133,-1.3228,-1.1615,-1.0301,-1.0001,-0.9822,-0.9822,-0.9822,-1.0479,-1.1611,-1.0263,-1.0801,-1.2956,-1.3029,0.0,0.0,-1.6552,-1.7312,-1.7582,-1.7582,-1.7582,-1.7582,-1.7582,-1.7582,-1.7582,0.0,0.0,0.0,0.0,0.0,0.0,0.0,-0.9371,-1.0277,-1.0903,-1.1215,-1.1348,-1.1281,-1.1042,-1.002,0.0,0.0,0.0,0.0,0.0,0.0,0.0,0.0,0.0,0.0,0.0,0.0,0.0,0.0,0.0,0.0,0.0,0.0,0.0,0.0,0.0135,0.0101,0.0034,0.0,0.0,0.0,0.0,0.0,0.0,0.0,0.0,0.0,-0.2738,-0.4416,-0.4543,-0.5294,-0.6173,-0.6199,-0.5757,-0.5499,-0.685,-0.7412,-0.7666,-0.7779,-0.7884,-0.7988,-0.7988,-0.7702,-0.7329,-0.7132,-0.6793,-0.647,-0.633,-0.63,-0.63,-0.63,-0.7238,-0.8596,-1.0336,-1.2077,-1.3909,-1.6049,-1.7048,-1.7809,-1.8417,-1.8771,-1.9072,-1.9339,-1.9424,-1.9424,-1.9424,-1.9424,-1.9424,-1.9424,-1.7864,-1.6909,-1.6786,-1.382,-1.2157,-1.1976,-1.0539,-0.9822,-0.9822,-0.9822,-0.9879,-0.9994,-0.9733,-0.97,-0.9885,-1.1009,0.0,0.0,-1.5043,-1.6387,-1.7582,-1.7582,-1.7582,-1.7582,-1.7582,-1.7582,-1.7582,0.0,0.0,0.0,0.0,0.0,0.0,-0.9074,-0.9567,-1.025,-1.139,-1.1463,-1.149,-1.167,-1.143,-1.0539,-0.8828,0.0,0.0,0.0,0.0,0.0,0.0,0.0,0.0,0.0,0.0,0.0,0.0,0.0,0.0,0.0,0.0,0.0,0.0,0.0,0.0,0.0,0.0,0.0,0.0,0.0,0.0,0.0,0.0,0.0,0.0,0.0,0.0,-0.3826,-0.4491,-0.5031,-0.5544,-0.6185,-0.6238,-0.6236,-0.6972,-0.738,-0.7587,-0.7763,-0.7874,-0.7968,-0.7877,-0.7563,-0.7193,-0.7004,-0.6668,-0.6368,-0.6313,-0.63,-0.63,-0.63,-0.7138,-0.8315,-0.9822,-1.1098,-1.2679,-1.4915,-1.5825,-1.662,-1.7621,-1.8263,-1.8778,-1.9072,-1.9265,-1.9424,-1.9424,-1.9424,-1.9424,-1.9424,-1.8765,-1.7572,-1.5607,-1.4302,-1.2693,-1.0781,-1.0119,-0.9822,-0.9819,-0.9734,-0.9693,-0.969,-0.954,-0.9388,-0.9353,-1.0739,0.0,0.0,-1.4824,-1.628,-1.7523,-1.6605,-1.6823,-1.7477,-1.6605,-1.6823,-1.7582,0.0,0.0,0.0,0.0,0.0,-0.8643,-0.9327,-0.9646,-1.0214,-1.137,-1.145,-1.151,-1.1717,-1.155,-1.0884,-0.9592,-0.8565,0.0,0.0,0.0,0.0,0.0,0.0,0.0,0.0,0.0,-0.0143,-0.0479,-0.0148,0.0,0.0,0.0,0.0,0.0,0.0,0.0,0.0,0.0,0.0,0.0,0.0,0.0,0.0,0.0,0.0,0.0,0.0,0.0,0.0,0.0,0.0,-0.5315,-0.606,-0.6368,-0.6518,-0.6837,-0.7112,-0.7346,-0.7556,-0.7756,-0.7882,-0.7777,-0.7411,-0.7007,-0.691,-0.6583,-0.63,-0.63,-0.63,-0.63,-0.63,-0.6872,-0.7748,-0.8961,-1.0208,-1.1607,-1.3268,-1.4676,-1.5782,-1.6497,-1.7562,-1.8377,-1.8758,-1.9145,-1.9424,-1.9424,-1.9424,-1.9424,-1.9424,-1.9424,-1.835,-1.609,-1.5079,-1.3526,-1.1257,-1.0301,-0.9798,-0.9758,-0.9656,-0.9585,-0.9537,-0.9384,-0.9313,-0.9264,-1.0212,0.0,0.0,-1.3696,-1.5257,-1.6823,-1.5364,-1.5689,-1.6823,-1.5796,-1.6062,-1.6988,0.0,0.0,0.0,0.0,0.0,0.0,-0.8758,-0.9552,-1.0221,-1.0566,-1.1069,-1.1389,-1.1395,-1.1395,-1.0998,-0.9973,-0.8743,0.0,0.0,0.0,0.0,0.0,0.0,0.0,0.0,0.0,-0.0514,-0.1586,-0.0503,0.0,0.0,0.0,0.0,0.0,0.0,0.0,0.0,0.0,0.0,0.0,0.0,0.0,0.0,0.0,0.0,0.0,0.0,0.0,0.0,0.0,0.0,0.0,0.0,-0.6303,-0.633,-0.6477,-0.6793,-0.7098,-0.7102,-0.737,-0.7604,-0.76,-0.7265,-0.6886,-0.6886,-0.6583,-0.63,-0.63,-0.63,-0.63,-0.63,-0.63,-0.6644,-0.7672,-0.937,-1.0731,-1.11,-1.3813,-1.5661,-1.5275,-1.6611,-1.7829,-1.8437,-1.9025,-1.9424,-1.9424,-1.9424,0.0,-1.9424,-1.9424,-1.9366,-1.9366,-1.6267,-1.4604,-1.4545,-1.1378,-0.9751,-0.9612,-0.9608,-0.953,-0.9378,-0.9282,-0.921,0.0,0.0,0.0,0.0,-1.116,-1.2832,-1.5257,-1.3857,-1.418,-1.5417,-1.5417,-1.5417,-1.5636,0.0,0.0,0.0,0.0,0.0,0.0,0.0,-0.9144,-0.9546,-1.0472,-1.0541,-1.0729,-1.1329,-1.1389,-1.1286,-1.0964,-0.9854,0.0,0.0,0.0,0.0,0.0,0.0,0.0,0.0,0.0,-0.3541,-0.2627,-0.0857,-0.039,-0.1085,-0.0349,0.0,0.0,0.0,0.0,0.0,0.0,0.0,0.0,0.0,0.0,0.0,0.0,0.0,0.0,0.0,0.0,0.0,0.0,0.0,0.0,0.0,0.0,0.0,-0.6354,-0.6569,-0.6861,-0.6923,-0.7092,-0.7216,-0.7166,-0.6956,-0.6746,-0.6641,-0.647,-0.63,-0.63,-0.63,-0.63,-0.63,-0.63,-0.6674,-0.7877,-0.8588,-0.9382,-1.0588,-1.2722,-1.4273,-1.4536,-1.6713,-1.8357,-1.8751,0.0,-1.9424,-1.9424,-1.9424,-1.9279,-1.9078,-1.811,-1.7603,-1.7741,-1.573,-1.4063,-1.2993,-1.0793,-0.9652,-0.9608,-0.9398,-0.933,-0.9275,-0.9072,-0.9008,0.0,0.0,0.0,0.0,-1.1105,-1.224,-1.3804,-1.2349,-1.267,-1.3857,-1.2832,-1.3691,-1.547,0.0,0.0,0.0,0.0,0.0,0.0,0.0,-0.8991,-0.9272,-1.0151,-1.016,-1.0376,-1.1182,-1.1329,-1.1291,-1.1048,-1.0378,0.0,0.0,0.0,0.0,0.0,0.0,0.0,0.0,-0.5473,-0.492,-0.3085,-0.1797,-0.1096,-0.098,-0.0314,0.0,0.0,0.0,0.0,0.0,0.0,0.0,0.0,0.0,0.0,0.0,0.0,0.0,0.0,0.0,0.0,0.0,0.0,0.0,0.0,0.0,0.0,0.0,0.0,-0.6429,-0.6566,-0.6715,-0.6861,-0.691,-0.6865,-0.6725,-0.659,-0.6535,-0.6402,-0.63,-0.63,-0.63,-0.63,-0.63,-0.63,-0.6553,-0.7337,-0.7914,-0.8493,-0.92,-1.1217,-1.2933,-1.3657,-1.5842,-1.7249,0.0,-1.7749,-1.8027,-1.744,-1.8441,0.0,-1.7138,-1.6774,-1.6326,-1.5905,-1.4346,-1.3067,-1.2065,-1.0384,-0.9493,-0.9435,-0.9303,-0.918,-0.9069,-0.8981,-0.8885,0.0,0.0,0.0,0.0,-1.0296,-1.116,-1.2295,-1.0836,-1.116,-1.2349,-1.1433,-1.224,-1.3852,0.0,0.0,0.0,0.0,0.0,0.0,0.0,-0.9004,-0.9291,-0.9646,-0.992,-1.0307,-1.0902,-1.1236,-1.1142,-1.0539,0.0,0.0,0.0,0.0,0.0,0.0,0.0,0.0,-0.5817,-0.5818,-0.5001,-0.3318,-0.301,-0.1959,-0.0236,-0.0079,0.0,0.0,0.0,0.0,0.0,0.0,0.0,0.0,0.0,0.0,0.0,0.0,0.0,0.0,0.0,0.0,0.0,0.0,0.0,0.0,0.0,0.0,0.0,0.0,0.0,0.0,0.0,-0.6563,-0.6668,-0.6668,-0.6563,-0.6497,-0.6497,-0.6395,0.0,-0.63,-0.63,-0.6303,-0.6313,-0.6306,-0.631,-0.634,-0.7456,-0.8032,-0.7258,-0.9637,-1.1839,-1.285,-1.4327,-1.4888,-1.3959,-1.525,-1.5564,-1.42,-1.6658,0.0,-1.4235,-1.5255,-1.5305,-1.3928,-1.2416,-1.1642,-1.1782,-1.017,-0.935,-0.921,-0.92,-0.9066,-0.8885,-0.8885,-0.8885,0.0,0.0,0.0,0.0,-0.8885,-0.9699,-1.0836,-0.9427,-0.9754,-1.0945,-1.0945,-1.0996,-1.1324,0.0,0.0,0.0,0.0,0.0,0.0,0.0,0.0,0.0,0.0,-0.974,-1.0007,-1.0633,-1.1122,-1.1347,0.0,0.0,0.0,0.0,0.0,0.0,0.0,0.0,0.0,-0.5939,-0.6087,-0.5989,-0.555,-0.2301,-0.1282,-0.233,-0.0738,0.0,0.0,0.0,0.0,0.0,0.0,0.0,0.0,0.0,0.0,0.0,0.0,0.0,0.0,-0.5928,-0.6084,0.0,0.0,0.0,0.0,0.0,0.0,0.0,0.0,-0.63,-0.6306,-0.634,0.0,-0.6405,-0.6405,-0.6375,-0.6351,0.0,-0.6323,-0.63,-0.63,-0.63,-0.6334,-0.6443,-0.6371,-0.6412,-0.6715,-0.7129,-0.7404,-0.7494,-0.9425,-1.1844,-1.4501,-1.4359,-1.4417,-1.53,-1.4915,-1.4488,-1.4148,0.0,-1.4751,-1.3846,-1.3056,-1.2376,-1.1839,-1.0362,-1.0325,-1.1778,-1.0113,-0.9245,-0.9207,-0.9042,-0.8971,-0.8885,-0.8885,-0.8885,0.0,0.0,0.0,-0.8885,-0.8885,-0.9099,-0.9372,-0.9047,-0.9099,-0.9427,-0.9427,-1.0131,-1.116,0.0,0.0,0.0,0.0,0.0,0.0,0.0,0.0,0.0,0.0,0.0,0.0,0.0,0.0,0.0,0.0,0.0,0.0,0.0,0.0,0.0,0.0,0.0,-0.5993,-0.5993,-0.6179,-0.6303,-0.631,-0.3041,-0.176,-0.239,-0.0774,0.0,0.0,0.0,-0.0278,0.0,0.0,0.0,0.0,0.0,0.0,0.0,0.0,0.0,0.0,-0.5895,-0.5925,0.0,-0.6101,-0.6156,-0.6166,0.0,0.0,0.0,0.0,-0.6105,-0.6088,-0.6088,-0.6238,-0.6399,-0.6399,-0.6399,-0.6399,-0.6399,-0.6347,-0.63,-0.63,-0.63,-0.6323,-0.6402,-0.6405,-0.6501,-0.6773,-0.6957,-0.7274,-0.7834,-0.956,-1.1199,-1.2307,-1.2443,-1.2569,0.0,-1.2723,-1.2455,-1.1793,0.0,-1.307,-1.1589,-1.1364,-1.0935,-1.0135,-0.932,-0.9401,-1.0465,-0.9542,-0.9055,-0.9052,-0.8977,-0.8885,-0.8885,-0.8885,-0.8885,0.0,0.0,0.0,-0.8885,-0.8885,-0.8885,-0.8885,-0.8885,-0.8885,-0.8885,-0.8885,-0.9427,-1.008,0.0,0.0,0.0,0.0,0.0,0.0,0.0,0.0,0.0,0.0,0.0,0.0,0.0,0.0,0.0,0.0,0.0,0.0,0.0,0.0,0.0,0.0,0.0,-0.6027,-0.6027,-0.6231,-0.6306,-0.6313,-0.4531,-0.3034,-0.1794,-0.0763,-0.0161,0.0,0.0,-0.051,0.0,0.0,0.0,0.0,0.0,0.0,0.0,0.0,0.0,0.0,0.0,0.0,0.0,-0.5905,-0.5973,-0.6013,-0.6194,0.0,0.0,0.0,0.0,0.0,-0.583,-0.6146,-0.6501,-0.6457,-0.6477,-0.6508,-0.6484,-0.6385,-0.63,-0.63,-0.63,-0.6313,-0.6358,-0.6467,-0.6563,-0.6739,-0.6991,-0.7499,-0.8235,-0.9643,-1.0204,-0.9354,-1.0131,0.0,-0.9316,-1.0131,-1.0241,0.0,0.0,-1.1538,-0.9047,-1.008,-1.0186,-0.8937,-0.8885,-0.8885,-0.8885,-0.8885,-0.8885,-0.8885,-0.8885,-0.8885,-0.8885,-0.8885,-0.8885,-0.8885,0.0,0.0,-0.8885,-0.8885,-0.8885,-0.8885,-0.8885,-0.8885,-0.8885,-0.8885,-0.8885,-0.8885,0.0,0.0,0.0,0.0,0.0,0.0,0.0,0.0,0.0,0.0,0.0,0.0,0.0,0.0,0.0,0.0,0.0,0.0,0.0,0.0,0.0,-0.755,-0.672,-0.6265,-0.6265,-0.6286,-0.6303,-0.6303,-0.6202,-0.5033,-0.2836,-0.1949,-0.0966,0.0,0.0,-0.0079,-0.0275,0.0,0.0,0.0,0.0,0.0,0.0,0.0,0.0,0.0,0.0,0.0,0.0,-0.5786,-0.5922,-0.5973,-0.5905,0.0,0.0,0.0,0.0,0.0,-0.5922,-0.6227,-0.6453,-0.6159,-0.6285,-0.648,-0.6361,-0.6317,-0.63,-0.63,-0.63,-0.6375,-0.6586,-0.6651,-0.6756,-0.6984,-0.7385,-0.7926,-0.8554,-0.8894,-0.946,-1.0597,0.0,-0.9644,-1.0676,-0.986,-0.9154,0.0,0.0,-0.9372,-0.8937,-0.9099,-0.9158,-0.8885,-0.8885,-0.8885,-0.8885,-0.8885,-0.8885,-0.8885,-0.8885,-0.8885,-0.8885,-0.8885,-0.8885,0.0,0.0,-0.8885,-0.8885,-0.8885,-0.8885,-0.8885,-0.8885,-0.8885,-0.8885,-0.8885,-0.8885,-0.8885,0.0,0.0,0.0,0.0,0.0,0.0,0.0,0.0,0.0,0.0,0.0,0.0,0.0,0.0,0.0,0.0,0.0,0.0,0.0,0.0,0.0,-0.7859,-0.6834,-0.63,-0.63,-0.6296,-0.6373,-0.6498,-0.6651,-0.553,-0.3241,-0.1578,-0.0542,0.0,0.0,-0.0627,-0.1682,-0.1606,0.0,0.0,0.0,0.0,0.0,0.0,0.0,0.0,0.0,0.0,0.0,0.0,-0.5786,-0.5895,-0.5823,0.0,0.0,0.0,0.0,0.0,-0.565,-0.5945,-0.62,-0.6027,-0.6376,-0.6678,-0.6532,-0.6498,-0.6515,-0.6433,-0.648,-0.6515,-0.6566,-0.6773,-0.7045,-0.7503,-0.8004,-0.8394,-0.8672,-0.8781,-0.9074,0.0,0.0,-0.9154,-0.986,-0.932,0.0,0.0,0.0,0.0,-0.8885,-0.8885,-0.8885,-0.8885,-0.8885,-0.8885,-0.8885,-0.8885,-0.8885,-0.8885,-0.8885,-0.8885,-0.8885,-0.8885,-0.8885,-0.8885,0.0,-0.8885,-0.8885,-0.8885,-0.8885,-0.8885,-0.8885,-0.8885,-0.8885,-0.8885,-0.8885,-0.8885,0.0,0.0,0.0,0.0,0.0,0.0,0.0,0.0,0.0,0.0,0.0,0.0,0.0,0.0,0.0,0.0,0.0,0.0,0.0,0.0,-0.8841,-0.7859,-0.6834,-0.63,-0.63,-0.6317,-0.6431,-0.6718,-0.6757,-0.5653,-0.3394,-0.1348,-0.0245,0.0,-0.0275,-0.1254,-0.2735,-0.2465,-0.3713,0.0,0.0,0.0,0.0,0.0,0.0,0.0,0.0,0.0,0.0,0.0,0.0,0.0,0.0,0.0,0.0,-0.5671,-0.5566,-0.5457,-0.5487,-0.5742,-0.5993,-0.5993,-0.6387,-0.681,-0.6763,-0.6725,-0.6685,-0.6641,-0.6695,-0.6729,-0.6644,-0.697,-0.7388,-0.8001,-0.8411,-0.8682,-0.8754,-0.8811,-0.8885,-0.8885,-0.8885,-0.8885,-0.8885,0.0,0.0,0.0,0.0,0.0,-0.8885,-0.8885,-0.8885,-0.8885,-0.8885,-0.8885,-0.8885,-0.8885,-0.8885,-0.8885,-0.8885,-0.8885,-0.8885,-0.8885,-0.8885,-0.8885,-0.8885,-0.8885,-0.8885,-0.8885,-0.8885,-0.8885,-0.8885,-0.8885,-0.8885,-0.8885,-0.8885,-0.8885,0.0,0.0,0.0,0.0,0.0,0.0,0.0,0.0,0.0,0.0,0.0,0.0,0.0,0.0,0.0,0.0,0.0,0.0,0.0,0.0,-0.8841,-0.7859,-0.6834,-0.63,-0.63,-0.6317,-0.6471,-0.6802,-0.6986,-0.5862,-0.3568,-0.2137,-0.0965,-0.0039,-0.1058,-0.1568,-0.1841,-0.3675,-0.4608,-0.4882,0.0,0.0,0.0,0.0,0.0,0.0,0.0,0.0,0.0,0.0,0.0,0.0,0.0,0.0,-0.58,-0.5789,-0.5684,-0.5603,-0.5735,-0.5895,-0.5993,-0.5993,-0.6268,-0.6576,-0.6851,-0.6803,-0.6773,-0.6994,-0.6953,-0.6906,-0.7024,-0.7353,-0.7719,-0.8177,-0.8391,-0.8598,-0.8828,0.0,-0.8885,-0.8885,-0.8885,-0.8885,-0.8885,0.0,0.0,0.0,0.0,0.0,-0.8885,-0.8885,-0.8885,-0.8885,-0.8885,-0.8885,-0.8885,-0.8885,-0.8885,-0.8885,-0.8885,-0.8885,-0.8885,-0.8885,-0.8885,-0.8885,-0.8885,-0.8885,-0.8885,-0.8885,-0.8885,-0.8885,-0.8885,-0.8885,-0.8885,-0.8885,-0.8885,-0.8885,0.0,0.0,0.0,0.0,0.0,0.0,0.0,0.0,0.0,0.0,0.0,0.0,0.0,0.0,0.0,0.0,0.0,0.0,0.0,-0.9133,-0.836,-0.6942,-0.649,-0.63,-0.63,-0.6317,-0.6431,-0.6718,-0.606,-0.4949,-0.3446,-0.22,-0.1404,-0.102,-0.1411,-0.2309,-0.3597,-0.4375,-0.5079,-0.5747,-0.6141,0.0,0.0,0.0,0.0,0.0,0.0,0.0,0.0,0.0,-0.5545,-0.5583,-0.5576,-0.5593,-0.565,-0.559,-0.5525,-0.5494,-0.5545,-0.5772,-0.5993,-0.5993,-0.6325,-0.6668,-0.6839,-0.691,-0.7034,-0.7241,-0.7319,-0.7363,-0.7417,-0.7594,-0.7851,-0.8211,-0.8469,-0.8699,-0.8854,-0.8885,-0.8885,-0.8885,-0.8885,-0.8885,0.0,0.0,0.0,0.0,0.0,0.0,-1.0241,-1.0296,-0.986,-0.8937,-0.9809,-0.9809,-0.8885,-0.8885,-0.8885,-0.8885,-0.8885,-0.8885,-0.8885,-0.8885,-0.8885,-0.8885,-0.8885,-0.8885,-0.8885,-0.8885,-0.8885,-0.8885,-0.8885,-0.8885,-0.8885,-0.8885,-0.8885,-0.8885,0.0,0.0,0.0,0.0,0.0,0.0,0.0,0.0,0.0,0.0,0.0,0.0,0.0,0.0,0.0,0.0,0.0,0.0,-0.8725,-0.8693,-0.796,-0.6294,-0.6186,-0.6248,-0.6296,-0.6313,-0.6387,-0.6555,-0.5796,-0.4892,-0.3845,-0.2975,-0.2385,-0.2074,-0.2426,-0.3361,-0.4727,-0.5079,-0.5628,-0.63,-0.63,-0.6115,0.0,0.0,0.0,0.0,0.0,0.0,0.0,0.0,-0.5504,-0.5549,-0.5539,-0.5576,-0.5579,-0.5552,-0.5535,-0.5535,-0.5535,-0.5759,-0.6003,-0.6091,-0.6403,-0.6766,-0.7014,-0.7143,-0.7285,-0.7533,-0.759,-0.76,-0.76,-0.7678,-0.7841,-0.815,-0.8445,-0.8693,-0.879,-0.8854,-0.8885,-0.8885,-0.8885,0.0,0.0,0.0,0.0,0.0,0.0,0.0,0.0,-1.1378,-1.0621,-0.9644,-1.0131,-0.9915,-0.8885,-0.8885,-0.8885,-0.8885,-0.8885,-0.8885,-0.8885,-0.8885,-0.8885,-0.8885,-0.8885,-0.8885,-0.8885,-0.8885,-0.8885,-0.8885,-0.8885,-0.8885,-0.8885,-0.8885,-0.8885,-0.8885,0.0,0.0,0.0,0.0,0.0,0.0,0.0,0.0,0.0,0.0,0.0,0.0,0.0,0.0,0.0,0.0,0.0,0.0,-0.8329,-0.8433,-0.7834,-0.6057,-0.5993,-0.6101,-0.6296,-0.63,-0.6289,-0.6304,-0.6428,-0.5947,-0.4894,-0.4778,-0.4139,-0.3163,-0.4217,-0.4688,-0.4805,-0.5864,-0.6296,-0.63,-0.6296,-0.6112,0.0,0.0,0.0,0.0,0.0,0.0,0.0,0.0,-0.5521,-0.5446,-0.5705,-0.5701,-0.5616,-0.5755,-0.5796,-0.58,-0.58,-0.5911,-0.603,-0.6259,-0.6485,-0.6824,-0.7313,-0.7419,-0.7499,-0.7897,-0.7804,-0.76,-0.76,-0.76,-0.7699,-0.7941,-0.8286,-0.8533,-0.8686,-0.8842,-0.8881,-0.8881,-0.8881,0.0,0.0,0.0,0.0,0.0,0.0,0.0,0.0,-1.1919,-1.1105,-1.1055,-0.9699,-0.894,-0.8885,-0.8885,-0.8885,-0.8885,-0.8885,-0.8885,-0.8885,-0.8885,-0.8885,-0.8885,-0.8885,-0.8885,-0.8885,-0.8885,-0.8885,-0.8885,-0.8885,-0.8885,-0.8885,-0.8885,-0.8885,-0.8885,0.0,0.0,0.0,0.0,0.0,0.0,0.0,0.0,0.0,0.0,0.0,0.0,0.0,0.0,0.0,0.0,0.0,0.0,-0.8324,-0.8259,-0.7623,-0.6054,-0.5993,-0.6101,-0.6296,-0.63,-0.6281,-0.6283,-0.6325,-0.5807,-0.4776,-0.4704,-0.453,-0.4256,-0.4569,-0.5118,-0.5822,-0.6028,-0.6162,-0.6289,-0.6142,-0.5979,0.0,0.0,0.0,0.0,0.0,0.0,0.0,0.0,0.0,0.0,-0.5498,-0.5573,-0.5579,-0.5545,-0.5569,-0.5654,-0.5654,-0.5837,-0.603,-0.6259,-0.6637,-0.7075,-0.7316,-0.7455,-0.7628,-0.7921,-0.7885,-0.7746,-0.7746,-0.7746,-0.7814,-0.7958,-0.8204,-0.8384,-0.853,-0.8682,-0.8777,-0.8777,0.0,0.0,0.0,0.0,0.0,0.0,0.0,0.0,0.0,-1.2886,-1.1701,-0.9644,-1.0131,-0.997,-0.8885,-0.8885,-0.8885,-0.8885,-0.8885,-0.8885,-0.8885,-0.8885,-0.8885,-0.8885,-0.8885,-0.8885,-0.8885,-0.8885,-0.8885,-0.8885,-0.8885,-0.8885,-0.8885,-0.8885,-0.8885,-0.8885,0.0,0.0,0.0,0.0,0.0,0.0,0.0,0.0,0.0,0.0,0.0,0.0,0.0,0.0,0.0,0.0,0.0,0.0,0.0,-0.7798,-0.7095,-0.5962,-0.5939,-0.604,-0.6293,-0.63,-0.63,-0.63,-0.63,-0.5983,-0.5354,-0.5354,-0.5354,-0.5354,-0.5354,-0.5639,-0.6162,-0.6067,-0.6084,-0.6162,-0.6067,-0.5939,-0.58,0.0,0.0,0.0,0.0,0.0,0.0,0.0,0.0,0.0,-0.5395,-0.5416,-0.5413,-0.5477,-0.5552,-0.5616,-0.5732,-0.5979,-0.624,-0.6396,-0.6837,-0.7302,-0.7573,-0.7709,-0.7824,-0.7951,-0.787,-0.7831,-0.7889,-0.7851,-0.7862,-0.7965,-0.817,-0.835,-0.8387,-0.8526,-0.8642,-0.8703,0.0,0.0,0.0,0.0,0.0,0.0,0.0,0.0,0.0,-1.3402,-1.2065,-0.9763,-1.0042,-0.9805,-0.8885,-0.8885,-0.8885,-0.8885,-0.8885,-0.8885,-0.8885,-0.8885,-0.8885,-0.8885,-0.8885,-0.8885,-0.8885,-0.8885,-0.8885,-0.8885,-0.8885,-0.8885,-0.8885,-0.8885,-0.8885,-0.8885,0.0,0.0,0.0,0.0,0.0,0.0,0.0,0.0,0.0,0.0,-1.0593,0.0,0.0,0.0,0.0,0.0,0.0,0.0,0.0,0.0,-0.6419,-0.5786,-0.5827,-0.5976,-0.6293,-0.63,-0.63,-0.63,-0.63,-0.63,-0.63,-0.63,-0.63,-0.63,-0.6286,-0.6162,-0.599,-0.5963,-0.5959,-0.5973,-0.5956,-0.5908,-0.5779,-0.5766,0.0,0.0,0.0,0.0,0.0,0.0,0.0,0.0,-0.5395,-0.5267,-0.5174,-0.5488,-0.5579,-0.565,-0.5895,-0.6227,-0.6532,-0.6658,-0.7051,-0.7506,-0.7891,-0.7988,-0.7988,-0.7988,-0.788,-0.7875,-0.7965,-0.7877,-0.7879,-0.7968,-0.8157,-0.8248,-0.8248,-0.8374,-0.8513,0.0,0.0,0.0,0.0,0.0,0.0,0.0,0.0,0.0,0.0,-1.3465,-1.2164,-1.0743,-0.9523,-0.8841,-0.8841,-0.8841,-0.8841,0.0,-0.8841,-0.8841,-0.8844,-0.8871,-0.8885,-0.8885,-0.8885,-0.8885,-0.8885,-0.8885,-0.8885,-0.8885,-0.8885,-0.8885,-0.8885,-0.8885,-0.8885,-0.8885,0.0,0.0,0.0,0.0,0.0,0.0,0.0,0.0,0.0,0.0,0.0,0.0,0.0,0.0,0.0,0.0,0.0,0.0,0.0,0.0,-0.6352,-0.5529,-0.5956,-0.6231,-0.6296,-0.63,-0.63,-0.63,-0.63,-0.63,-0.63,-0.63,-0.63,-0.6293,-0.6132,-0.6023,-0.5976,-0.5783,-0.5749,-0.584,-0.5728,-0.5664,-0.5623,-0.5535,-0.545,0.0,0.0,0.0,0.0,0.0,0.0,0.0,-0.5395,-0.5371,-0.5358,-0.5426,-0.5528,-0.563,-0.5803,-0.6074,-0.6409,-0.6634,-0.7129,-0.7638,-0.7917,-0.7988,-0.7988,-0.7988,-0.7965,-0.7951,-0.7985,-0.7965,-0.7951,-0.7985,-0.8019,-0.8089,-0.8089,-0.8221,-0.833,0.0,0.0,0.0,0.0,0.0,0.0,0.0,0.0,0.0,-1.3058,-1.2792,-1.1534,-0.9102,-0.8719,-0.8581,-0.8581,-0.8581,-0.8581,0.0,-0.8581,-0.8581,-0.8587,-0.8828,-0.8885,-0.8885,-0.8885,-0.8885,-0.8885,-0.8885,-0.8885,-0.8885,-0.8885,-0.8885,-0.8885,-0.8885,-0.8885,-0.8885,0.0,0.0,0.0,0.0,0.0,0.0,0.0,0.0,0.0,0.0,0.0,0.0,0.0,0.0,0.0,0.0,0.0,0.0,0.0,0.0,-0.5884,-0.5418,-0.5986,-0.6228,-0.6073,-0.6111,-0.6149,-0.6149,-0.6078,-0.6153,-0.63,-0.63,-0.63,-0.6293,-0.6098,-0.5912,-0.581,-0.5654,-0.5589,-0.5624,-0.5589,-0.5545,-0.5504,-0.5426,-0.5306,-0.5138,-0.5026,0.0,0.0,0.0,0.0,0.0,0.0,0.0,-0.5179,-0.5351,-0.5365,-0.5433,-0.5722,-0.6064,-0.6405,-0.6803,-0.7204,-0.755,-0.7777,-0.7828,-0.7848,-0.7867,-0.7938,-0.7988,-0.7988,-0.7988,-0.7988,-0.7988,-0.7988,-0.7988,-0.7988,-0.8109,0.0,0.0,0.0,0.0,0.0,0.0,0.0,0.0,0.0,-1.1632,-1.2234,-1.1774,-1.051,-0.8484,-0.8445,-0.8482,-0.8482,-0.8482,-0.8482,-0.8482,-0.8482,-0.8482,-0.8486,-0.8648,-0.876,-0.8828,-0.8828,-0.8814,-0.8885,-0.8885,-0.8885,-0.8885,-0.8885,-0.8885,-0.8885,-0.8885,-0.8885,-0.8885,0.0,0.0,0.0,0.0,0.0,0.0,0.0,0.0,0.0,0.0,0.0,0.0,0.0,0.0,0.0,0.0,0.0,0.0,0.0,-0.5687,-0.5402,-0.5386,-0.5872,-0.603,-0.5801,-0.5852,-0.5929,-0.5952,-0.5837,-0.5935,-0.63,-0.6272,-0.6276,-0.6293,-0.6071,-0.584,-0.5586,-0.5532,-0.5423,-0.533,-0.5423,-0.5399,-0.5313,-0.5289,-0.5111,-0.4884,-0.4891,-0.4941,-0.5066,-0.509,0.0,0.0,0.0,0.0,-0.4935,-0.5238,-0.5196,-0.5147,-0.5576,-0.5966,-0.6439,-0.695,-0.7258,-0.7456,-0.7563,-0.76,-0.7634,-0.775,-0.7896,-0.7958,-0.7985,-0.7988,-0.7988,-0.7988,-0.7988,-0.7988,-0.7988,-0.7988,0.0,0.0,0.0,0.0,0.0,0.0,0.0,0.0,0.0,-1.0583,-1.1848,-1.078,-0.9571,-0.8279,-0.8343,-0.8404,-0.8404,-0.8404,-0.8404,-0.8404,-0.8404,-0.8404,-0.8404,-0.8404,-0.8503,-0.8672,-0.8672,-0.8743,-0.8804,-0.8804,-0.8821,-0.8844,-0.8844,-0.8861,-0.8885,-0.8885,-0.8885,-0.8885,0.0,0.0,0.0,0.0,0.0,0.0,0.0,0.0,0.0,0.0,-0.8349,-0.8297,-0.8178,-0.7981,0.0,0.0,0.0,0.0,-0.5311,0.0,0.0,-0.5401,-0.5464,-0.5571,-0.5719,-0.5567,-0.5599,-0.583,-0.5688,-0.5876,-0.6296,-0.6125,-0.6132,-0.6286,-0.5959,-0.5742,-0.5572,-0.5304,-0.5076,-0.4979,-0.4999,-0.4996,-0.4962,-0.483,-0.484,-0.487,-0.4769,-0.4819,-0.4935,-0.5056,-0.5029,0.0,0.0,0.0,-0.4755,-0.4928,-0.4962,-0.4958,-0.514,-0.5728,-0.6439,-0.695,-0.7258,-0.7456,-0.7563,-0.76,-0.7604,-0.7624,-0.7743,-0.7882,-0.7965,-0.7988,-0.7988,-0.7988,-0.7988,-0.7988,-0.7988,-0.7988,0.0,0.0,0.0,0.0,0.0,0.0,0.0,0.0,-1.073,-1.0583,-1.1848,-1.0703,-0.9397,-0.8069,-0.8039,-0.8049,-0.8049,-0.8049,-0.8049,-0.8049,-0.8049,-0.8049,-0.8049,-0.8049,-0.8248,-0.8513,-0.8513,-0.8523,-0.8543,-0.8543,-0.8621,-0.874,-0.874,-0.8821,-0.8885,-0.8885,-0.8885,-0.8885,0.0,0.0,0.0,0.0,0.0,0.0,0.0,0.0,0.0,0.0,0.0,-0.7824,-0.7325,-0.7021,0.0,0.0,0.0,0.0,-0.5257,-0.5349,0.0,0.0,-0.5388,-0.5389,-0.538,-0.5389,-0.5457,-0.559,-0.5325,-0.5572,-0.6293,-0.6013,-0.6118,-0.6495,-0.6231,-0.5928,-0.5688,-0.5386,-0.5128,-0.4887,-0.4887,-0.4935,-0.4982,-0.4779,-0.4785,-0.4887,-0.4679,-0.466,-0.4802,-0.4863,-0.4901,-0.4897,-0.4961,0.0,0.0,0.0,-0.4792,-0.488,-0.5281,-0.5752,-0.6254,-0.6766,-0.701,-0.7163,-0.7309,-0.7343,-0.7366,-0.7455,-0.7519,-0.7634,-0.7868,-0.7913,-0.7891,-0.7975,-0.7988,-0.7988,-0.7988,-0.7988,0.0,0.0,0.0,0.0,0.0,0.0,0.0,0.0,-0.9608,-0.946,-1.0779,-0.9608,-0.8627,-0.8041,-0.7988,-0.7988,-0.7988,-0.7988,-0.7988,-0.7988,-0.7988,-0.7988,-0.7988,-0.7988,-0.8157,-0.8364,-0.8364,-0.8408,-0.8482,-0.8482,-0.8523,-0.8581,-0.8581,-0.8676,-0.8811,-0.8811,-0.8811,-0.8885,0.0,0.0,0.0,0.0,0.0,0.0,0.0,0.0,0.0,0.0,0.0,0.0,-0.6428,0.0,0.0,0.0,0.0,0.0,-0.516,0.0,0.0,0.0,0.0,-0.5245,-0.5101,-0.5199,-0.5279,-0.5279,-0.5026,-0.5338,-0.618,-0.5949,-0.6179,-0.6746,-0.645,-0.6108,-0.5732,-0.5504,-0.5209,-0.4941,-0.4941,-0.5005,-0.5079,-0.4931,-0.4931,-0.4992,-0.4716,-0.4653,-0.4745,-0.4704,-0.4741,-0.4809,-0.485,-0.4755,0.0,0.0,0.0,-0.4778,-0.5277,-0.5637,-0.5969,-0.6417,-0.6671,-0.6861,-0.7001,-0.7045,-0.7085,-0.7282,-0.7312,-0.739,-0.7651,-0.7733,-0.7794,-0.786,-0.7911,-0.7931,-0.7931,0.0,0.0,0.0,0.0,0.0,0.0,0.0,0.0,0.0,-0.8775,-0.8577,-0.9948,-0.8726,-0.7988,-0.7988,-0.7988,-0.7988,-0.7988,-0.7988,-0.7988,-0.7988,-0.7988,-0.7988,-0.7988,-0.7988,-0.8102,-0.8211,-0.8211,-0.8272,-0.8367,-0.8367,-0.8394,-0.8428,-0.8428,-0.852,-0.8659,-0.8696,-0.8781,-0.8831,0.0,0.0,0.0,0.0,0.0,0.0,0.0,0.0,0.0,0.0,0.0,0.0,-0.5465,-0.5164,-0.5005,-0.5085,0.0,0.0,0.0,0.0,0.0,0.0,0.0,0.0,-0.511,-0.4978,-0.4911,-0.4911,-0.4894,-0.523,-0.5827,-0.5922,-0.63,-0.6856,-0.6458,-0.6054,-0.5589,-0.5463,-0.5267,-0.509,-0.509,-0.5093,-0.5113,-0.531,-0.5365,-0.5334,-0.5003,-0.487,-0.4854,-0.4741,-0.4627,-0.4539,-0.4657,-0.4627,-0.4501,0.0,0.0,0.0,-0.4867,-0.5169,-0.5539,-0.5952,-0.6281,-0.6573,-0.6829,-0.6896,-0.6937,-0.7078,-0.7109,-0.7159,-0.7363,-0.7512,-0.7614,-0.7621,-0.7736,-0.7824,-0.7824,0.0,0.0,0.0,0.0,0.0,0.0,0.0,0.0,0.0,-0.8775,-0.8577,-0.9948,-0.8726,-0.7988,-0.7988,-0.7988,-0.7988,-0.7988,-0.7988,-0.7988,-0.7988,-0.7988,-0.7988,-0.7988,-0.7988,-0.7992,-0.8002,-0.8002,-0.8005,-0.8012,-0.8012,-0.815,-0.8333,-0.8333,-0.837,-0.8513,-0.8659,-0.8716,-0.8743,0.0,0.0,0.0,0.0,0.0,0.0,0.0,0.0,0.0,0.0,0.0,0.0,0.0,-0.5098,-0.4941,-0.5074,-0.4724,0.0,0.0,0.0,0.0,0.0,0.0,0.0,0.0,-0.4914,-0.487,-0.4772,-0.4674,-0.4982,-0.5667,-0.5722,-0.5962,-0.631,-0.6288,-0.6259,-0.616,-0.562,-0.5419,-0.5406,-0.5177,-0.5272,-0.5549,-0.5446,-0.5515,-0.5606,-0.5311,-0.5235,-0.5179,-0.5026,-0.4874,-0.4748,-0.4704,-0.4614,-0.4491,-0.4491,-0.4559,-0.4653,-0.4863,-0.5064,-0.5321,-0.5772,-0.6037,-0.6268,-0.6566,-0.6787,-0.69,-0.695,-0.7034,-0.7112,-0.7214,-0.735,-0.7485,-0.7584,-0.7641,-0.7706,-0.7797,0.0,0.0,0.0,0.0,0.0,0.0,0.0,0.0,0.0,0.0,-0.8187,-0.8676,-0.8283,-0.7988,-0.7988,-0.7988,-0.7988,-0.7988,-0.7988,-0.7988,-0.7988,-0.7988,-0.7988,-0.7988,-0.7988,-0.7988,-0.7988,-0.7988,-0.7988,-0.7988,-0.7988,-0.8022,-0.8123,-0.8123,-0.8214,-0.8353,-0.8408,-0.855,-0.8716,0.0,0.0,0.0,0.0,0.0,0.0,0.0,0.0,-0.5395,-0.5395,0.0,0.0,0.0,0.0,-0.4979,-0.5001,-0.4702,-0.4486,-0.4494,-0.4498,0.0,0.0,0.0,0.0,0.0,-0.4887,-0.4843,-0.4691,-0.4617,-0.4853,-0.5365,-0.5413,-0.562,-0.5912,-0.5901,-0.6047,-0.6291,-0.5796,-0.5644,-0.5722,-0.5481,-0.5578,-0.5867,-0.5805,-0.5863,-0.5922,-0.5674,-0.5586,-0.5511,-0.5277,-0.5111,-0.4931,-0.4813,-0.4592,-0.4392,-0.4392,-0.4463,-0.4575,-0.4724,-0.487,-0.5091,-0.5542,-0.5732,-0.5922,-0.6409,-0.6593,-0.6732,-0.6831,-0.6923,-0.7024,-0.7024,-0.7193,-0.7326,-0.7428,-0.7489,-0.7556,-0.7651,0.0,0.0,0.0,0.0,0.0,0.0,0.0,0.0,0.0,0.0,0.0,-0.7847,-0.7843,-0.7843,-0.7843,-0.7887,-0.7914,-0.7914,-0.7965,-0.7988,-0.7988,-0.7988,-0.7988,-0.7988,-0.7988,-0.7988,-0.7988,-0.7988,-0.7988,-0.7988,-0.7988,-0.7988,-0.7988,-0.7988,-0.8102,-0.8201,-0.8252,-0.8394,-0.857,0.0,0.0,0.0,0.0,0.0,0.0,0.0,0.0,-0.5399,-0.5395,0.0,0.0,0.0,0.0,0.0,-0.4829,-0.4603,-0.4508,-0.4505,-0.4491,0.0,0.0,0.0,0.0,-0.4887,-0.4887,-0.4843,-0.4691,-0.4684,-0.4762,-0.4884,-0.5026,-0.5326,-0.5762,-0.5295,-0.5427,-0.5973,-0.5963,-0.5973,-0.5993,-0.5983,-0.599,-0.6037,-0.6356,-0.6426,-0.6293,-0.6098,-0.5952,-0.5783,-0.5521,-0.5284,-0.5096,-0.4938,-0.4587,-0.4207,-0.4204,-0.4207,-0.4271,0.0,0.0,0.0,-0.5266,-0.5378,-0.5573,-0.6313,-0.6378,-0.6371,-0.6627,-0.681,-0.6873,-0.6879,-0.6991,-0.7085,-0.7085,-0.7261,-0.7412,-0.7415,0.0,0.0,0.0,0.0,0.0,0.0,0.0,0.0,0.0,-0.7804,-0.7743,-0.7607,-0.76,-0.76,-0.76,-0.7733,-0.7804,-0.7804,-0.7901,-0.7978,-0.7978,-0.7978,-0.7978,-0.7982,-0.7982,-0.7985,-0.7988,-0.7988,-0.7988,-0.7988,-0.7988,-0.7988,-0.7988,-0.7988,-0.7988,-0.8008,-0.8208,-0.832,-0.834,0.0,0.0,0.0,0.0,0.0,-0.5881,-0.563,-0.5555,-0.5521,0.0,0.0,0.0,-0.5409,-0.5359,-0.5185,-0.4886,-0.4641,-0.4493,-0.4512,-0.4493,-0.4559,-0.4713,-0.4836,-0.4887,-0.4887,-0.4887,-0.4843,-0.4691,-0.4607,-0.4634,-0.4758,-0.4908,-0.5066,-0.5282,-0.5301,-0.5426,-0.5566,-0.5318,-0.5504,-0.5973,-0.5796,-0.5966,-0.6349,-0.6368,-0.6467,-0.6559,-0.6403,-0.6393,-0.6407,-0.6149,-0.5908,-0.5646,-0.5069,-0.4758,-0.4545,-0.4436,-0.4558,-0.4665,-0.4539,0.0,0.0,0.0,0.0,0.0,0.0,0.0,-0.6013,-0.6361,-0.6498,-0.663,-0.6742,-0.6797,-0.682,-0.682,-0.7037,-0.7244,-0.7402,0.0,0.0,0.0,0.0,0.0,0.0,0.0,0.0,0.0,-0.7658,-0.7641,-0.76,-0.76,-0.76,-0.76,-0.7638,-0.7658,-0.7658,-0.7699,-0.7723,-0.7723,-0.7723,-0.7777,-0.7875,-0.7875,-0.7884,-0.7988,-0.7988,-0.7988,-0.7988,-0.7988,-0.7988,-0.7988,-0.7988,-0.7988,-0.7995,-0.8039,-0.8174,-0.8327,0.0,0.0,0.0,-0.602,-0.5993,-0.5912,-0.5715,-0.5677,-0.5647,0.0,0.0,0.0,-0.5586,-0.5579,-0.5447,-0.5142,-0.4965,-0.476,-0.452,-0.4577,-0.4628,-0.4624,-0.4802,-0.4887,-0.4887,-0.4887,-0.4874,-0.4785,-0.4597,-0.4535,-0.4627,-0.4687,-0.4806,-0.4948,-0.5006,-0.5088,-0.5159,-0.4857,-0.5162,-0.5847,-0.5864,-0.6115,-0.6433,-0.6498,-0.6607,-0.6698,-0.6671,-0.6678,-0.6664,-0.6467,-0.6166,-0.5791,-0.517,-0.4914,-0.4833,-0.4648,-0.4728,-0.488,-0.4701,-0.4782,-0.4928,-0.4962,0.0,0.0,-0.545,-0.5617,-0.5722,0.0,-0.632,-0.647,-0.6576,-0.6658,-0.6702,-0.6702,-0.6844,-0.701,-0.7163,0.0,0.0,0.0,0.0,0.0,0.0,-0.7563,-0.7573,-0.7509,-0.7506,-0.7475,-0.7411,-0.7407,-0.7407,-0.7407,-0.7472,-0.7506,-0.7506,-0.7567,-0.76,-0.76,-0.76,-0.7645,-0.7723,-0.7723,-0.7804,-0.7894,-0.7894,-0.7931,-0.7988,-0.7988,-0.7988,-0.7988,-0.7988,-0.7988,-0.7988,-0.7988,-0.8096,-0.8174,0.0,0.0,-0.6235,-0.6074,-0.6016,-0.6003,-0.585,-0.5827,-0.582,0.0,-0.581,-0.5806,-0.584,-0.5813,-0.5719,-0.5467,-0.5405,-0.5147,-0.4575,-0.4707,-0.4708,-0.4498,-0.4741,-0.4864,-0.4864,-0.4881,-0.4881,-0.4864,-0.4648,-0.4505,-0.4491,-0.4491,-0.4563,-0.466,-0.4552,-0.4641,-0.4853,-0.4641,-0.4941,-0.5576,-0.603,-0.6248,-0.6368,-0.6725,-0.6824,-0.6766,-0.6842,-0.6851,-0.6722,-0.6556,-0.62,-0.5752,-0.5305,-0.516,-0.5096,-0.4847,-0.4874,-0.4958,-0.4972,-0.4982,-0.5047,-0.531,-0.5152,0.0,-0.5593,-0.5562,-0.5508,0.0,-0.6078,-0.6269,-0.6412,-0.6522,-0.662,-0.6603,-0.6641,-0.6732,-0.6862,0.0,0.0,0.0,0.0,0.0,-0.7346,-0.7468,-0.7492,-0.7356,-0.7346,-0.7285,-0.7102,-0.7095,-0.7095,-0.7095,-0.7275,-0.7346,-0.7346,-0.7478,-0.755,-0.755,-0.755,-0.7556,-0.7577,-0.7577,-0.7651,-0.7787,-0.7804,-0.7889,-0.7965,-0.7982,-0.7988,-0.7988,-0.7988,-0.7988,-0.7988,-0.7988,-0.7988,-0.7988,0.0,-0.5969,-0.6105,-0.6238,-0.6255,-0.6162,-0.5973,-0.5949,-0.5939,-0.5817,-0.5785,-0.5895,-0.619,-0.5957,-0.5768,-0.5715,-0.5528,-0.5238,-0.4856,-0.4823,-0.4708,-0.4498,-0.4665,-0.4735,-0.4735,-0.4857,-0.486,-0.4735,-0.4674,-0.461,-0.4491,-0.4491,-0.4505,-0.4535,-0.4505,-0.4525,-0.4593,-0.4752,-0.4982,-0.5204,-0.5484,-0.5931,-0.648,-0.6529,-0.6766,-0.7001,-0.6916,-0.694,-0.697,-0.6746,-0.6356,-0.5912,-0.5739,-0.5593,-0.5464,-0.5317,-0.5371,-0.5433,-0.5341,-0.5399,-0.5413,-0.5223,-0.5226,0.0,-0.5118,-0.5233,-0.5419,0.0,-0.5648,-0.5766,-0.5905,-0.6057,-0.6118,-0.5996,-0.6281,-0.6614,-0.6849,-0.691,0.0,0.0,0.0,0.0,-0.7139,-0.7169,-0.7173,-0.7142,-0.7139,-0.7129,-0.7098,-0.7095,-0.7095,-0.7095,-0.7125,-0.7139,-0.7139,-0.7169,-0.7186,-0.7186,-0.7186,-0.7295,-0.746,-0.746,-0.7499,-0.7648,-0.7763,-0.7828,-0.7865,-0.7938,-0.7988,-0.7988,-0.7988,-0.7988,-0.7988,-0.7988,-0.7988,-0.7988,-0.5681,-0.5878,-0.6016,-0.6132,-0.6248,-0.6272,-0.6159,-0.6146,-0.6118,-0.604,-0.6037,-0.6111,-0.6289,-0.6145,-0.5969,-0.5811,-0.569,-0.5465,-0.5173,-0.4958,-0.4767,-0.461,-0.465,-0.4724,-0.4802,-0.4806,-0.4806,-0.4806,-0.4653,-0.4566,-0.4491,-0.4491,-0.4573,-0.4684,-0.4559,-0.4614,-0.4796,-0.4802,-0.4901,-0.5133,-0.5542,-0.5962,-0.6422,-0.6529,-0.6725,-0.6912,-0.6841,-0.681,-0.6787,-0.6634,-0.639,-0.6118,-0.5962,-0.5918,-0.5917,-0.5682,-0.5688,-0.5776,-0.5623,-0.5637,-0.5657,-0.5501,-0.5413,0.0,0.0,-0.525,-0.5308,-0.5569,-0.5586,-0.5657,-0.5874,-0.5915,-0.5915,-0.5915,-0.6105,-0.6332,-0.6563,-0.6722,0.0,0.0,0.0,0.0,-0.6984,-0.6991,-0.7021,-0.7092,-0.7095,-0.7095,-0.7095,-0.7095,-0.7095,-0.7095,-0.7095,-0.7095,-0.7095,-0.7095,-0.7095,-0.7095,-0.7095,-0.7136,-0.7255,-0.7255,-0.7339,-0.7495,-0.7641,-0.7746,-0.7824,-0.7928,-0.7988,-0.7988,-0.7988,-0.7988,-0.7988,-0.7988,-0.7988,-0.7988,-0.5586,-0.5783,-0.5915,-0.5942,-0.6115,-0.6255,-0.6255,-0.6279,-0.63,-0.63,-0.63,-0.63,-0.63,-0.6283,-0.6208,-0.5936,-0.5832,-0.5699,-0.5411,-0.5132,-0.4935,-0.4782,-0.4721,-0.4762,-0.4884,-0.4769,-0.4735,-0.483,-0.4641,-0.4518,-0.4491,-0.4491,-0.4638,-0.4867,-0.4675,-0.4765,-0.5083,-0.4908,-0.4989,-0.5268,-0.5754,-0.6061,-0.6242,-0.6505,-0.663,-0.6661,-0.6692,-0.6603,-0.6511,-0.6511,-0.6419,-0.6279,-0.6112,-0.6159,-0.6248,-0.5962,-0.5976,-0.6047,-0.5922,-0.5891,-0.5874,-0.5817,-0.5644,-0.5525,0.0,0.0,0.0,-0.561,-0.5606,0.0,0.0,0.0,0.0,0.0,0.0,0.0,0.0,-0.6386,0.0,0.0,0.0,0.0,0.0,-0.6858,-0.6859,-0.7001,-0.7011,-0.7024,-0.7055,-0.7082,-0.7095,-0.7095,-0.7095,-0.7095,-0.7095,-0.7095,-0.7095,-0.7095,-0.7095,-0.7095,-0.7095,-0.7095,-0.7207,-0.7336,-0.7489,-0.7621,-0.774,-0.7874,-0.7944,-0.7948,-0.7978,-0.7988,-0.7988,-0.7988,-0.7988,-0.7988,-0.5562,-0.5616,-0.5681,-0.5803,-0.5956,-0.602,-0.602,-0.6173,-0.63,-0.63,-0.63,-0.63,-0.63,-0.6311,-0.6287,-0.6235,-0.599,-0.5688,-0.5435,-0.5359,-0.5243,-0.5056,-0.483,-0.4762,-0.4884,-0.4769,-0.4662,-0.4542,-0.4644,-0.4624,-0.4491,-0.4491,-0.4583,-0.4721,-0.4823,-0.4935,-0.5106,-0.5272,-0.5491,-0.5732,-0.58,-0.5837,-0.5884,-0.6231,-0.6429,-0.6555,-0.6651,-0.6603,-0.6511,0.0,-0.6419,-0.6296,0.0,-0.6286,-0.6293,-0.6255,-0.6259,-0.6269,-0.6252,-0.6245,-0.618,-0.5871,-0.5878,-0.5781,-0.5268,0.0,-0.5474,-0.5221,0.0,0.0,0.0,0.0,0.0,0.0,0.0,0.0,-0.5701,-0.5918,-0.6203,0.0,0.0,0.0,0.0,-0.6603,-0.6586,-0.6739,-0.6749,-0.681,-0.6903,-0.7028,-0.7095,-0.7095,-0.7095,-0.7095,-0.7095,-0.7095,-0.7095,-0.7095,-0.7095,-0.7095,-0.7095,-0.7095,-0.7105,-0.7132,-0.7329,-0.7453,-0.7444,-0.7723,-0.7838,-0.7848,-0.7938,-0.7988,-0.7988,-0.7988,-0.7988,-0.7988,-0.5477,-0.5562,-0.561,-0.5667,-0.58,-0.5928,-0.5979,-0.623,-0.6395,-0.631,-0.6371,-0.6436,-0.643,-0.6346,-0.632,-0.6293,-0.63,-0.622,-0.5942,-0.5657,-0.5464,-0.5399,-0.5108,-0.4945,-0.5009,-0.4809,-0.466,-0.4624,-0.4597,-0.4552,-0.4491,-0.4491,-0.4662,-0.4945,-0.4897,-0.511,-0.5518,-0.5501,-0.5566,-0.5684,0.0,-0.5752,0.0,-0.6149,-0.6337,-0.6399,-0.6463,-0.6443,-0.6388,0.0,-0.6351,0.0,0.0,0.0,0.0,-0.63,-0.63,-0.63,0.0,0.0,0.0,0.0,0.0,0.0,-0.5474,0.0,-0.5481,0.0,0.0,0.0,0.0,0.0,0.0,0.0,-0.565,0.0,0.0,0.0,-0.5945,0.0,0.0,0.0,0.0,0.0,0.0,0.0,-0.6617,-0.6675,-0.6873,-0.6943,-0.7011,-0.7095,-0.7095,-0.7095,-0.7095,-0.7095,-0.7095,-0.7095,-0.7095,-0.7095,-0.7095,-0.7095,-0.7095,-0.7105,-0.7305,-0.7415,-0.7433,-0.76,-0.7689,-0.7702,-0.7848,-0.7911,-0.7988,-0.7988,-0.7988,-0.7988,-0.5395,-0.5484,-0.5562,-0.5562,-0.5647,-0.5806,-0.5963,-0.6251,-0.6416,-0.6313,-0.6388,-0.6444,-0.6485,-0.6455,-0.6398,-0.6394,-0.6655,-0.6677,-0.6318,-0.5988,-0.5755,-0.5711,-0.542,-0.5224,-0.5224,-0.4928,-0.4731,-0.4691,-0.4566,-0.4491,-0.4491,-0.4491,-0.4685,-0.4978,-0.503,-0.5301,-0.5742,-0.5722,-0.5735,-0.5779,-0.584,-0.5827,-0.5806,-0.6126,-0.6262,-0.63,-0.63,-0.63,-0.63,-0.63,-0.63,0.0,-0.63,0.0,-0.63,0.0,0.0,0.0,-0.63,0.0,0.0,0.0,0.0,0.0,0.0,0.0,0.0,0.0,0.0,0.0,0.0,0.0,-0.5539,-0.5579,0.0,-0.5583,0.0,0.0,0.0,0.0,0.0,0.0,0.0,0.0,0.0,0.0,0.0,-0.6485,-0.6787,-0.6839,-0.6933,-0.7034,-0.7078,-0.6962,-0.665,-0.6962,-0.6782,-0.6154,-0.647,-0.647,-0.6154,-0.6154,-0.6334,-0.6656,-0.6805,-0.7034,-0.7319,-0.7472,-0.7536,-0.7553,-0.7695,-0.7821,-0.788,-0.7961,-0.7988,-0.7988,-0.5395,-0.5399,-0.5402,-0.5402,-0.5528,-0.5694,-0.5949,-0.6166,-0.6306,-0.63,-0.6303,-0.6361,-0.6501,-0.6598,-0.6675,-0.6672,-0.6947,-0.6873,-0.6344,-0.6279,-0.6173,-0.5986,-0.5732,-0.5576,-0.5576,-0.5138,-0.484,-0.4691,-0.4566,-0.4491,-0.4491,-0.4491,-0.4576,-0.4724,-0.5187,-0.5474,-0.5613,-0.5895,-0.6101,-0.6265,-0.6081,-0.6108,-0.6262,0.0,-0.6132,-0.63,-0.63,0.0,0.0,-0.63,-0.63,0.0,0.0,0.0,0.0,0.0,0.0,0.0,0.0,0.0,0.0,-0.5884,0.0,0.0,0.0,0.0,-0.5586,0.0,0.0,0.0,0.0,-0.5789,-0.5742,-0.561,-0.5705,0.0,0.0,0.0,0.0,0.0,0.0,0.0,0.0,0.0,0.0,0.0,0.0,0.0,-0.6511,-0.6766,-0.6886,-0.6893,-0.7024,-0.6561,-0.5447,-0.6561,-0.5977,-0.3748,-0.491,-0.4821,-0.3703,-0.3703,-0.4328,-0.5447,-0.5453,-0.6077,-0.7115,-0.7316,-0.7426,-0.7439,-0.7546,-0.7611,-0.7648,-0.7884,-0.7988,-0.7988,-0.5395,-0.5395,-0.5395,-0.5395,-0.5436,-0.5573,-0.5833,-0.6176,-0.6439,-0.6439,-0.6528,-0.6644,-0.6888,-0.6788,-0.6764,-0.6968,-0.704,-0.7007,-0.6822,-0.6583,-0.6424,-0.6471,-0.6095,-0.5881,-0.5881,-0.544,-0.5138,-0.4951,-0.4836,-0.4765,-0.4762,-0.466,-0.4697,-0.4853,-0.5098,-0.5348,-0.561,-0.5868,-0.6023,-0.6101,0.0,-0.6122,-0.6293,0.0,0.0,-0.63,-0.63,-0.63,0.0,-0.63,-0.63,-0.63,-0.63,-0.63,-0.63,-0.63,-0.63,0.0,0.0,0.0,-0.6248,-0.6003,0.0,0.0,0.0,0.0,0.0,0.0,0.0,0.0,0.0,-0.58,-0.5755,-0.5613,-0.563,-0.5521,0.0,0.0,0.0,0.0,0.0,0.0,0.0,0.0,0.0,0.0,-0.6023,0.0,0.0,-0.6569,-0.6338,-0.5709,-0.5752,-0.5256,-0.4202,-0.4594,-0.4404,-0.3614,-0.4016,-0.4016,-0.3614,-0.3614,-0.3838,-0.4196,-0.4196,-0.4865,-0.5985,-0.6028,-0.6543,-0.7234,-0.7387,-0.7448,-0.7472,-0.7675,-0.7807,-0.7902,-0.5477,-0.5433,-0.5395,-0.5395,-0.5481,-0.5599,-0.5844,-0.6217,-0.6532,-0.6546,-0.6685,-0.6895,-0.719,-0.7051,-0.7002,-0.7194,-0.7227,-0.7131,-0.6982,-0.6788,-0.663,-0.662,-0.6393,-0.622,-0.6115,-0.5776,-0.5471,-0.5213,-0.5036,-0.4938,-0.4884,-0.4762,-0.4745,-0.4847,-0.5012,-0.527,-0.5566,-0.5881,-0.6023,-0.6112,0.0,-0.6173,0.0,0.0,-0.63,-0.63,0.0,-0.63,-0.63,-0.63,-0.63,-0.63,-0.63,-0.63,-0.63,-0.63,-0.63,-0.63,-0.63,-0.63,0.0,-0.6067,-0.5919,0.0,-0.5698,0.0,-0.5745,0.0,0.0,0.0,0.0,-0.5918,-0.5833,-0.5688,-0.5623,-0.5471,0.0,-0.5077,0.0,0.0,0.0,0.0,0.0,0.0,-0.5881,-0.6095,-0.5962,0.0,0.0,0.0,-0.5497,-0.4545,-0.4541,-0.4046,-0.2954,-0.3366,-0.3183,-0.2343,-0.276,-0.2726,-0.2324,-0.2324,-0.2547,-0.2948,-0.2948,-0.3885,-0.5403,-0.5403,-0.6071,-0.7105,-0.7251,-0.7288,-0.7316,-0.7522,-0.7689,-0.7831,-0.552,-0.5477,-0.5419,-0.5426,-0.5627,-0.5861,0.0,0.0,-0.6569,-0.6692,-0.6844,-0.7054,-0.736,-0.7433,-0.7395,-0.7449,-0.7415,-0.7251,-0.6837,-0.685,-0.6803,-0.6559,-0.663,-0.6569,-0.6327,-0.6115,-0.582,-0.5429,-0.5223,-0.5042,-0.4938,-0.4775,-0.4697,-0.4704,-0.4961,-0.5177,-0.5356,-0.5758,-0.6036,-0.6219,-0.6219,-0.6261,-0.63,-0.63,-0.63,-0.63,-0.63,-0.63,-0.63,-0.63,-0.63,-0.63,-0.63,-0.63,-0.63,-0.63,-0.63,-0.63,-0.63,-0.63,-0.6265,-0.6078,0.0,0.0,0.0,0.0,-0.5993,0.0,0.0,0.0,0.0,0.0,-0.5949,-0.5827,-0.5671,-0.5518,-0.5416,-0.5388,-0.5388,0.0,0.0,0.0,-0.5922,-0.5627,-0.5661,-0.6224,-0.5807,-0.529,0.0,0.0,-0.4359,-0.3353,-0.3428,-0.2925,-0.1716,-0.2862,-0.225,0.0,-0.1152,-0.1119,0.0,0.0,-0.0628,-0.1701,-0.1701,-0.304,-0.5223,-0.5223,-0.5935,-0.7007,-0.7007,-0.7051,-0.7132,-0.7485,-0.7685,-0.7824,-0.4535,-0.5183,-0.5725,-0.5837,-0.5922,-0.5946,0.0,0.0,0.0,0.0,-0.6953,-0.7196,-0.7651,-0.7604,-0.7647,-0.7842,-0.7666,-0.7385,-0.7033,-0.696,-0.69,-0.6923,-0.6797,-0.6664,-0.659,-0.622,-0.5936,-0.5857,-0.5484,-0.5317,-0.5276,-0.4982,-0.4799,-0.4701,-0.4891,-0.4668,-0.4233,-0.4539,-0.4849,-0.5118,-0.5118,-0.5589,-0.63,0.0,-0.63,-0.63,-0.63,-0.63,-0.63,-0.63,-0.63,-0.63,-0.63,-0.63,-0.63,-0.63,-0.63,-0.63,-0.63,-0.63,-0.6289,-0.6248,-0.6115,-0.5983,0.0,0.0,0.0,0.0,0.0,0.0,0.0,0.0,0.0,-0.5844,-0.5491,-0.5274,-0.5385,-0.526,0.0,-0.5504,0.0,0.0,-0.5332,-0.5629,-0.583,-0.5766,-0.527,0.0,0.0,0.0,0.0,-0.2092,-0.2107,-0.1569,-0.0492,-0.0783,-0.0631,0.0,-0.0306,-0.031,0.0,0.0,-0.018,-0.0449,-0.0449,-0.1344,-0.2727,-0.2727,-0.3974,-0.5849,-0.5849,-0.634,-0.7132,-0.7485,-0.7624,-0.7692,-0.3613,-0.453,-0.5479,-0.5915,0.0,0.0,-0.6157,-0.6363,0.0,-0.6846,-0.7112,0.0,-0.7685,-0.7763,-0.7845,-0.8007,-0.7855,0.0,-0.7237,-0.7177,-0.7102,-0.7007,-0.6906,-0.6831,-0.6705,-0.6451,-0.6193,-0.5928,-0.5613,-0.5426,-0.5254,-0.4618,-0.4473,-0.4697,-0.4516,-0.419,-0.3799,-0.3742,-0.4114,-0.4647,-0.4178,-0.4373,0.0,-0.5431,-0.5589,-0.567,-0.6141,-0.63,-0.63,-0.63,-0.63,-0.63,-0.63,-0.63,-0.63,-0.63,-0.63,-0.63,-0.63,-0.63,-0.63,-0.63,-0.6235,-0.6132,-0.6132,-0.6132,-0.6132,0.0,0.0,0.0,0.0,0.0,0.0,-0.5684,-0.5494,-0.5203,-0.4851,-0.4689,-0.4563,0.0,-0.4269,0.0,0.0,-0.4962,-0.5307,-0.4576,-0.4446,0.0,0.0,0.0,0.0,-0.0941,-0.0902,-0.0592,0.0,0.0,0.0,0.0,0.0,0.0,0.0,0.0,0.0,0.0,0.0,-0.0673,-0.179,-0.179,-0.2904,-0.4688,-0.5179,-0.5802,-0.6459,-0.73,-0.76,-0.7641,-0.2868,-0.3776,-0.4789,0.0,0.0,0.0,0.0,-0.6192,0.0,-0.6688,0.0,-0.7115,-0.7587,-0.7872,-0.8019,-0.8001,-0.7907,-0.7762,-0.7458,-0.7382,-0.7227,-0.6923,-0.7031,-0.6924,-0.6482,-0.6481,-0.6123,-0.5455,-0.5284,-0.5057,-0.4769,-0.3876,-0.3786,-0.4346,-0.3841,-0.357,-0.3436,-0.292,-0.3311,-0.4217,-0.3281,-0.2968,-0.3202,-0.4139,-0.4491,-0.4608,-0.555,-0.606,-0.63,-0.63,-0.63,-0.63,-0.63,-0.63,-0.63,-0.63,-0.63,-0.63,-0.63,-0.63,-0.63,-0.63,-0.6183,-0.6141,-0.6261,-0.6103,-0.5906,-0.606,-0.5237,-0.4491,0.0,0.0,0.0,-0.5153,-0.5228,-0.4886,-0.397,-0.3845,-0.3572,-0.2808,0.0,0.0,0.0,0.0,0.0,0.0,0.0,0.0,0.0,0.0,0.0,-0.0039,0.0,0.0,0.0,0.0,0.0,0.0,0.0,0.0,0.0,0.0,0.0,0.0,0.0,-0.0583,-0.1567,-0.1567,-0.2281,-0.3482,-0.4688,-0.5179,-0.534,-0.6623,-0.7095,-0.7183,-0.2715,-0.3164,-0.3711,-0.4756,0.0,-0.3804,-0.4984,-0.444,-0.4346,-0.5668,-0.4997,-0.5307,-0.7671,-0.7965,-0.8014,-0.7994,-0.753,0.0,0.0,0.0,0.0,-0.7061,-0.7082,-0.6571,-0.5419,-0.527,-0.4681,-0.3584,-0.3319,-0.3187,-0.3107,-0.2818,-0.2667,-0.2651,-0.2695,-0.2349,-0.1689,-0.0898,0.0,-0.2115,-0.1919,-0.2347,-0.3124,-0.3318,-0.3396,-0.3396,-0.3593,-0.4805,-0.63,-0.63,-0.63,-0.63,-0.63,-0.63,-0.63,-0.63,-0.63,-0.63,-0.63,-0.63,-0.63,-0.63,-0.5628,-0.5198,-0.6103,-0.4924,-0.3904,-0.4805,-0.4139,-0.3396,-0.3396,0.0,0.0,0.0,0.0,0.0,0.0,-0.2916,-0.29,-0.2858,-0.275,-0.2447,0.0,0.0,0.0,0.0,0.0,0.0,0.0,0.0,0.0,0.0,0.0,0.0,0.0,0.0,0.0,0.0,0.0,0.0,0.0,0.0,0.0,0.0,0.0,-0.0135,-0.0314,-0.0314,-0.1031,-0.2236,-0.3438,-0.3927,-0.3939,-0.4312,-0.4444,-0.4804,-0.2035,-0.2314,-0.2751,-0.3693,0.0,0.0,0.0,-0.228,-0.2247,-0.4168,-0.3981,-0.4206,-0.5586,-0.7064,-0.7989,-0.7997,-0.6449,-0.5514,-0.553,-0.5423,-0.537,-0.5309,-0.5262,-0.4946,-0.4198,-0.4149,-0.3987,-0.3681,-0.3026,-0.2896,-0.3259,-0.2252,-0.1918,-0.2185,-0.1899,-0.1916,0.0,0.0,0.0,-0.1568,-0.098,-0.1058,-0.1565,-0.2112,-0.2308,-0.2386,-0.2929,-0.3748,-0.4647,-0.4647,-0.5002,-0.5473,-0.5473,-0.5867,-0.63,-0.63,-0.63,-0.63,-0.63,-0.63,-0.618,-0.5589,-0.5079,-0.4686,-0.4647,-0.3826,-0.324,-0.3748,-0.3047,-0.2308,-0.2308,-0.2287,0.0,0.0,0.0,0.0,0.0,0.0,-0.1818,-0.1427,-0.1356,-0.1159,0.0,0.0,0.0,0.0,0.0,0.0,0.0,0.0,0.0,0.0,0.0,0.0,0.0,0.0,0.0,0.0,0.0,0.0,0.0,0.0,0.0,0.0,0.0,0.0,0.0,0.0,-0.0359,-0.0986,-0.2191,-0.2681,-0.2777,-0.352,-0.3821,-0.3988,-0.1099,-0.1357,0.0,0.0,-0.2035,0.0,-0.1572,-0.0677,-0.0735,-0.2752,-0.2931,-0.3037,-0.3623,-0.5261,-0.6544,-0.7082,-0.4687,-0.304,-0.2837,-0.3408,-0.3723,-0.3618,-0.3614,-0.3412,-0.3009,-0.3016,-0.3135,-0.3295,-0.2513,-0.2418,0.0,-0.153,-0.118,0.0,0.0,0.0,0.0,0.0,-0.0469,-0.1176,-0.0353,0.0,-0.0079,-0.0941,-0.1254,-0.1372,-0.215,-0.2422,-0.2422,-0.2422,-0.3281,-0.4373,-0.4373,-0.4924,-0.5628,-0.5628,-0.5628,-0.5628,-0.5628,-0.5628,-0.5434,-0.4569,-0.4217,-0.3867,-0.324,-0.2773,-0.25,-0.2735,-0.1957,-0.1254,-0.1254,-0.1254,0.0,0.0,0.0,0.0,0.0,0.0,-0.0765,-0.0072,0.0,0.0,0.0,0.0,0.0,0.0,0.0,0.0,-0.0036,0.0,0.0,0.0,0.0,0.0,0.0,0.0,0.0,0.0,0.0,0.0,0.0,0.0,0.0,0.0,0.0,0.0,0.0,0.0,0.0,-0.009,-0.1031,-0.1433,-0.1525,-0.2596,-0.2976,-0.2993,0.0,0.0,0.0,0.0,0.0,0.0,-0.1432,-0.0683,-0.0508,-0.1934,-0.1078,-0.1243,-0.3697,-0.2053,-0.1712,-0.4147,-0.1918,-0.0376,-0.0321,-0.2391,-0.3623,-0.3614,-0.3614,-0.3078,-0.1963,-0.1928,-0.1449,0.0,0.0,-0.0289,0.0,-0.0167,-0.0133,0.0,0.0,0.0,0.0,-0.0076,-0.0077,-0.0157,-0.0039,0.0,0.0,-0.0118,-0.0157,-0.0157,-0.0275,-0.0275,-0.0275,-0.0275,-0.1604,-0.324,-0.324,-0.3318,-0.3396,-0.3396,-0.3396,-0.3396,-0.3396,-0.3396,-0.3357,-0.3279,-0.2581,-0.2113,-0.2929,-0.1643,-0.0549,-0.1528,-0.0902,-0.0157,-0.0157,-0.0157,-0.0157,0.0,0.0,0.0,0.0,0.0,-0.0075,0.0,0.0,0.0,0.0,0.0,0.0,0.0,0.0,0.0,0.0,0.0,0.0,0.0,0.0,0.0,0.0,0.0,0.0,0.0,0.0,0.0,0.0,0.0,0.0,0.0,0.0,0.0,0.0,0.0,0.0,0.0,-0.0135,-0.018,-0.018,-0.0315,-0.036,-0.0361,0.0,0.0,0.0,0.0,0.0,0.0,0.0,-0.0282,-0.019,-0.0742,-0.0329,-0.0386,-0.149,-0.0648,-0.0444,-0.1495,-0.0621,0.0,0.0,-0.0899,-0.1433,-0.1433,-0.1433,-0.121,-0.0718,-0.074,-0.0759,0.0,0.0,-0.0261,-0.0757,-0.0242,0.0,0.0,0.0,0.0,0.0,0.0,0.0,0.0,0.0,0.0,0.0,0.0,0.0,0.0,0.0,0.0,0.0,0.0,-0.098,-0.219,-0.219,-0.2618,-0.3085,-0.3085,-0.3085,-0.3085,-0.3085,-0.3085,-0.2968,-0.2347,-0.188,-0.1528,-0.1292,-0.0588,-0.0118,-0.0549,-0.0314,0.0,0.0,0.0,0.0,0.0,0.0,0.0,0.0,0.0,0.0,0.0,0.0,0.0,0.0,0.0,0.0,0.0,0.0,0.0,0.0,0.0,0.0,0.0,0.0,0.0,0.0,0.0,0.0,0.0,0.0,0.0,0.0,0.0,0.0,0.0,0.0,0.0,0.0,0.0,0.0,0.0,0.0,0.0,0.0,0.0,0.0,0.0,0.0,0.0,0.0,0.0,0.0,0.0,0.0,0.0,0.0,0.0,0.0,0.0,0.0,0.0,0.0,0.0,0.0,0.0,0.0,0.0,0.0,0.0,0.0,0.0,0.0,0.0,-0.03,-0.0912,-0.0284,-0.031,-0.0905,0.0,0.0,0.0,0.0,0.0,0.0,0.0,0.0,0.0,0.0,0.0,0.0,0.0,0.0,0.0,0.0,0.0,0.0,0.0,-0.0521,-0.1118,-0.1142,-0.1605,-0.2189,-0.2189,-0.2189,-0.2189,-0.2189,-0.2189,-0.2033,-0.1293,-0.1137,-0.0941,-0.0157,0.0,0.0,0.0,0.0,0.0,0.0,0.0,0.0,0.0,0.0,0.0,0.0,0.0,0.0,0.0,0.0,0.0,0.0,0.0,0.0,0.0,0.0,0.0,0.0,0.0,0.0,0.0,0.0,0.0,0.0,0.0,0.0,0.0,0.0,0.0,0.0,0.0,0.0,0.0,0.0,0.0,0.0,0.0,0.0,0.0,0.0,0.0,0.0,0.0,0.0,0.0,0.0,0.0,0.0,0.0,0.0,0.0,0.0,0.0,0.0,0.0,0.0,0.0,0.0,0.0,0.0,0.0,0.0,0.0,0.0,0.0,0.0,0.0,0.0,0.0,0.0,0.0,0.0,0.0,0.0,0.0,0.0,0.0,0.0,0.0,0.0,0.0,0.0,0.0,0.0,0.0,0.0,0.0,0.0,0.0,0.0,0.0,0.0,0.0,0.0,0.0,0.0,0.0,0.0,-0.0039,-0.0039,-0.0039,-0.0039,-0.0039,-0.0039,-0.0039,-0.0039,-0.0039,0.0,0.0,0.0,0.0,0.0,0.0,0.0,0.0,0.0,0.0,0.0,0.0,0.0,0.0,0.0,0.0,0.0,0.0,0.0,0.0,0.0,0.0,0.0,0.0,0.0,0.0,0.0,0.0,0.0,0.0,0.0,0.0,0.0,0.0,0.0,0.0,0.0,0.0,0.0,0.0,0.0,0.0,0.0,0.0,0.0,0.0,0.0,0.0,0.0,0.0,0.0,0.0,0.0,0.0,0.0,0.0,0.0,0.0,0.0,0.0,0.0,0.0,0.0,0.0,0.0,0.0,0.0,0.0,0.0,0.0,0.0,0.0,0.0,0.0,0.0,0.0,0.0,0.0,0.0,0.0,0.0,0.0,0.0,0.0,0.0,0.0,0.0,0.0,0.0,0.0,0.0,0.0,0.0,0.0,0.0,0.0,0.0,0.0,0.0,0.0,0.0,0.0,0.0,0.0,0.0,0.0,0.0,0.0,0.0,0.0,0.0,0.0,0.0,0.0,0.0,0.0,0.0,0.0,0.0,0.0,0.0,0.0,0.0,0.0,0.0,0.0,0.0,0.0,0.0,0.0,0.0,0.0,0.0,0.0,0.0,0.0,0.0,0.0,0.0,0.0,0.0,0.0,0.0,0.0,0.0,0.0,0.0,0.0,0.0,0.0,0.0,0.0,0.0,0.0,0.0,0.0,0.0,0.0,0.0,0.0,0.0,0.0,0.0,0.0,0.0,0.0,0.0,0.0,0.0,0.0,0.0,0.0,0.0,0.0,0.0,0.0,0.0,0.0,0.0,0.0,0.0,0.0,0.0,0.0,0.0,0.0,0.0,0.0,0.0,0.0,0.0,0.0,0.0,0.0,0.0,0.0,0.0,0.0,0.0,0.0,0.0,0.0,0.0,0.0,0.0,0.0,0.0,0.0,0.0,0.0,0.0,0.0,0.0,0.0,0.0,0.0,0.0,0.0,0.0,0.0,0.0,0.0,0.0,0.0,0.0,0.0,0.0,0.0,0.0,0.0,0.0,0.0,0.0,0.0,0.0,0.0,0.0,0.0,0.0,0.0,0.0,0.0,0.0,0.0,0.0,0.0,0.0,0.0,0.0,0.0,0.0,0.0,0.0,0.0,0.0,0.0,0.0,0.0,0.0,0.0,0.0,0.0,0.0,0.0,0.0,0.0,0.0,0.0,0.0,0.0,0.0,0.0,0.0,0.0,0.0,0.0,0.0,0.0,0.0,0.0,0.0,0.0,0.0,0.0,0.0,0.0,0.0,0.0,0.0,0.0,0.0,0.0,0.0,0.0,0.0,0.0,0.0,0.0,0.0,0.0,0.0,0.0,0.0,0.0,0.0,0.0,0.0,0.0,0.0,0.0,0.0,0.0,0.0,0.0,0.0,0.0,0.0,0.0,0.0,0.0,0.0,0.0,0.0,0.0,0.0,0.0,0.0,0.0,0.0,0.0,0.0,0.0,0.0,0.0,0.0,0.0,0.0,0.0,0.0,0.0,0.0,0.0,0.0,0.0,0.0,0.0,0.0,0.0,0.0,0.0,0.0,0.0,0.0,0.0,0.0,0.0,0.0,0.0,0.0,0.0,0.0,0.0,0.0,0.0,0.0,0.0,0.0,0.0,0.0,0.0,0.0,0.0,0.0,0.0,0.0,0.0,0.0,0.0,0.0,0.0,0.0,0.0,0.0,0.0,0.0,0.0,0.0,0.0,0.0,0.0,0.0,0.0,0.0,0.0,0.0,0.0,0.0,0.0,0.0,0.0,0.0,0.0,0.0,0.0,0.0,0.0,0.0,0.0,0.0,0.0,0.0,0.0,0.0,0.0,0.0,0.0,0.0,0.0,0.0,0.0,0.0,0.0,0.0,0.0,0.0,0.0,0.0,0.0,0.0,0.0,0.0,0.0,0.0,0.0,0.0,0.0,0.0,0.0,0.0,0.0,0.0,0.0,0.0,0.0,0.0,0.0,0.0,0.0,0.0,0.0,0.0,0.0,0.0,0.0,0.0,0.0,0.0,0.0,0.0,0.0,0.0,0.0,0.0,0.0,0.0,0.0,0.0,0.0,0.0,0.0,0.0,0.0,0.0,0.0,0.0,0.0,0.0,0.0,0.0,0.0,0.0,0.0,0.0,0.0,0.0,0.0,0.0,0.0,0.0,0.0,0.0,0.0,0.0,0.0,0.0,0.0,0.0,0.0,0.0,0.0,0.0,0.0,0.0,0.0,0.0,0.0,0.0,0.0,0.0,0.0,0.0,0.0,0.0,0.0,0.0,0.0,0.0,0.0,0.0,0.0,0.0,0.0,0.0,0.0,0.0,0.0,0.0,0.0,0.0,0.0,0.0,0.0,0.0,0.0,0.0,0.0,0.0,0.0,0.0,0.0,0.0,0.0,0.0,0.0,0.0,0.0,0.0,0.0,0.0,0.0,0.0,0.0,0.0,0.0,0.0,0.0,0.0,0.0,0.0,0.0,0.0,0.0,0.0,0.0,0.0,0.0,0.0,0.0,0.0,0.0,0.0,0.0,0.0,0.0,0.0,0.0,0.0,0.0,0.0,0.0,0.0,0.0,0.0,0.0,0.0,0.0,0.0,0.0,0.0,0.0,0.0,0.0,0.0,0.0,0.0,0.0,0.0,0.0,0.0,0.0,0.0,0.0,0.0,0.0,0.0,0.0,0.0,0.0,0.0,0.0,0.0,0.0,0.0,0.0,0.0,0.0,0.0,0.0,0.0,0.0,0.0,0.0,0.0,0.0,0.0,0.0,0.0,0.0,0.0,0.0,0.0,0.0,0.0,0.0,0.0,0.0,0.0,0.0,0.0,0.0,0.0,0.0,0.0,0.0,0.0,0.0,0.0,0.0,0.0,0.0,0.0,0.0,0.0,0.0,0.0,0.0,0.0,0.0,0.0,0.0,0.0,0.0,0.0,0.0,0.0,0.0,0.0,0.0,0.0,0.0,0.0,0.0,0.0,0.0,0.0,0.0,0.0,0.0,0.0,0.0,0.0,0.0,0.0,0.0,0.0,0.0,0.0,0.0,0.0,0.0,0.0,0.0,0.0,0.0,0.0,0.0,0.0,0.0,0.0,0.0,0.0,0.0,0.0,0.0,0.0,0.0,0.0,0.0,0.0,0.0,0.0,0.0,0.0,0.0,0.0,0.0,0.0,0.0,0.0,0.0,0.0,0.0,0.0,0.0,0.0,0.0,0.0,0.0,0.0,0.0,0.0,0.0,0.0,0.0,0.0,0.0,0.0,0.0,0.0,0.0,0.0,0.0,0.0,0.0,0.0,0.0,0.0,0.0,0.0,0.0,0.0,0.0,0.0,0.0,0.0,0.0,0.0,0.0,0.0,0.0,0.0,0.0,0.0,0.0,0.0,0.0,0.0,0.0,0.0,0.0,0.0,0.0,0.0,0.0,0.0,0.0,0.0,0.0,0.0,0.0,0.0,0.0,0.0,0.0,0.0,0.0,0.0,0.0,0.0,0.0,0.0,0.0,0.0,0.0,0.0,0.0,0.0,0.0,0.0,0.0,0.0,0.0,0.0,0.0,0.0,0.0,0.0,0.0,0.0,0.0,0.0,0.0,0.0,0.0,0.0,0.0,0.0,0.0,0.0,0.0,0.0,0.0,0.0,0.0,0.0,0.0,0.0,0.0,0.0,0.0,0.0,0.0,0.0,0.0,0.0,0.0,0.0,0.0,0.0,0.0,0.0,0.0,0.0,0.0,0.0,0.0,0.0,0.0,0.0,0.0,0.0,0.0,0.0,0.0,0.0,0.0,0.0,0.0,0.0,0.0,0.0,0.0,0.0,0.0,0.0,0.0,0.0,0.0,0.0,0.0,0.0,0.0,0.0,0.0,0.0,0.0,0.0,0.0,0.0,0.0,0.0303,0.101,0.1314,0.1053,0.0049,0.0,0.0,0.0,0.0,0.0,0.0,0.0,0.0,0.0,0.0,0.0,0.0,0.0,0.0,0.0,0.0,0.0,0.0,0.0,0.0,0.0,0.0,0.0,0.0,0.0,0.0,0.0,0.0,0.0,0.0,0.0,0.0,0.0,0.0,0.0,0.0,0.0,0.0,0.0,0.0,0.0,0.0,0.0,0.0,0.0,0.0,0.0,0.0,0.0,0.0,0.0,0.0,0.0,0.0,0.0,0.0,0.0,0.0,0.0,0.0,0.0,0.0,0.0,0.0,0.0,0.0,0.0,0.0,0.0,0.0,0.0,0.0,0.0,0.0,0.0,0.0,0.0,0.0,0.0,0.0,0.0,0.0,0.0,0.0,0.0,0.0,0.0,0.0,0.0,0.0,0.0,0.0,0.0,0.0,0.0,0.0,0.0,0.0907,0.0907,0.0907,0.0907,0.0907,0.0907,0.0907,0.0907,0.0907,0.0907,0.0907,0.0907,0.0907,0.0908,0.1363,0.2376,0.2778,0.2521,0.1309,0.0846,0.0441,0.0,0.0,0.0,0.0,0.0,0.0,0.0,0.0,0.0,0.0,0.0,0.0,0.0,0.0,0.0,0.0,0.0,0.0,0.0,0.0,0.0,0.0,0.0,0.0,0.0,0.0,0.0,0.0,0.0,0.0,0.0,0.0,0.0,0.0,0.0,0.0,0.0,0.0,0.0,0.0,0.0,0.0,0.0,0.0,0.0,0.0,0.0,0.0239,0.0319,0.004,0.0437,0.0712,0.0435,0.0,0.0,0.0,0.0706,0.0706,0.0706,0.051,0.0353,0.0353,0.0157,0.0,0.0,0.0,0.0,0.0,0.0,0.0,0.0,0.0,0.0,0.0,0.0,0.0,0.0,0.0,0.0,0.0,0.0,0.0,0.0,0.0,0.0,0.0,0.0,0.0,0.0,0.0,0.0,0.0,0.0,0.0,0.0,0.3715,0.3715,0.3715,0.3715,0.3715,0.3715,0.3715,0.3715,0.3715,0.3715,0.3715,0.3715,0.3715,0.3725,0.3734,0.3846,0.3879,0.4212,0.4951,0.3419,0.1746,0.0097,0.0,0.0,0.0,0.0,0.0,0.0,0.0,0.0,0.0,0.0,0.0,0.0,0.0,0.0,0.0,0.0,0.0,0.0,0.0,0.0,0.0,0.0,0.0,0.0,0.0,0.0,0.0,0.0,0.0,0.0,0.0,0.0,0.0,0.0,0.0,0.0,0.0,0.0,0.0,0.0,0.0,0.0,0.0,0.0,0.0,0.0,0.0878,0.1336,0.0209,0.1724,0.2788,0.166,0.0,0.0,0.289,0.289,0.289,0.289,0.2034,0.1489,0.1489,0.0588,0.0,0.0,0.0,0.0,0.0,0.0,0.0,0.0,0.0,0.0,0.0,0.0,0.0,0.0,0.0,0.0,0.0,0.0,0.0,0.0,0.0,0.0,0.0,0.0,0.0,0.0,0.0,0.0,0.0,0.0,0.0,0.0,0.4016,0.4468,0.4668,0.4116,0.4468,0.4668,0.4066,0.4016,0.4016,0.4016,0.4016,0.4016,0.4016,0.4016,0.4323,0.5144,0.5222,0.5406,0.5752,0.5924,0.4205,0.0199,0.0,0.0,0.0,0.0,0.0,0.0,0.0,0.0,0.0,0.0,0.0,0.0,0.0,0.0,0.0,0.0,0.0,0.0,0.0,0.067,0.1546,0.0431,0.0528,0.1259,0.1259,0.1259,0.1356,0.2177,0.1913,0.1365,0.2209,0.1856,0.1276,0.202,0.2236,0.2236,0.2236,0.17,0.1118,0.1109,0.1096,0.1299,0.206,0.1653,0.1343,0.2098,0.2599,0.2766,0.2307,0.2839,0.3197,0.2714,0.0,0.3085,0.3085,0.3085,0.3085,0.3085,0.2773,0.2542,0.2542,0.215,0.1916,0.1916,0.1916,0.1916,0.1916,0.1332,0.0682,0.0,0.0,0.0,0.0,0.0,0.0,0.0,0.0,0.0,0.0,0.0,0.0,0.0,0.0,0.0,0.0,0.0,0.0,0.0,0.0,0.0,0.0,0.0,0.0,0.0,0.527,0.5772,0.6024,0.537,0.5772,0.6022,0.537,0.527,0.527,0.527,0.527,0.527,0.527,0.5263,0.562,0.6539,0.6623,0.6611,0.6611,0.7478,0.6376,0.2663,0.2514,0.2511,0.2504,0.2524,0.251,0.2511,0.2526,0.2509,0.2509,0.2509,0.2509,0.2508,0.2494,0.2496,0.2508,0.2494,0.2516,0.2508,0.2529,0.2583,0.2606,0.1605,0.1805,0.2614,0.2614,0.2614,0.2761,0.3697,0.341,0.2783,0.3692,0.3297,0.2575,0.344,0.3633,0.3614,0.3614,0.326,0.2861,0.2458,0.2344,0.258,0.3411,0.294,0.2608,0.342,0.3891,0.4053,0.3604,0.4012,0.428,0.3812,0.3989,0.4134,0.4103,0.41,0.41,0.41,0.3787,0.3593,0.3593,0.3279,0.3085,0.3085,0.3085,0.3134,0.3197,0.2549,0.1835,0.1145,0.077,0.0566,0.0583,0.018,0.0,0.0,0.0,0.0,0.0,0.0,0.0,0.0,0.0,0.0,0.0,0.0,0.0,0.0,0.0,0.0,0.0,0.0,0.0,0.0045,0.7988,0.7988,0.7988,0.7988,0.7988,0.7988,0.7988,0.7988,0.7988,0.7988,0.7988,0.7988,0.7988,0.7988,0.7988,0.7988,0.7988,0.7988,0.7988,0.7988,0.8005,0.7989,0.7992,0.7985,0.8022,0.8022,0.7979,0.7992,0.7992,0.7992,0.7992,0.7992,0.7992,0.7982,0.7996,0.8013,0.7982,0.7996,0.8016,0.7992,0.7992,0.5889,0.2858,0.3663,0.4016,0.4016,0.4016,0.4016,0.4016,0.4016,0.4019,0.4009,0.4009,0.395,0.3823,0.3823,0.3721,0.3616,0.3616,0.4508,0.5134,0.3927,0.3614,0.3614,0.3614,0.3614,0.3614,0.3614,0.4596,0.5014,0.3694,0.5325,0.6404,0.4935,0.5706,0.6463,0.632,0.6303,0.6303,0.63,0.5354,0.4727,0.4727,0.3748,0.3124,0.3124,0.3124,0.3197,0.3396,0.3393,0.347,0.3592,0.2432,0.1835,0.1835,0.0628,0.0,0.0,0.0,0.0,0.0,0.0,0.0,0.0045,0.0045,0.0045,0.0045,0.0045,0.0045,0.0045,0.0045,0.0045,0.0045,0.0045,0.0045,0.018,0.7988,0.7988,0.7988,0.7988,0.7988,0.7988,0.7988,0.7988,0.7988,0.7988,0.7988,0.7988,0.7988,0.7988,0.7988,0.7988,0.7988,0.7988,0.7988,0.7988,0.7995,0.8005,0.8005,0.8002,0.7998,0.7998,0.8002,0.8005,0.8005,0.8005,0.8005,0.8005,0.8005,0.8002,0.8011,0.8014,0.8002,0.8011,0.8018,0.8005,0.8022,0.7353,0.6221,0.4616,0.4568,0.5425,0.5425,0.5425,0.5525,0.6476,0.6205,0.537,0.5296,0.5861,0.6602,0.6517,0.6351,0.6249,0.6249,0.6409,0.6293,0.5132,0.4865,0.5087,0.5888,0.5442,0.5087,0.5888,0.6334,0.6457,0.6063,0.6471,0.677,0.6298,0.6453,0.658,0.647,0.645,0.6412,0.6313,0.6025,0.5825,0.5825,0.555,0.5354,0.5354,0.5432,0.518,0.4492,0.4547,0.4269,0.3635,0.3269,0.3083,0.308,0.1031,0.0,0.0,0.0,0.0449,0.1254,0.1254,0.1746,0.2547,0.2547,0.2547,0.2547,0.2547,0.2547,0.2547,0.2547,0.2547,0.2547,0.2547,0.2547,0.2592,0.7988,0.7988,0.7988,0.7988,0.7988,0.7988,0.7988,0.7988,0.7988,0.7988,0.7988,0.7988,0.7988,0.7988,0.7988,0.7988,0.7988,0.7988,0.7988,0.7988,0.7988,0.7988,0.7988,0.7988,0.7988,0.7988,0.7988,0.7988,0.7988,0.7988,0.7988,0.7988,0.7988,0.7988,0.7988,0.7988,0.7988,0.7988,0.7988,0.7992,0.8005,0.8002,0.7836,0.6174,0.6077,0.6783,0.6783,0.6783,0.6933,0.7739,0.7484,0.6769,0.6689,0.7171,0.7794,0.7709,0.758,0.7461,0.7461,0.7394,0.7125,0.6388,0.6109,0.6248,0.6962,0.6561,0.6248,0.6962,0.7095,0.7078,0.7021,0.6991,0.693,0.6858,0.681,0.6736,0.6583,0.6563,0.6529,0.6484,0.6474,0.645,0.6388,0.6381,0.6381,0.6381,0.6518,0.6301,0.5738,0.5769,0.5568,0.499,0.4559,0.4322,0.433,0.237,0.1433,0.1433,0.1433,0.179,0.2503,0.2503,0.2903,0.3614,0.3614,0.3614,0.3614,0.3614,0.3614,0.3614,0.3614,0.3614,0.3614,0.3614,0.3614,0.3659,0.7988,0.7988,0.7988,0.7988,0.7988,0.7988,0.7988,0.7988,0.7988,0.7988,0.7988,0.7988,0.7988,0.7988,0.7988,0.7988,0.7988,0.7988,0.7988,0.7988,0.7988,0.7988,0.7988,0.7988,0.7988,0.7988,0.7988,0.7988,0.7988,0.7988,0.7988,0.7988,0.7988,0.7988,0.7988,0.7988,0.7988,0.7988,0.7988,0.7988,0.7988,0.7988,0.7988,0.7988,0.7988,0.7988,0.7988,0.7988,0.7988,0.7988,0.7988,0.7988,0.7988,0.7894,0.7831,0.7831,0.7729,0.7617,0.7617,0.7607,0.7567,0.7424,0.7275,0.7112,0.7098,0.7095,0.7095,0.7095,0.7095,0.7058,0.6927,0.7011,0.7007,0.6783,0.6858,0.6852,0.6742,0.6722,0.6715,0.6702,0.6702,0.6647,0.6545,0.6532,0.6532,0.6532,0.6634,0.678,0.6879,0.69,0.6964,0.7092,0.6071,0.5536,0.5536,0.4461,0.3792,0.3614,0.3614,0.3659,0.3748,0.3748,0.3837,0.3926,0.3926,0.3926,0.3926,0.3926,0.3926,0.3926,0.3926,0.3926,0.3926,0.3926,0.3926,0.4059,0.7988,0.7988,0.7988,0.7988,0.7988,0.7988,0.7988,0.7988,0.7988,0.7988,0.7988,0.7988,0.7988,0.7988,0.7988,0.7988,0.7988,0.7988,0.7988,0.7988,0.7988,0.7988,0.7988,0.7988,0.7988,0.7988,0.7988,0.7988,0.7988,0.7988,0.7988,0.7988,0.7988,0.7988,0.7988,0.7988,0.7988,0.7988,0.7988,0.7988,0.7988,0.7988,0.7988,0.7988,0.7988,0.7988,0.7988,0.7988,0.7988,0.7988,0.7988,0.7988,0.7988,0.7968,0.7941,0.7941,0.7882,0.7767,0.7767,0.7685,0.759,0.756,0.7434,0.7288,0.7125,0.7095,0.7095,0.7095,0.7095,0.7088,0.7055,0.7075,0.7075,0.7011,0.7031,0.7001,0.6856,0.6836,0.6834,0.6715,0.6702,0.6688,0.6654,0.6651,0.6651,0.6651,0.6793,0.6852,0.6883,0.6991,0.7065,0.7095,0.6874,0.6738,0.6738,0.647,0.544,0.3614,0.3614,0.4105,0.5001,0.5001,0.5489,0.6334,0.6334,0.6334,0.6334,0.6334,0.6334,0.6334,0.6334,0.6334,0.6334,0.6334,0.6334,0.6378,0.7988,0.7988,0.7988,0.7988,0.7988,0.7988,0.7988,0.7988,0.7988,0.7988,0.7988,0.7988,0.7988,0.7988,0.7988,0.7988,0.7988,0.7988,0.7988,0.7988,0.7988,0.7988,0.7988,0.7988,0.7988,0.7988,0.7988,0.7988,0.7988,0.7988,0.7988,0.7988,0.7988,0.7988,0.7988,0.7988,0.7988,0.7988,0.7988,0.7988,0.7988,0.7988,0.7988,0.7988,0.7988,0.7988,0.7988,0.7988,0.7988,0.7988,0.7988,0.7988,0.7988,0.7988,0.7988,0.7988,0.7934,0.787,0.787,0.7865,0.779,0.7719,0.7641,0.7522,0.7302,0.7149,0.7095,0.7095,0.7095,0.7095,0.7095,0.7095,0.7095,0.7095,0.7095,0.7068,0.6997,0.6987,0.6957,0.6919,0.6909,0.6885,0.6817,0.681,0.681,0.681,0.6903,0.6987,0.6987,0.7055,0.7095,0.7095,0.7095,0.7095,0.7095,0.7095,0.647,0.5262,0.5262,0.562,0.6204,0.6204,0.6517,0.7095,0.7095,0.7095,0.7095,0.7095,0.7095,0.7095,0.7095,0.7095,0.7095,0.7095,0.7095,0.7095,0.7988,0.7988,0.7988,0.7988,0.7988,0.7988,0.7988,0.7988,0.7988,0.7988,0.7988,0.7988,0.7988,0.7988,0.7988,0.7988,0.7988,0.7988,0.7988,0.7988,0.7988,0.7988,0.7988,0.7988,0.7988,0.7988,0.7988,0.7988,0.7988,0.7988,0.7988,0.7988,0.7988,0.7988,0.7988,0.7988,0.7988,0.7988,0.7988,0.7988,0.7988,0.7988,0.7988,0.7988,0.7988,0.7988,0.7988,0.7988,0.7988,0.7988,0.7988,0.7988,0.7988,0.7988,0.7988,0.7988,0.7988,0.7988,0.7988,0.7988,0.7961,0.7882,0.7831,0.7746,0.7502,0.7309,0.7129,0.7102,0.7095,0.7095,0.7095,0.7095,0.7095,0.7095,0.7095,0.7095,0.7095,0.7095,0.7095,0.7095,0.7095,0.7051,0.6933,0.6923,0.6923,0.6923,0.7031,0.7095,0.7095,0.7095,0.7095,0.7095,0.7095,0.7095,0.7095,0.7095,0.7095,0.7095,0.7095,0.7095,0.7095,0.7095,0.7095,0.7095,0.7095,0.7095,0.7095,0.7095,0.7095,0.7095,0.7095,0.7095,0.7095,0.7095,0.7095,0.7095,0.7988,0.7988,0.7988,0.7988,0.7988,0.7988,0.7988,0.7988,0.7988,0.7988,0.7988,0.7988,0.7988,0.7988,0.7988,0.7988,0.7988,0.7988,0.7988,0.7988,0.7988,0.7988,0.7988,0.7988,0.7988,0.7988,0.7988,0.7988,0.7988,0.7988,0.7988,0.7988,0.7988,0.7988,0.7988,0.7988,0.7988,0.7988,0.7988,0.7988,0.7988,0.7988,0.7988,0.7988,0.7988,0.7988,0.7988,0.7988,0.7988,0.7988,0.7988,0.7988,0.7988,0.7988,0.7988,0.7988,0.7988,0.7988,0.7988,0.7988,0.7985,0.7965,0.7909,0.7801,0.776,0.7539,0.7302,0.7125,0.7095,0.7095,0.7095,0.7095,0.7095,0.7095,0.7095,0.7095,0.7095,0.7095,0.7095,0.7095,0.7095,0.7088,0.7068,0.7068,0.7068,0.7068,0.7085,0.7095,0.7095,0.7095,0.7095,0.7095,0.7095,0.7095,0.7095,0.7095,0.7095,0.7095,0.7095,0.7095,0.7095,0.7095,0.7095,0.7095,0.7095,0.7095,0.7095,0.7095,0.7095,0.7095,0.7095,0.7095,0.7095,0.7095,0.7095,0.7095,0.7988,0.7988,0.7988,0.7988,0.7988,0.7988,0.7988,0.7988,0.7988,0.7988,0.7988,0.7988,0.7988,0.7988,0.7988,0.7988,0.7988,0.7988,0.7988,0.7988,0.7988,0.7988,0.7988,0.7988,0.7988,0.7988,0.7988,0.7988,0.7988,0.7988,0.7988,0.7988,0.7988,0.7988,0.7988,0.7988,0.7988,0.7988,0.7988,0.7988,0.7988,0.7988,0.7988,0.7988,0.7988,0.7988,0.7988,0.7988,0.7988,0.7988,0.7988,0.7988,0.7988,0.7988,0.7988,0.7988,0.7988,0.7988,0.7988,0.7988,0.7988,0.7988,0.7938,0.7916,0.7831,0.7709,0.755,0.7319,0.7156,0.7095,0.7095,0.7095,0.7095,0.7095,0.7095,0.7095,0.7095,0.7095,0.7095,0.7095,0.7095,0.7095,0.7095,0.7095,0.7095,0.7095,0.7095,0.7095,0.7095,0.7095,0.7095,0.7095,0.7095,0.7095,0.7095,0.7095,0.7095,0.7095,0.7095,0.7095,0.7095,0.7095,0.7095,0.7095,0.7095,0.7095,0.7095,0.7095,0.7095,0.7095,0.7095,0.7095,0.7095,0.7095,0.7095,0.7095]}]]